<?xml version="1.0" encoding="UTF-8" standalone="no" ?><gpx xmlns="http://www.topografix.com/GPX/1/1" xmlns:gpxx="http://www.garmin.com/xmlschemas/GpxExtensions/v3" xmlns:gpxtrkx="http://www.garmin.com/xmlschemas/TrackStatsExtension/v1" xmlns:wptx1="http://www.garmin.com/xmlschemas/WaypointExtension/v1" xmlns:gpxtpx="http://www.garmin.com/xmlschemas/TrackPointExtension/v1" creator="GPSMAP 65" version="1.1" xmlns:xsi="http://www.w3.org/2001/XMLSchema-instance" xsi:schemaLocation="http://www.topografix.com/GPX/1/1 http://www.topografix.com/GPX/1/1/gpx.xsd http://www.garmin.com/xmlschemas/GpxExtensions/v3 http://www8.garmin.com/xmlschemas/GpxExtensionsv3.xsd http://www.garmin.com/xmlschemas/TrackStatsExtension/v1 http://www8.garmin.com/xmlschemas/TrackStatsExtension.xsd http://www.garmin.com/xmlschemas/WaypointExtension/v1 http://www8.garmin.com/xmlschemas/WaypointExtensionv1.xsd http://www.garmin.com/xmlschemas/TrackPointExtension/v1 http://www.garmin.com/xmlschemas/TrackPointExtensionv1.xsd"><metadata><link href="http://www.garmin.com"><text>Garmin International</text></link><time>2026-09-01T06:20:07Z</time></metadata><trk><name>20260901LISA9</name><extensions><gpxx:TrackExtension><gpxx:DisplayColor>Magenta</gpxx:DisplayColor></gpxx:TrackExtension><gpxtrkx:TrackStatsExtension><gpxtrkx:Distance>105000.000</gpxtrkx:Distance><gpxtrkx:TotalElapsedTime>357890</gpxtrkx:TotalElapsedTime><gpxtrkx:MovingTime>13044</gpxtrkx:MovingTime><gpxtrkx:StoppedTime>26988</gpxtrkx:StoppedTime><gpxtrkx:MovingSpeed>8.050</gpxtrkx:MovingSpeed><gpxtrkx:MaxSpeed>75.464</gpxtrkx:MaxSpeed><gpxtrkx:MaxElevation>18754.061</gpxtrkx:MaxElevation><gpxtrkx:MinElevation>-675.644</gpxtrkx:MinElevation><gpxtrkx:Ascent>30114.000</gpxtrkx:Ascent><gpxtrkx:Descent>10764.335</gpxtrkx:Descent><gpxtrkx:AvgAscentRate>0.065</gpxtrkx:AvgAscentRate><gpxtrkx:MaxAscentRate>11.087</gpxtrkx:MaxAscentRate><gpxtrkx:AvgDescentRate>0.023</gpxtrkx:AvgDescentRate><gpxtrkx:MaxDescentRate>-17.533</gpxtrkx:MaxDescentRate></gpxtrkx:TrackStatsExtension></extensions><trkseg><trkpt lat="59.1040732339" lon="31.1804683227"><ele>46.94</ele><time>2026-08-28T02:55:17Z</time></trkpt><trkpt lat="59.1040889919" lon="31.1804651376"><ele>46.70</ele><time>2026-08-28T02:55:32Z</time></trkpt><trkpt lat="59.1042006388" lon="31.1808692291"><ele>57.25</ele><time>2026-08-28T02:58:52Z</time></trkpt><trkpt lat="59.1043094359" lon="31.1807036866"><ele>72.54</ele><time>2026-08-28T02:59:14Z</time></trkpt><trkpt lat="59.1043439694" lon="31.1804967374"><ele>73.25</ele><time>2026-08-28T02:59:38Z</time></trkpt><trkpt lat="59.1042445600" lon="31.1805293430"><ele>63.33</ele><time>2026-08-28T03:00:21Z</time></trkpt><trkpt lat="59.1041798517" lon="31.1805324443"><ele>60.41</ele><time>2026-08-28T03:00:59Z</time></trkpt><trkpt lat="59.1041419655" lon="31.1805369705"><ele>55.82</ele><time>2026-08-28T03:01:50Z</time></trkpt><trkpt lat="59.1041583940" lon="31.1804968212"><ele>54.44</ele><time>2026-08-28T03:02:37Z</time></trkpt><trkpt lat="59.1041785944" lon="31.1805313546"><ele>57.65</ele><time>2026-08-28T03:03:36Z</time></trkpt><trkpt lat="59.1041634232" lon="31.1805308517"><ele>54.57</ele><time>2026-08-28T03:04:26Z</time></trkpt><trkpt lat="59.1042270418" lon="31.1804489605"><ele>52.95</ele><time>2026-08-28T03:05:19Z</time></trkpt><trkpt lat="59.1041593999" lon="31.1805036943"><ele>54.39</ele><time>2026-08-28T03:06:20Z</time></trkpt><trkpt lat="59.1041919217" lon="31.1804650538"><ele>55.52</ele><time>2026-08-28T03:07:13Z</time></trkpt><trkpt lat="59.1042068414" lon="31.1804793868"><ele>54.45</ele><time>2026-08-28T03:08:01Z</time></trkpt><trkpt lat="59.1041950230" lon="31.1804961506"><ele>55.30</ele><time>2026-08-28T03:08:50Z</time></trkpt><trkpt lat="59.1041708831" lon="31.1804811470"><ele>52.44</ele><time>2026-08-28T03:09:30Z</time></trkpt><trkpt lat="59.1041762475" lon="31.1804745253"><ele>49.99</ele><time>2026-08-28T03:10:18Z</time></trkpt><trkpt lat="59.1041678656" lon="31.1805028562"><ele>50.02</ele><time>2026-08-28T03:10:20Z</time></trkpt></trkseg><trkseg><trkpt lat="59.4810268655" lon="31.0211744439"><ele>66.87</ele><time>2026-08-31T19:09:11Z</time></trkpt><trkpt lat="59.4810467307" lon="31.0211152676"><ele>59.51</ele><time>2026-08-31T19:09:28Z</time></trkpt><trkpt lat="59.4810587168" lon="31.0211425927"><ele>60.71</ele><time>2026-08-31T19:09:41Z</time></trkpt><trkpt lat="59.4810486585" lon="31.0211344622"><ele>58.35</ele><time>2026-08-31T19:10:02Z</time></trkpt><trkpt lat="59.4810417853" lon="31.0211277567"><ele>58.14</ele><time>2026-08-31T19:10:18Z</time></trkpt><trkpt lat="59.4810578786" lon="31.0211346298"><ele>58.07</ele><time>2026-08-31T19:10:42Z</time></trkpt><trkpt lat="59.4810404442" lon="31.0210898705"><ele>56.50</ele><time>2026-08-31T19:11:20Z</time></trkpt><trkpt lat="59.4810530171" lon="31.0211345460"><ele>57.48</ele><time>2026-08-31T19:11:47Z</time></trkpt><trkpt lat="59.4810503349" lon="31.0211327858"><ele>56.57</ele><time>2026-08-31T19:12:19Z</time></trkpt><trkpt lat="59.4810451381" lon="31.0211114958"><ele>56.67</ele><time>2026-08-31T19:12:44Z</time></trkpt><trkpt lat="59.4810367562" lon="31.0211006831"><ele>57.17</ele><time>2026-08-31T19:13:18Z</time></trkpt><trkpt lat="59.4810380973" lon="31.0211004317"><ele>57.42</ele><time>2026-08-31T19:14:09Z</time></trkpt><trkpt lat="59.4810236804" lon="31.0210739449"><ele>58.02</ele><time>2026-08-31T19:14:42Z</time></trkpt><trkpt lat="59.4810280390" lon="31.0210731905"><ele>57.77</ele><time>2026-08-31T19:15:19Z</time></trkpt><trkpt lat="59.4810252730" lon="31.0210757889"><ele>57.23</ele><time>2026-08-31T19:16:12Z</time></trkpt><trkpt lat="59.4810381811" lon="31.0211230628"><ele>55.35</ele><time>2026-08-31T19:16:52Z</time></trkpt><trkpt lat="59.4810239319" lon="31.0210834164"><ele>54.87</ele><time>2026-08-31T19:17:32Z</time></trkpt><trkpt lat="59.4810239319" lon="31.0211212188"><ele>53.72</ele><time>2026-08-31T19:17:57Z</time></trkpt><trkpt lat="59.4810336549" lon="31.0211166926"><ele>54.09</ele><time>2026-08-31T19:18:41Z</time></trkpt><trkpt lat="59.4810246862" lon="31.0210923851"><ele>54.71</ele><time>2026-08-31T19:19:05Z</time></trkpt><trkpt lat="59.4810260274" lon="31.0211101547"><ele>55.14</ele><time>2026-08-31T19:19:48Z</time></trkpt><trkpt lat="59.4810261950" lon="31.0211048741"><ele>55.59</ele><time>2026-08-31T19:20:26Z</time></trkpt><trkpt lat="59.4810242672" lon="31.0211077239"><ele>55.55</ele><time>2026-08-31T19:20:52Z</time></trkpt><trkpt lat="59.4810322300" lon="31.0211176984"><ele>55.15</ele><time>2026-08-31T19:21:20Z</time></trkpt><trkpt lat="59.4810335711" lon="31.0211114958"><ele>55.58</ele><time>2026-08-31T19:21:59Z</time></trkpt><trkpt lat="59.4810410310" lon="31.0211213864"><ele>55.94</ele><time>2026-08-31T19:22:38Z</time></trkpt><trkpt lat="59.4810618181" lon="31.0211174469"><ele>55.88</ele><time>2026-08-31T19:22:51Z</time></trkpt><trkpt lat="59.4810311403" lon="31.0211402457"><ele>56.47</ele><time>2026-08-31T19:23:10Z</time></trkpt><trkpt lat="59.4810367562" lon="31.0211021919"><ele>55.66</ele><time>2026-08-31T19:23:26Z</time></trkpt><trkpt lat="59.4810398575" lon="31.0211968236"><ele>55.54</ele><time>2026-08-31T19:23:51Z</time></trkpt><trkpt lat="59.4810293801" lon="31.0211516451"><ele>54.76</ele><time>2026-08-31T19:24:13Z</time></trkpt><trkpt lat="59.4810297992" lon="31.0211148486"><ele>54.15</ele><time>2026-08-31T19:24:38Z</time></trkpt><trkpt lat="59.4810228422" lon="31.0211001802"><ele>50.18</ele><time>2026-08-31T19:25:02Z</time></trkpt><trkpt lat="59.4810197409" lon="31.0210853443"><ele>52.10</ele><time>2026-08-31T19:25:26Z</time></trkpt><trkpt lat="59.4810278714" lon="31.0211190395"><ele>59.62</ele><time>2026-08-31T19:25:51Z</time></trkpt><trkpt lat="59.4810336549" lon="31.0211019404"><ele>54.66</ele><time>2026-08-31T19:26:14Z</time></trkpt><trkpt lat="59.4810378458" lon="31.0211309418"><ele>53.93</ele><time>2026-08-31T19:26:46Z</time></trkpt><trkpt lat="59.4810659252" lon="31.0211501364"><ele>58.46</ele><time>2026-08-31T19:27:12Z</time></trkpt><trkpt lat="59.4810560346" lon="31.0211462807"><ele>57.73</ele><time>2026-08-31T19:27:39Z</time></trkpt><trkpt lat="59.4810429588" lon="31.0211404972"><ele>57.53</ele><time>2026-08-31T19:28:14Z</time></trkpt><trkpt lat="59.4810410310" lon="31.0211294331"><ele>56.83</ele><time>2026-08-31T19:28:48Z</time></trkpt><trkpt lat="59.4810277876" lon="31.0211445205"><ele>58.04</ele><time>2026-08-31T19:29:17Z</time></trkpt><trkpt lat="59.4810412824" lon="31.0211239848"><ele>55.99</ele><time>2026-08-31T19:29:33Z</time></trkpt><trkpt lat="59.4810684398" lon="31.0211370606"><ele>54.22</ele><time>2026-08-31T19:29:53Z</time></trkpt><trkpt lat="59.4810650870" lon="31.0211067181"><ele>51.88</ele><time>2026-08-31T19:30:21Z</time></trkpt><trkpt lat="59.4810758997" lon="31.0211386532"><ele>52.04</ele><time>2026-08-31T19:30:53Z</time></trkpt><trkpt lat="59.4810699485" lon="31.0210893676"><ele>54.00</ele><time>2026-08-31T19:31:16Z</time></trkpt><trkpt lat="59.4810452219" lon="31.0210855957"><ele>55.06</ele><time>2026-08-31T19:32:10Z</time></trkpt><trkpt lat="59.4810331520" lon="31.0210524872"><ele>53.94</ele><time>2026-08-31T19:32:56Z</time></trkpt><trkpt lat="59.4810575433" lon="31.0210605338"><ele>54.36</ele><time>2026-08-31T19:33:49Z</time></trkpt><trkpt lat="59.4810663443" lon="31.0210970789"><ele>55.07</ele><time>2026-08-31T19:34:35Z</time></trkpt><trkpt lat="59.4810523465" lon="31.0210756212"><ele>56.96</ele><time>2026-08-31T19:35:28Z</time></trkpt><trkpt lat="59.4810396899" lon="31.0210932232"><ele>58.44</ele><time>2026-08-31T19:36:15Z</time></trkpt><trkpt lat="59.4810469821" lon="31.0211003479"><ele>58.36</ele><time>2026-08-31T19:36:45Z</time></trkpt><trkpt lat="59.4810555317" lon="31.0211023595"><ele>54.18</ele><time>2026-08-31T19:37:19Z</time></trkpt><trkpt lat="59.4810605608" lon="31.0210815724"><ele>54.55</ele><time>2026-08-31T19:37:54Z</time></trkpt><trkpt lat="59.4810547773" lon="31.0210825782"><ele>56.20</ele><time>2026-08-31T19:38:39Z</time></trkpt><trkpt lat="59.4810481556" lon="31.0211028624"><ele>54.83</ele><time>2026-08-31T19:39:24Z</time></trkpt><trkpt lat="59.4810460601" lon="31.0210718494"><ele>55.31</ele><time>2026-08-31T19:40:12Z</time></trkpt><trkpt lat="59.4810455572" lon="31.0210666526"><ele>57.49</ele><time>2026-08-31T19:40:57Z</time></trkpt><trkpt lat="59.4810543582" lon="31.0210742801"><ele>55.91</ele><time>2026-08-31T19:41:49Z</time></trkpt><trkpt lat="59.4810564537" lon="31.0210647248"><ele>54.40</ele><time>2026-08-31T19:42:35Z</time></trkpt><trkpt lat="59.4810616504" lon="31.0210978333"><ele>54.87</ele><time>2026-08-31T19:43:28Z</time></trkpt><trkpt lat="59.4810572919" lon="31.0210915469"><ele>55.17</ele><time>2026-08-31T19:44:19Z</time></trkpt><trkpt lat="59.4810596388" lon="31.0210678261"><ele>53.64</ele><time>2026-08-31T19:44:59Z</time></trkpt><trkpt lat="59.4810639974" lon="31.0210496373"><ele>54.51</ele><time>2026-08-31T19:45:49Z</time></trkpt><trkpt lat="59.4810795877" lon="31.0210677423"><ele>53.71</ele><time>2026-08-31T19:46:26Z</time></trkpt><trkpt lat="59.4810628239" lon="31.0210617911"><ele>53.05</ele><time>2026-08-31T19:47:09Z</time></trkpt><trkpt lat="59.4810490776" lon="31.0210591927"><ele>53.60</ele><time>2026-08-31T19:47:56Z</time></trkpt><trkpt lat="59.4810488261" lon="31.0210835841"><ele>54.19</ele><time>2026-08-31T19:48:32Z</time></trkpt><trkpt lat="59.4810535200" lon="31.0210837517"><ele>53.63</ele><time>2026-08-31T19:49:18Z</time></trkpt><trkpt lat="59.4810949266" lon="31.0210607853"><ele>52.98</ele><time>2026-08-31T19:49:37Z</time></trkpt><trkpt lat="59.4811133668" lon="31.0210216418"><ele>52.65</ele><time>2026-08-31T19:49:50Z</time></trkpt><trkpt lat="59.4811265264" lon="31.0209648963"><ele>55.15</ele><time>2026-08-31T19:50:28Z</time></trkpt><trkpt lat="59.4811445475" lon="31.0209614597"><ele>55.64</ele><time>2026-08-31T19:51:08Z</time></trkpt><trkpt lat="59.4811102655" lon="31.0209933948"><ele>50.45</ele><time>2026-08-31T19:51:38Z</time></trkpt><trkpt lat="59.4810742233" lon="31.0209979210"><ele>46.79</ele><time>2026-08-31T19:52:13Z</time></trkpt><trkpt lat="59.4811076671" lon="31.0209786426"><ele>48.24</ele><time>2026-08-31T19:52:45Z</time></trkpt><trkpt lat="59.4811125286" lon="31.0210024472"><ele>52.35</ele><time>2026-08-31T19:53:16Z</time></trkpt><trkpt lat="59.4811160490" lon="31.0210419260"><ele>58.33</ele><time>2026-08-31T19:53:47Z</time></trkpt><trkpt lat="59.4810928311" lon="31.0210148524"><ele>54.85</ele><time>2026-08-31T19:54:19Z</time></trkpt><trkpt lat="59.4810625724" lon="31.0210094880"><ele>49.12</ele><time>2026-08-31T19:55:01Z</time></trkpt><trkpt lat="59.4810992852" lon="31.0210406687"><ele>52.90</ele><time>2026-08-31T19:55:47Z</time></trkpt><trkpt lat="59.4811188988" lon="31.0210148524"><ele>52.47</ele><time>2026-08-31T19:56:13Z</time></trkpt><trkpt lat="59.4811085891" lon="31.0210140981"><ele>53.34</ele><time>2026-08-31T19:56:41Z</time></trkpt><trkpt lat="59.4811187312" lon="31.0210086498"><ele>54.47</ele><time>2026-08-31T19:57:10Z</time></trkpt><trkpt lat="59.4811258558" lon="31.0209843423"><ele>54.10</ele><time>2026-08-31T19:57:17Z</time></trkpt><trkpt lat="59.4811710343" lon="31.0210366454"><ele>53.09</ele><time>2026-08-31T20:00:03Z</time></trkpt><trkpt lat="59.4810637459" lon="31.0210887808"><ele>50.83</ele><time>2026-08-31T20:00:22Z</time></trkpt><trkpt lat="59.4810760673" lon="31.0210451949"><ele>54.04</ele><time>2026-08-31T20:00:43Z</time></trkpt><trkpt lat="59.4810798392" lon="31.0210417584"><ele>54.04</ele><time>2026-08-31T20:01:04Z</time></trkpt><trkpt lat="59.4810693618" lon="31.0210227314"><ele>52.33</ele><time>2026-08-31T20:01:27Z</time></trkpt><trkpt lat="59.4810584653" lon="31.0210353881"><ele>51.67</ele><time>2026-08-31T20:01:56Z</time></trkpt><trkpt lat="59.4810781628" lon="31.0210891999"><ele>52.67</ele><time>2026-08-31T20:02:19Z</time></trkpt><trkpt lat="59.4811109360" lon="31.0210047942"><ele>49.04</ele><time>2026-08-31T20:02:47Z</time></trkpt><trkpt lat="59.4811158814" lon="31.0210284311"><ele>51.31</ele><time>2026-08-31T20:03:26Z</time></trkpt><trkpt lat="59.4811067451" lon="31.0210028663"><ele>53.53</ele><time>2026-08-31T20:03:43Z</time></trkpt><trkpt lat="59.4810720440" lon="31.0209801514"><ele>54.97</ele><time>2026-08-31T20:03:59Z</time></trkpt><trkpt lat="59.4810760673" lon="31.0210073926"><ele>56.05</ele><time>2026-08-31T20:04:22Z</time></trkpt><trkpt lat="59.4810644165" lon="31.0210683290"><ele>54.59</ele><time>2026-08-31T20:04:39Z</time></trkpt><trkpt lat="59.4810688589" lon="31.0210689995"><ele>52.59</ele><time>2026-08-31T20:05:01Z</time></trkpt><trkpt lat="59.4810793363" lon="31.0211138427"><ele>54.55</ele><time>2026-08-31T20:05:28Z</time></trkpt><trkpt lat="59.4810862932" lon="31.0210201330"><ele>54.76</ele><time>2026-08-31T20:05:49Z</time></trkpt><trkpt lat="59.4810691942" lon="31.0210297722"><ele>53.46</ele><time>2026-08-31T20:06:11Z</time></trkpt><trkpt lat="59.4810759835" lon="31.0211045388"><ele>53.34</ele><time>2026-08-31T20:06:38Z</time></trkpt><trkpt lat="59.4810166396" lon="31.0211712588"><ele>51.35</ele><time>2026-08-31T20:06:49Z</time></trkpt><trkpt lat="59.4809587207" lon="31.0212820675"><ele>50.81</ele><time>2026-08-31T20:06:59Z</time></trkpt><trkpt lat="59.4808691181" lon="31.0214585904"><ele>52.48</ele><time>2026-08-31T20:07:11Z</time></trkpt><trkpt lat="59.4808900729" lon="31.0214804672"><ele>51.34</ele><time>2026-08-31T20:07:50Z</time></trkpt><trkpt lat="59.4809487462" lon="31.0213080514"><ele>51.09</ele><time>2026-08-31T20:08:04Z</time></trkpt><trkpt lat="59.4809919968" lon="31.0212079715"><ele>51.51</ele><time>2026-08-31T20:08:15Z</time></trkpt><trkpt lat="59.4810720440" lon="31.0210201330"><ele>51.85</ele><time>2026-08-31T20:08:28Z</time></trkpt><trkpt lat="59.4810750615" lon="31.0210371483"><ele>51.96</ele><time>2026-08-31T20:08:52Z</time></trkpt><trkpt lat="59.4810654223" lon="31.0210767947"><ele>51.26</ele><time>2026-08-31T20:09:13Z</time></trkpt><trkpt lat="59.4810669310" lon="31.0210631322"><ele>52.44</ele><time>2026-08-31T20:09:34Z</time></trkpt><trkpt lat="59.4811009616" lon="31.0209743679"><ele>52.11</ele><time>2026-08-31T20:09:53Z</time></trkpt><trkpt lat="59.4810692780" lon="31.0210288502"><ele>51.26</ele><time>2026-08-31T20:10:09Z</time></trkpt><trkpt lat="59.4810284581" lon="31.0211235657"><ele>51.17</ele><time>2026-08-31T20:10:13Z</time></trkpt><trkpt lat="59.4809252769" lon="31.0213950556"><ele>51.72</ele><time>2026-08-31T20:10:26Z</time></trkpt><trkpt lat="59.4808599818" lon="31.0215035174"><ele>53.02</ele><time>2026-08-31T20:10:41Z</time></trkpt><trkpt lat="59.4808174856" lon="31.0215920303"><ele>51.29</ele><time>2026-08-31T20:11:02Z</time></trkpt><trkpt lat="59.4808703754" lon="31.0214798804"><ele>51.39</ele><time>2026-08-31T20:11:21Z</time></trkpt><trkpt lat="59.4808756560" lon="31.0214791261"><ele>49.90</ele><time>2026-08-31T20:11:23Z</time></trkpt><trkpt lat="59.4808785897" lon="31.0215511266"><ele>51.90</ele><time>2026-08-31T20:11:33Z</time></trkpt><trkpt lat="59.4808653463" lon="31.0214734264"><ele>51.81</ele><time>2026-08-31T20:11:51Z</time></trkpt><trkpt lat="59.4807733968" lon="31.0214157589"><ele>53.11</ele><time>2026-08-31T20:12:07Z</time></trkpt><trkpt lat="59.4807743188" lon="31.0214788746"><ele>51.46</ele><time>2026-08-31T20:12:20Z</time></trkpt><trkpt lat="59.4807669427" lon="31.0215291660"><ele>51.68</ele><time>2026-08-31T20:12:34Z</time></trkpt><trkpt lat="59.4807334989" lon="31.0215528868"><ele>50.93</ele><time>2026-08-31T20:12:48Z</time></trkpt><trkpt lat="59.4807974529" lon="31.0215336923"><ele>53.34</ele><time>2026-08-31T20:13:08Z</time></trkpt><trkpt lat="59.4809090998" lon="31.0214591771"><ele>53.11</ele><time>2026-08-31T20:13:22Z</time></trkpt><trkpt lat="59.4809256960" lon="31.0214279965"><ele>53.35</ele><time>2026-08-31T20:13:42Z</time></trkpt><trkpt lat="59.4809232652" lon="31.0214399826"><ele>52.88</ele><time>2026-08-31T20:14:05Z</time></trkpt><trkpt lat="59.4809376821" lon="31.0213421658"><ele>54.75</ele><time>2026-08-31T20:14:31Z</time></trkpt><trkpt lat="59.4809452258" lon="31.0213237256"><ele>54.81</ele><time>2026-08-31T20:14:32Z</time></trkpt><trkpt lat="59.4809925836" lon="31.0212200414"><ele>53.83</ele><time>2026-08-31T20:14:44Z</time></trkpt><trkpt lat="59.4809014723" lon="31.0214002524"><ele>53.31</ele><time>2026-08-31T20:15:00Z</time></trkpt><trkpt lat="59.4808680285" lon="31.0215336923"><ele>53.10</ele><time>2026-08-31T20:15:16Z</time></trkpt><trkpt lat="59.4808377698" lon="31.0215406492"><ele>52.26</ele><time>2026-08-31T20:15:33Z</time></trkpt><trkpt lat="59.4808708783" lon="31.0214895196"><ele>51.37</ele><time>2026-08-31T20:15:56Z</time></trkpt><trkpt lat="59.4808916654" lon="31.0214457661"><ele>51.92</ele><time>2026-08-31T20:16:20Z</time></trkpt><trkpt lat="59.4808969460" lon="31.0214217938"><ele>53.11</ele><time>2026-08-31T20:16:55Z</time></trkpt><trkpt lat="59.4809011370" lon="31.0214306787"><ele>53.33</ele><time>2026-08-31T20:17:14Z</time></trkpt><trkpt lat="59.4808952697" lon="31.0214136634"><ele>53.21</ele><time>2026-08-31T20:17:41Z</time></trkpt><trkpt lat="59.4809201639" lon="31.0213679820"><ele>53.46</ele><time>2026-08-31T20:17:57Z</time></trkpt><trkpt lat="59.4809205830" lon="31.0213733464"><ele>53.76</ele><time>2026-08-31T20:18:19Z</time></trkpt><trkpt lat="59.4809193257" lon="31.0213789623"><ele>53.56</ele><time>2026-08-31T20:18:41Z</time></trkpt><trkpt lat="59.4809050765" lon="31.0213968996"><ele>53.80</ele><time>2026-08-31T20:19:11Z</time></trkpt><trkpt lat="59.4809034839" lon="31.0214158427"><ele>53.17</ele><time>2026-08-31T20:19:28Z</time></trkpt><trkpt lat="59.4809048250" lon="31.0214106459"><ele>52.99</ele><time>2026-08-31T20:19:49Z</time></trkpt><trkpt lat="59.4809298869" lon="31.0213745199"><ele>53.67</ele><time>2026-08-31T20:20:27Z</time></trkpt><trkpt lat="59.4809214212" lon="31.0213825665"><ele>53.36</ele><time>2026-08-31T20:21:02Z</time></trkpt><trkpt lat="59.4809168950" lon="31.0214041919"><ele>52.55</ele><time>2026-08-31T20:21:36Z</time></trkpt><trkpt lat="59.4809076749" lon="31.0214542318"><ele>53.89</ele><time>2026-08-31T20:21:57Z</time></trkpt><trkpt lat="59.4808813557" lon="31.0214386415"><ele>53.69</ele><time>2026-08-31T20:22:19Z</time></trkpt><trkpt lat="59.4809315633" lon="31.0214147530"><ele>53.36</ele><time>2026-08-31T20:22:39Z</time></trkpt><trkpt lat="59.4809502549" lon="31.0212909523"><ele>53.91</ele><time>2026-08-31T20:23:06Z</time></trkpt><trkpt lat="59.4809717964" lon="31.0212126654"><ele>54.20</ele><time>2026-08-31T20:23:20Z</time></trkpt><trkpt lat="59.4809508417" lon="31.0211399943"><ele>54.75</ele><time>2026-08-31T20:23:57Z</time></trkpt><trkpt lat="59.4810376782" lon="31.0210639704"><ele>54.04</ele><time>2026-08-31T20:24:20Z</time></trkpt><trkpt lat="59.4810931664" lon="31.0210279282"><ele>54.78</ele><time>2026-08-31T20:24:36Z</time></trkpt><trkpt lat="59.4810352474" lon="31.0211415868"><ele>53.58</ele><time>2026-08-31T20:24:47Z</time></trkpt><trkpt lat="59.4809638336" lon="31.0213051178"><ele>54.52</ele><time>2026-08-31T20:25:00Z</time></trkpt><trkpt lat="59.4809013885" lon="31.0214413237"><ele>56.06</ele><time>2026-08-31T20:25:13Z</time></trkpt><trkpt lat="59.4808660168" lon="31.0215454269"><ele>54.28</ele><time>2026-08-31T20:25:27Z</time></trkpt><trkpt lat="59.4808609877" lon="31.0215108935"><ele>55.63</ele><time>2026-08-31T20:26:05Z</time></trkpt><trkpt lat="59.4808591437" lon="31.0215215385"><ele>56.71</ele><time>2026-08-31T20:26:46Z</time></trkpt><trkpt lat="59.4808304776" lon="31.0215095524"><ele>57.80</ele><time>2026-08-31T20:27:20Z</time></trkpt><trkpt lat="59.4808442239" lon="31.0214523878"><ele>53.96</ele><time>2026-08-31T20:27:54Z</time></trkpt><trkpt lat="59.4808631670" lon="31.0215196945"><ele>54.88</ele><time>2026-08-31T20:28:28Z</time></trkpt><trkpt lat="59.4808764942" lon="31.0215199459"><ele>55.30</ele><time>2026-08-31T20:29:03Z</time></trkpt><trkpt lat="59.4808658492" lon="31.0215046909"><ele>55.81</ele><time>2026-08-31T20:29:43Z</time></trkpt><trkpt lat="59.4808562938" lon="31.0215079598"><ele>54.28</ele><time>2026-08-31T20:30:05Z</time></trkpt><trkpt lat="59.4808590598" lon="31.0215235502"><ele>55.56</ele><time>2026-08-31T20:30:32Z</time></trkpt><trkpt lat="59.4808615744" lon="31.0215094686"><ele>56.51</ele><time>2026-08-31T20:30:57Z</time></trkpt><trkpt lat="59.4808817748" lon="31.0215025954"><ele>58.41</ele><time>2026-08-31T20:31:07Z</time></trkpt><trkpt lat="59.4808724709" lon="31.0215067863"><ele>57.16</ele><time>2026-08-31T20:31:33Z</time></trkpt><trkpt lat="59.4808922522" lon="31.0215268191"><ele>58.89</ele><time>2026-08-31T20:31:47Z</time></trkpt><trkpt lat="59.4809227623" lon="31.0215592571"><ele>59.56</ele><time>2026-08-31T20:32:01Z</time></trkpt><trkpt lat="59.4808982871" lon="31.0215145815"><ele>57.99</ele><time>2026-08-31T20:32:32Z</time></trkpt><trkpt lat="59.4809028972" lon="31.0214892682"><ele>58.01</ele><time>2026-08-31T20:33:09Z</time></trkpt><trkpt lat="59.4808757398" lon="31.0214864183"><ele>59.22</ele><time>2026-08-31T20:34:02Z</time></trkpt><trkpt lat="59.4808463193" lon="31.0215063673"><ele>58.88</ele><time>2026-08-31T20:34:22Z</time></trkpt><trkpt lat="59.4808364287" lon="31.0215153359"><ele>58.00</ele><time>2026-08-31T20:34:56Z</time></trkpt><trkpt lat="59.4807855505" lon="31.0215699859"><ele>58.15</ele><time>2026-08-31T20:35:14Z</time></trkpt><trkpt lat="59.4807817787" lon="31.0215595923"><ele>57.50</ele><time>2026-08-31T20:35:50Z</time></trkpt><trkpt lat="59.4808168989" lon="31.0210044589"><ele>57.39</ele><time>2026-08-31T20:36:00Z</time></trkpt><trkpt lat="59.4808256999" lon="31.0208315402"><ele>57.26</ele><time>2026-08-31T20:36:02Z</time></trkpt><trkpt lat="59.4808235206" lon="31.0203530174"><ele>56.47</ele><time>2026-08-31T20:36:10Z</time></trkpt><trkpt lat="59.4808127917" lon="31.0201351717"><ele>56.19</ele><time>2026-08-31T20:36:17Z</time></trkpt><trkpt lat="59.4807785936" lon="31.0200424679"><ele>55.60</ele><time>2026-08-31T20:36:20Z</time></trkpt><trkpt lat="59.4806484226" lon="31.0197195970"><ele>55.67</ele><time>2026-08-31T20:36:29Z</time></trkpt><trkpt lat="59.4806662761" lon="31.0197245423"><ele>54.88</ele><time>2026-08-31T20:36:33Z</time></trkpt><trkpt lat="59.4806621689" lon="31.0198590718"><ele>54.72</ele><time>2026-08-31T20:36:38Z</time></trkpt><trkpt lat="59.4807180762" lon="31.0200642608"><ele>54.83</ele><time>2026-08-31T20:36:41Z</time></trkpt><trkpt lat="59.4807831198" lon="31.0203241836"><ele>55.03</ele><time>2026-08-31T20:36:44Z</time></trkpt><trkpt lat="59.4808326568" lon="31.0207046382"><ele>54.75</ele><time>2026-08-31T20:36:48Z</time></trkpt><trkpt lat="59.4807182439" lon="31.0216687247"><ele>55.05</ele><time>2026-08-31T20:36:59Z</time></trkpt><trkpt lat="59.4805119652" lon="31.0220722295"><ele>55.38</ele><time>2026-08-31T20:37:10Z</time></trkpt><trkpt lat="59.4804467540" lon="31.0222104471"><ele>55.41</ele><time>2026-08-31T20:37:13Z</time></trkpt><trkpt lat="59.4801235478" lon="31.0227043927"><ele>53.24</ele><time>2026-08-31T20:37:19Z</time></trkpt><trkpt lat="59.4793955795" lon="31.0241699684"><ele>55.27</ele><time>2026-08-31T20:37:33Z</time></trkpt><trkpt lat="59.4785890728" lon="31.0257692356"><ele>55.69</ele><time>2026-08-31T20:37:49Z</time></trkpt><trkpt lat="59.4774522353" lon="31.0279696528"><ele>55.54</ele><time>2026-08-31T20:38:11Z</time></trkpt><trkpt lat="59.4766758196" lon="31.0294567700"><ele>56.33</ele><time>2026-08-31T20:38:28Z</time></trkpt><trkpt lat="59.4762998912" lon="31.0301622748"><ele>56.63</ele><time>2026-08-31T20:38:40Z</time></trkpt><trkpt lat="59.4761850592" lon="31.0304086190"><ele>57.60</ele><time>2026-08-31T20:38:54Z</time></trkpt><trkpt lat="59.4756423309" lon="31.0314263497"><ele>57.77</ele><time>2026-08-31T20:39:07Z</time></trkpt><trkpt lat="59.4750563521" lon="31.0325521231"><ele>58.16</ele><time>2026-08-31T20:39:19Z</time></trkpt><trkpt lat="59.4744057488" lon="31.0338529944"><ele>57.26</ele><time>2026-08-31T20:39:35Z</time></trkpt><trkpt lat="59.4739409722" lon="31.0347400513"><ele>57.48</ele><time>2026-08-31T20:39:47Z</time></trkpt><trkpt lat="59.4733122457" lon="31.0359806567"><ele>58.53</ele><time>2026-08-31T20:40:00Z</time></trkpt><trkpt lat="59.4724946748" lon="31.0375345778"><ele>58.97</ele><time>2026-08-31T20:40:16Z</time></trkpt><trkpt lat="59.4717579894" lon="31.0389439948"><ele>58.86</ele><time>2026-08-31T20:40:30Z</time></trkpt><trkpt lat="59.4708535820" lon="31.0406525619"><ele>57.46</ele><time>2026-08-31T20:40:49Z</time></trkpt><trkpt lat="59.4708403386" lon="31.0414530337"><ele>58.38</ele><time>2026-08-31T20:40:56Z</time></trkpt><trkpt lat="59.4713606872" lon="31.0432289913"><ele>56.70</ele><time>2026-08-31T20:41:10Z</time></trkpt><trkpt lat="59.4717291556" lon="31.0444277711"><ele>55.36</ele><time>2026-08-31T20:41:22Z</time></trkpt><trkpt lat="59.4721590634" lon="31.0458819475"><ele>55.40</ele><time>2026-08-31T20:41:34Z</time></trkpt><trkpt lat="59.4723187387" lon="31.0465428606"><ele>55.15</ele><time>2026-08-31T20:41:41Z</time></trkpt><trkpt lat="59.4725308847" lon="31.0469984170"><ele>55.10</ele><time>2026-08-31T20:41:47Z</time></trkpt><trkpt lat="59.4729891233" lon="31.0485417768"><ele>55.21</ele><time>2026-08-31T20:42:02Z</time></trkpt><trkpt lat="59.4734429196" lon="31.0500334203"><ele>54.92</ele><time>2026-08-31T20:42:16Z</time></trkpt><trkpt lat="59.4737660419" lon="31.0510608740"><ele>54.39</ele><time>2026-08-31T20:42:27Z</time></trkpt><trkpt lat="59.4740114640" lon="31.0518462583"><ele>55.07</ele><time>2026-08-31T20:42:36Z</time></trkpt><trkpt lat="59.4743559603" lon="31.0530113429"><ele>55.54</ele><time>2026-08-31T20:42:49Z</time></trkpt><trkpt lat="59.4747011270" lon="31.0541490186"><ele>55.67</ele><time>2026-08-31T20:43:02Z</time></trkpt><trkpt lat="59.4749656599" lon="31.0549879633"><ele>56.37</ele><time>2026-08-31T20:43:12Z</time></trkpt><trkpt lat="59.4751352258" lon="31.0554836690"><ele>56.07</ele><time>2026-08-31T20:43:18Z</time></trkpt><trkpt lat="59.4752587751" lon="31.0558248963"><ele>55.99</ele><time>2026-08-31T20:43:22Z</time></trkpt><trkpt lat="59.4753777981" lon="31.0562100448"><ele>55.67</ele><time>2026-08-31T20:43:26Z</time></trkpt><trkpt lat="59.4757897686" lon="31.0576880258"><ele>56.35</ele><time>2026-08-31T20:43:42Z</time></trkpt><trkpt lat="59.4761490170" lon="31.0589766596"><ele>55.85</ele><time>2026-08-31T20:43:56Z</time></trkpt><trkpt lat="59.4762225263" lon="31.0591884702"><ele>55.02</ele><time>2026-08-31T20:43:59Z</time></trkpt><trkpt lat="59.4764952734" lon="31.0601467732"><ele>55.45</ele><time>2026-08-31T20:44:10Z</time></trkpt><trkpt lat="59.4768001232" lon="31.0611648392"><ele>55.09</ele><time>2026-08-31T20:44:23Z</time></trkpt><trkpt lat="59.4771078229" lon="31.0622227192"><ele>54.22</ele><time>2026-08-31T20:44:36Z</time></trkpt><trkpt lat="59.4775681570" lon="31.0638736188"><ele>55.13</ele><time>2026-08-31T20:44:55Z</time></trkpt><trkpt lat="59.4777962286" lon="31.0646170937"><ele>55.27</ele><time>2026-08-31T20:45:04Z</time></trkpt><trkpt lat="59.4782923535" lon="31.0660157818"><ele>55.52</ele><time>2026-08-31T20:45:21Z</time></trkpt><trkpt lat="59.4788127858" lon="31.0674502607"><ele>55.85</ele><time>2026-08-31T20:45:39Z</time></trkpt><trkpt lat="59.4793325476" lon="31.0689124838"><ele>57.07</ele><time>2026-08-31T20:45:56Z</time></trkpt><trkpt lat="59.4798631221" lon="31.0700768977"><ele>57.10</ele><time>2026-08-31T20:46:11Z</time></trkpt><trkpt lat="59.4799661357" lon="31.0701754689"><ele>56.54</ele><time>2026-08-31T20:46:13Z</time></trkpt><trkpt lat="59.4802841451" lon="31.0701993573"><ele>57.36</ele><time>2026-08-31T20:46:19Z</time></trkpt><trkpt lat="59.4809955172" lon="31.0699742194"><ele>57.33</ele><time>2026-08-31T20:46:33Z</time></trkpt><trkpt lat="59.4813258480" lon="31.0699746385"><ele>58.41</ele><time>2026-08-31T20:46:40Z</time></trkpt><trkpt lat="59.4820106495" lon="31.0704237409"><ele>57.69</ele><time>2026-08-31T20:46:53Z</time></trkpt><trkpt lat="59.4827220216" lon="31.0709902737"><ele>58.33</ele><time>2026-08-31T20:47:07Z</time></trkpt><trkpt lat="59.4830900710" lon="31.0713311657"><ele>57.74</ele><time>2026-08-31T20:47:14Z</time></trkpt><trkpt lat="59.4832691923" lon="31.0716386978"><ele>56.41</ele><time>2026-08-31T20:47:19Z</time></trkpt><trkpt lat="59.4833278656" lon="31.0717914999"><ele>56.26</ele><time>2026-08-31T20:47:21Z</time></trkpt><trkpt lat="59.4834383391" lon="31.0720118601"><ele>56.14</ele><time>2026-08-31T20:47:24Z</time></trkpt><trkpt lat="59.4835770596" lon="31.0723448731"><ele>56.97</ele><time>2026-08-31T20:47:28Z</time></trkpt><trkpt lat="59.4842209574" lon="31.0733715724"><ele>57.80</ele><time>2026-08-31T20:47:43Z</time></trkpt><trkpt lat="59.4846505299" lon="31.0740057472"><ele>59.24</ele><time>2026-08-31T20:47:53Z</time></trkpt><trkpt lat="59.4847321697" lon="31.0741029773"><ele>58.79</ele><time>2026-08-31T20:47:55Z</time></trkpt><trkpt lat="59.4849522784" lon="31.0743905604"><ele>59.07</ele><time>2026-08-31T20:48:00Z</time></trkpt><trkpt lat="59.4856840186" lon="31.0754152481"><ele>58.93</ele><time>2026-08-31T20:48:16Z</time></trkpt><trkpt lat="59.4861301873" lon="31.0759717226"><ele>56.99</ele><time>2026-08-31T20:48:26Z</time></trkpt><trkpt lat="59.4866222888" lon="31.0766340606"><ele>55.69</ele><time>2026-08-31T20:48:36Z</time></trkpt><trkpt lat="59.4872330781" lon="31.0774479434"><ele>49.40</ele><time>2026-08-31T20:48:50Z</time></trkpt><trkpt lat="59.4874079246" lon="31.0775671341"><ele>42.11</ele><time>2026-08-31T20:48:55Z</time></trkpt><trkpt lat="59.4880032912" lon="31.0784301348"><ele>47.66</ele><time>2026-08-31T20:49:08Z</time></trkpt><trkpt lat="59.4881264213" lon="31.0786586255"><ele>47.17</ele><time>2026-08-31T20:49:11Z</time></trkpt><trkpt lat="59.4882471208" lon="31.0788649879"><ele>48.71</ele><time>2026-08-31T20:49:14Z</time></trkpt><trkpt lat="59.4885701593" lon="31.0794220492"><ele>51.30</ele><time>2026-08-31T20:49:26Z</time></trkpt><trkpt lat="59.4887399767" lon="31.0796864983"><ele>54.48</ele><time>2026-08-31T20:49:43Z</time></trkpt><trkpt lat="59.4887983985" lon="31.0797683895"><ele>54.94</ele><time>2026-08-31T20:49:57Z</time></trkpt><trkpt lat="59.4888026733" lon="31.0797583312"><ele>55.89</ele><time>2026-08-31T20:50:40Z</time></trkpt><trkpt lat="59.4888055231" lon="31.0797660425"><ele>55.56</ele><time>2026-08-31T20:51:24Z</time></trkpt><trkpt lat="59.4887957163" lon="31.0797753464"><ele>55.82</ele><time>2026-08-31T20:52:28Z</time></trkpt><trkpt lat="59.4888668787" lon="31.0798753425"><ele>55.81</ele><time>2026-08-31T20:53:06Z</time></trkpt><trkpt lat="59.4890237879" lon="31.0800870694"><ele>55.96</ele><time>2026-08-31T20:53:24Z</time></trkpt><trkpt lat="59.4890173338" lon="31.0800857283"><ele>56.82</ele><time>2026-08-31T20:54:26Z</time></trkpt><trkpt lat="59.4889623486" lon="31.0800319165"><ele>56.02</ele><time>2026-08-31T20:54:53Z</time></trkpt><trkpt lat="59.4890213571" lon="31.0801048391"><ele>55.39</ele><time>2026-08-31T20:55:14Z</time></trkpt><trkpt lat="59.4890516996" lon="31.0801208485"><ele>55.00</ele><time>2026-08-31T20:55:33Z</time></trkpt><trkpt lat="59.4891048409" lon="31.0802794341"><ele>55.32</ele><time>2026-08-31T20:55:53Z</time></trkpt><trkpt lat="59.4890946988" lon="31.0802434757"><ele>53.78</ele><time>2026-08-31T20:56:18Z</time></trkpt><trkpt lat="59.4890598301" lon="31.0802811943"><ele>52.75</ele><time>2026-08-31T20:56:39Z</time></trkpt><trkpt lat="59.4890485983" lon="31.0802818649"><ele>53.13</ele><time>2026-08-31T20:56:53Z</time></trkpt><trkpt lat="59.4890708942" lon="31.0803200863"><ele>52.51</ele><time>2026-08-31T20:57:08Z</time></trkpt><trkpt lat="59.4890818745" lon="31.0802739859"><ele>53.71</ele><time>2026-08-31T20:57:26Z</time></trkpt><trkpt lat="59.4891050924" lon="31.0802551266"><ele>55.45</ele><time>2026-08-31T20:57:44Z</time></trkpt><trkpt lat="59.4890986383" lon="31.0801671166"><ele>54.71</ele><time>2026-08-31T20:58:00Z</time></trkpt><trkpt lat="59.4890897535" lon="31.0800445732"><ele>55.06</ele><time>2026-08-31T20:58:16Z</time></trkpt><trkpt lat="59.4891049247" lon="31.0799217783"><ele>54.49</ele><time>2026-08-31T20:58:30Z</time></trkpt><trkpt lat="59.4890497718" lon="31.0800047591"><ele>55.20</ele><time>2026-08-31T20:58:50Z</time></trkpt><trkpt lat="59.4890329242" lon="31.0800458305"><ele>55.74</ele><time>2026-08-31T20:59:07Z</time></trkpt><trkpt lat="59.4890380371" lon="31.0799860675"><ele>55.54</ele><time>2026-08-31T20:59:36Z</time></trkpt><trkpt lat="59.4890670385" lon="31.0800100397"><ele>55.44</ele><time>2026-08-31T20:59:39Z</time></trkpt><trkpt lat="59.4890968781" lon="31.0799631849"><ele>54.79</ele><time>2026-08-31T20:59:53Z</time></trkpt><trkpt lat="59.4890786894" lon="31.0799508635"><ele>55.56</ele><time>2026-08-31T21:00:06Z</time></trkpt><trkpt lat="59.4890570641" lon="31.0799279809"><ele>55.27</ele><time>2026-08-31T21:00:32Z</time></trkpt><trkpt lat="59.4890710618" lon="31.0799527913"><ele>54.69</ele><time>2026-08-31T21:01:06Z</time></trkpt><trkpt lat="59.4890870713" lon="31.0799406376"><ele>55.98</ele><time>2026-08-31T21:01:38Z</time></trkpt><trkpt lat="59.4890943635" lon="31.0799152404"><ele>56.54</ele><time>2026-08-31T21:01:51Z</time></trkpt><trkpt lat="59.4890698884" lon="31.0799172521"><ele>55.96</ele><time>2026-08-31T21:02:02Z</time></trkpt><trkpt lat="59.4889951218" lon="31.0799550544"><ele>54.51</ele><time>2026-08-31T21:02:19Z</time></trkpt><trkpt lat="59.4888834748" lon="31.0798479337"><ele>54.27</ele><time>2026-08-31T21:02:34Z</time></trkpt><trkpt lat="59.4888509531" lon="31.0798253864"><ele>54.84</ele><time>2026-08-31T21:02:50Z</time></trkpt><trkpt lat="59.4887977280" lon="31.0797986481"><ele>55.23</ele><time>2026-08-31T21:03:07Z</time></trkpt><trkpt lat="59.4887116458" lon="31.0799491871"><ele>54.79</ele><time>2026-08-31T21:03:20Z</time></trkpt><trkpt lat="59.4886244740" lon="31.0801029950"><ele>54.29</ele><time>2026-08-31T21:03:36Z</time></trkpt><trkpt lat="59.4885404874" lon="31.0802939348"><ele>54.02</ele><time>2026-08-31T21:03:49Z</time></trkpt><trkpt lat="59.4884356298" lon="31.0805064999"><ele>53.44</ele><time>2026-08-31T21:04:04Z</time></trkpt><trkpt lat="59.4883362204" lon="31.0807292908"><ele>53.63</ele><time>2026-08-31T21:04:18Z</time></trkpt><trkpt lat="59.4882926345" lon="31.0808317177"><ele>55.08</ele><time>2026-08-31T21:04:29Z</time></trkpt><trkpt lat="59.4882176165" lon="31.0810401756"><ele>55.16</ele><time>2026-08-31T21:04:43Z</time></trkpt><trkpt lat="59.4881653972" lon="31.0811190493"><ele>54.92</ele><time>2026-08-31T21:04:55Z</time></trkpt><trkpt lat="59.4880993478" lon="31.0813203827"><ele>55.97</ele><time>2026-08-31T21:05:14Z</time></trkpt><trkpt lat="59.4880587794" lon="31.0814764537"><ele>55.41</ele><time>2026-08-31T21:05:31Z</time></trkpt><trkpt lat="59.4880027883" lon="31.0816212930"><ele>54.95</ele><time>2026-08-31T21:05:51Z</time></trkpt><trkpt lat="59.4878932368" lon="31.0818902683"><ele>55.56</ele><time>2026-08-31T21:06:09Z</time></trkpt><trkpt lat="59.4878092501" lon="31.0820915177"><ele>54.90</ele><time>2026-08-31T21:06:22Z</time></trkpt><trkpt lat="59.4877546839" lon="31.0822363570"><ele>55.19</ele><time>2026-08-31T21:06:35Z</time></trkpt><trkpt lat="59.4876844436" lon="31.0824228544"><ele>55.20</ele><time>2026-08-31T21:06:47Z</time></trkpt><trkpt lat="59.4875996187" lon="31.0825732257"><ele>54.83</ele><time>2026-08-31T21:06:59Z</time></trkpt><trkpt lat="59.4875349943" lon="31.0827395227"><ele>55.29</ele><time>2026-08-31T21:07:12Z</time></trkpt><trkpt lat="59.4875260256" lon="31.0830028821"><ele>55.09</ele><time>2026-08-31T21:07:26Z</time></trkpt><trkpt lat="59.4875232596" lon="31.0832597874"><ele>54.92</ele><time>2026-08-31T21:07:42Z</time></trkpt><trkpt lat="59.4875137880" lon="31.0833439417"><ele>55.91</ele><time>2026-08-31T21:08:00Z</time></trkpt><trkpt lat="59.4874824397" lon="31.0835708398"><ele>54.71</ele><time>2026-08-31T21:08:12Z</time></trkpt><trkpt lat="59.4874849543" lon="31.0839214548"><ele>53.90</ele><time>2026-08-31T21:08:27Z</time></trkpt><trkpt lat="59.4874335732" lon="31.0841662902"><ele>54.87</ele><time>2026-08-31T21:08:40Z</time></trkpt><trkpt lat="59.4874460623" lon="31.0843815375"><ele>58.03</ele><time>2026-08-31T21:09:00Z</time></trkpt><trkpt lat="59.4874887262" lon="31.0845108703"><ele>58.97</ele><time>2026-08-31T21:09:16Z</time></trkpt><trkpt lat="59.4874644186" lon="31.0846062563"><ele>59.56</ele><time>2026-08-31T21:09:27Z</time></trkpt><trkpt lat="59.4874413684" lon="31.0849000420"><ele>60.02</ele><time>2026-08-31T21:09:40Z</time></trkpt><trkpt lat="59.4874279574" lon="31.0851000343"><ele>59.18</ele><time>2026-08-31T21:09:58Z</time></trkpt><trkpt lat="59.4874049909" lon="31.0853979271"><ele>59.19</ele><time>2026-08-31T21:10:13Z</time></trkpt><trkpt lat="59.4873537775" lon="31.0854079854"><ele>58.07</ele><time>2026-08-31T21:10:37Z</time></trkpt><trkpt lat="59.4873638358" lon="31.0855359770"><ele>58.08</ele><time>2026-08-31T21:11:02Z</time></trkpt><trkpt lat="59.4873929210" lon="31.0857646354"><ele>57.98</ele><time>2026-08-31T21:11:18Z</time></trkpt><trkpt lat="59.4873669371" lon="31.0857588518"><ele>59.12</ele><time>2026-08-31T21:11:42Z</time></trkpt><trkpt lat="59.4873783365" lon="31.0857425909"><ele>58.84</ele><time>2026-08-31T21:12:17Z</time></trkpt><trkpt lat="59.4873811863" lon="31.0858245660"><ele>58.73</ele><time>2026-08-31T21:12:36Z</time></trkpt><trkpt lat="59.4873945974" lon="31.0858502984"><ele>58.06</ele><time>2026-08-31T21:13:15Z</time></trkpt><trkpt lat="59.4874260295" lon="31.0858164355"><ele>58.20</ele><time>2026-08-31T21:13:34Z</time></trkpt><trkpt lat="59.4874816854" lon="31.0857334547"><ele>59.01</ele><time>2026-08-31T21:13:57Z</time></trkpt><trkpt lat="59.4874082599" lon="31.0858349595"><ele>59.48</ele><time>2026-08-31T21:14:21Z</time></trkpt><trkpt lat="59.4873696193" lon="31.0859849956"><ele>56.45</ele><time>2026-08-31T21:14:39Z</time></trkpt><trkpt lat="59.4873430487" lon="31.0859952215"><ele>47.15</ele><time>2026-08-31T21:15:28Z</time></trkpt><trkpt lat="59.4873660989" lon="31.0859180242"><ele>50.14</ele><time>2026-08-31T21:16:07Z</time></trkpt><trkpt lat="59.4873563759" lon="31.0861774441"><ele>51.05</ele><time>2026-08-31T21:16:20Z</time></trkpt><trkpt lat="59.4873449765" lon="31.0862942878"><ele>50.90</ele><time>2026-08-31T21:16:37Z</time></trkpt><trkpt lat="59.4873172324" lon="31.0866299830"><ele>51.25</ele><time>2026-08-31T21:16:53Z</time></trkpt><trkpt lat="59.4873208366" lon="31.0870190710"><ele>51.72</ele><time>2026-08-31T21:17:10Z</time></trkpt><trkpt lat="59.4872611575" lon="31.0874737892"><ele>53.09</ele><time>2026-08-31T21:17:27Z</time></trkpt><trkpt lat="59.4872560445" lon="31.0877766274"><ele>53.27</ele><time>2026-08-31T21:17:41Z</time></trkpt><trkpt lat="59.4872317370" lon="31.0880513862"><ele>53.84</ele><time>2026-08-31T21:17:57Z</time></trkpt><trkpt lat="59.4872013945" lon="31.0882518813"><ele>52.88</ele><time>2026-08-31T21:18:09Z</time></trkpt><trkpt lat="59.4872246962" lon="31.0885863192"><ele>52.33</ele><time>2026-08-31T21:18:26Z</time></trkpt><trkpt lat="59.4871805236" lon="31.0889249481"><ele>54.50</ele><time>2026-08-31T21:18:40Z</time></trkpt><trkpt lat="59.4871912524" lon="31.0890493356"><ele>54.83</ele><time>2026-08-31T21:18:46Z</time></trkpt><trkpt lat="59.4871562999" lon="31.0893878806"><ele>55.07</ele><time>2026-08-31T21:19:00Z</time></trkpt><trkpt lat="59.4871545397" lon="31.0897069797"><ele>54.67</ele><time>2026-08-31T21:19:15Z</time></trkpt><trkpt lat="59.4871493429" lon="31.0899570957"><ele>54.13</ele><time>2026-08-31T21:19:29Z</time></trkpt><trkpt lat="59.4871419668" lon="31.0901213810"><ele>55.54</ele><time>2026-08-31T21:19:42Z</time></trkpt><trkpt lat="59.4871280529" lon="31.0903380532"><ele>55.22</ele><time>2026-08-31T21:19:56Z</time></trkpt><trkpt lat="59.4871076848" lon="31.0906717367"><ele>54.41</ele><time>2026-08-31T21:20:12Z</time></trkpt><trkpt lat="59.4870745763" lon="31.0909264628"><ele>53.20</ele><time>2026-08-31T21:20:27Z</time></trkpt><trkpt lat="59.4870772585" lon="31.0911350884"><ele>52.34</ele><time>2026-08-31T21:20:45Z</time></trkpt><trkpt lat="59.4870581478" lon="31.0915358271"><ele>52.03</ele><time>2026-08-31T21:21:02Z</time></trkpt><trkpt lat="59.4870329183" lon="31.0917931516"><ele>51.57</ele><time>2026-08-31T21:21:19Z</time></trkpt><trkpt lat="59.4869740773" lon="31.0920536611"><ele>51.34</ele><time>2026-08-31T21:21:32Z</time></trkpt><trkpt lat="59.4869705569" lon="31.0922854207"><ele>51.66</ele><time>2026-08-31T21:21:49Z</time></trkpt><trkpt lat="59.4869586546" lon="31.0926741734"><ele>51.36</ele><time>2026-08-31T21:22:04Z</time></trkpt><trkpt lat="59.4869388733" lon="31.0929078609"><ele>52.05</ele><time>2026-08-31T21:22:16Z</time></trkpt><trkpt lat="59.4869459979" lon="31.0930224415"><ele>51.55</ele><time>2026-08-31T21:22:30Z</time></trkpt><trkpt lat="59.4868838880" lon="31.0932883993"><ele>51.27</ele><time>2026-08-31T21:22:47Z</time></trkpt><trkpt lat="59.4868891686" lon="31.0935441311"><ele>50.30</ele><time>2026-08-31T21:23:11Z</time></trkpt><trkpt lat="59.4868672919" lon="31.0940330476"><ele>49.22</ele><time>2026-08-31T21:23:34Z</time></trkpt><trkpt lat="59.4868644420" lon="31.0943176970"><ele>48.89</ele><time>2026-08-31T21:23:53Z</time></trkpt><trkpt lat="59.4868089538" lon="31.0947779473"><ele>49.39</ele><time>2026-08-31T21:24:13Z</time></trkpt><trkpt lat="59.4867875800" lon="31.0950635187"><ele>50.72</ele><time>2026-08-31T21:24:36Z</time></trkpt><trkpt lat="59.4868025836" lon="31.0952654388"><ele>51.48</ele><time>2026-08-31T21:24:53Z</time></trkpt><trkpt lat="59.4867661223" lon="31.0954760760"><ele>51.77</ele><time>2026-08-31T21:25:14Z</time></trkpt><trkpt lat="59.4867551420" lon="31.0956811812"><ele>51.81</ele><time>2026-08-31T21:25:20Z</time></trkpt><trkpt lat="59.4867280684" lon="31.0959707759"><ele>52.21</ele><time>2026-08-31T21:25:35Z</time></trkpt><trkpt lat="59.4867129810" lon="31.0963196307"><ele>52.43</ele><time>2026-08-31T21:25:56Z</time></trkpt><trkpt lat="59.4866630249" lon="31.0968174320"><ele>52.07</ele><time>2026-08-31T21:26:18Z</time></trkpt><trkpt lat="59.4866498653" lon="31.0971762612"><ele>52.49</ele><time>2026-08-31T21:26:36Z</time></trkpt><trkpt lat="59.4866280723" lon="31.0975120403"><ele>52.92</ele><time>2026-08-31T21:26:53Z</time></trkpt><trkpt lat="59.4866286591" lon="31.0977834463"><ele>53.26</ele><time>2026-08-31T21:27:11Z</time></trkpt><trkpt lat="59.4866069499" lon="31.0980832670"><ele>53.71</ele><time>2026-08-31T21:27:23Z</time></trkpt><trkpt lat="59.4865960535" lon="31.0983681679"><ele>54.97</ele><time>2026-08-31T21:27:39Z</time></trkpt><trkpt lat="59.4865906890" lon="31.0985092353"><ele>55.15</ele><time>2026-08-31T21:27:44Z</time></trkpt><trkpt lat="59.4865632802" lon="31.0988650471"><ele>55.91</ele><time>2026-08-31T21:27:58Z</time></trkpt><trkpt lat="59.4865248911" lon="31.0992010776"><ele>56.42</ele><time>2026-08-31T21:28:15Z</time></trkpt><trkpt lat="59.4865726680" lon="31.0994746629"><ele>55.86</ele><time>2026-08-31T21:28:28Z</time></trkpt><trkpt lat="59.4866684731" lon="31.0996315721"><ele>55.26</ele><time>2026-08-31T21:28:41Z</time></trkpt><trkpt lat="59.4867492747" lon="31.0997864697"><ele>55.29</ele><time>2026-08-31T21:28:57Z</time></trkpt><trkpt lat="59.4868529588" lon="31.0999347456"><ele>55.56</ele><time>2026-08-31T21:29:13Z</time></trkpt><trkpt lat="59.4869620912" lon="31.1000978574"><ele>55.69</ele><time>2026-08-31T21:29:27Z</time></trkpt><trkpt lat="59.4870748278" lon="31.1002894677"><ele>55.69</ele><time>2026-08-31T21:29:42Z</time></trkpt><trkpt lat="59.4871796854" lon="31.1004662421"><ele>55.38</ele><time>2026-08-31T21:29:57Z</time></trkpt><trkpt lat="59.4872297253" lon="31.1005686689"><ele>55.28</ele><time>2026-08-31T21:30:13Z</time></trkpt><trkpt lat="59.4873249438" lon="31.1008055415"><ele>56.32</ele><time>2026-08-31T21:30:27Z</time></trkpt><trkpt lat="59.4873950165" lon="31.1009221338"><ele>56.09</ele><time>2026-08-31T21:30:40Z</time></trkpt><trkpt lat="59.4874686934" lon="31.1010483652"><ele>55.93</ele><time>2026-08-31T21:30:54Z</time></trkpt><trkpt lat="59.4875356648" lon="31.1011610180"><ele>55.98</ele><time>2026-08-31T21:31:11Z</time></trkpt><trkpt lat="59.4876273628" lon="31.1013642792"><ele>55.56</ele><time>2026-08-31T21:31:34Z</time></trkpt><trkpt lat="59.4877566956" lon="31.1015205178"><ele>55.99</ele><time>2026-08-31T21:31:51Z</time></trkpt><trkpt lat="59.4878685940" lon="31.1016108748"><ele>56.79</ele><time>2026-08-31T21:32:04Z</time></trkpt><trkpt lat="59.4879521616" lon="31.1017947737"><ele>56.62</ele><time>2026-08-31T21:32:17Z</time></trkpt><trkpt lat="59.4880465418" lon="31.1019230168"><ele>55.26</ele><time>2026-08-31T21:32:35Z</time></trkpt><trkpt lat="59.4881190453" lon="31.1020361725"><ele>55.30</ele><time>2026-08-31T21:32:52Z</time></trkpt><trkpt lat="59.4882462826" lon="31.1022099294"><ele>55.46</ele><time>2026-08-31T21:33:04Z</time></trkpt><trkpt lat="59.4883098174" lon="31.1023297906"><ele>60.74</ele><time>2026-08-31T21:33:18Z</time></trkpt><trkpt lat="59.4883277547" lon="31.1023105960"><ele>58.43</ele><time>2026-08-31T21:33:34Z</time></trkpt><trkpt lat="59.4884304330" lon="31.1025519948"><ele>58.44</ele><time>2026-08-31T21:33:48Z</time></trkpt><trkpt lat="59.4885166828" lon="31.1026663240"><ele>58.03</ele><time>2026-08-31T21:34:04Z</time></trkpt><trkpt lat="59.4886086322" lon="31.1028226465"><ele>57.63</ele><time>2026-08-31T21:34:28Z</time></trkpt><trkpt lat="59.4886597618" lon="31.1029269174"><ele>56.73</ele><time>2026-08-31T21:34:43Z</time></trkpt><trkpt lat="59.4887617696" lon="31.1031067930"><ele>56.69</ele><time>2026-08-31T21:34:55Z</time></trkpt><trkpt lat="59.4888081215" lon="31.1032196973"><ele>56.32</ele><time>2026-08-31T21:35:08Z</time></trkpt><trkpt lat="59.4889190979" lon="31.1033811327"><ele>55.75</ele><time>2026-08-31T21:35:22Z</time></trkpt><trkpt lat="59.4890157413" lon="31.1034501996"><ele>55.20</ele><time>2026-08-31T21:35:39Z</time></trkpt><trkpt lat="59.4890887477" lon="31.1036117189"><ele>54.61</ele><time>2026-08-31T21:35:55Z</time></trkpt><trkpt lat="59.4892235287" lon="31.1038269661"><ele>54.51</ele><time>2026-08-31T21:36:11Z</time></trkpt><trkpt lat="59.4892823696" lon="31.1039073486"><ele>54.01</ele><time>2026-08-31T21:36:25Z</time></trkpt><trkpt lat="59.4894160610" lon="31.1040770821"><ele>54.02</ele><time>2026-08-31T21:36:40Z</time></trkpt><trkpt lat="59.4895271212" lon="31.1042011343"><ele>54.18</ele><time>2026-08-31T21:36:54Z</time></trkpt><trkpt lat="59.4895888958" lon="31.1043720413"><ele>52.04</ele><time>2026-08-31T21:37:06Z</time></trkpt><trkpt lat="59.4896689430" lon="31.1045628972"><ele>52.57</ele><time>2026-08-31T21:37:19Z</time></trkpt><trkpt lat="59.4897454698" lon="31.1047193874"><ele>52.98</ele><time>2026-08-31T21:37:32Z</time></trkpt><trkpt lat="59.4898223318" lon="31.1047891248"><ele>52.91</ele><time>2026-08-31T21:37:46Z</time></trkpt><trkpt lat="59.4899343979" lon="31.1049343832"><ele>52.26</ele><time>2026-08-31T21:38:00Z</time></trkpt><trkpt lat="59.4900386687" lon="31.1051308550"><ele>53.14</ele><time>2026-08-31T21:38:18Z</time></trkpt><trkpt lat="59.4901351444" lon="31.1053084675"><ele>54.10</ele><time>2026-08-31T21:38:34Z</time></trkpt><trkpt lat="59.4902688358" lon="31.1054814700"><ele>54.45</ele><time>2026-08-31T21:38:50Z</time></trkpt><trkpt lat="59.4903629646" lon="31.1056116410"><ele>54.21</ele><time>2026-08-31T21:39:03Z</time></trkpt><trkpt lat="59.4904725999" lon="31.1057470925"><ele>53.67</ele><time>2026-08-31T21:39:19Z</time></trkpt><trkpt lat="59.4905490428" lon="31.1058655288"><ele>53.59</ele><time>2026-08-31T21:39:32Z</time></trkpt><trkpt lat="59.4906977378" lon="31.1061319895"><ele>53.53</ele><time>2026-08-31T21:39:50Z</time></trkpt><trkpt lat="59.4908284955" lon="31.1063282937"><ele>53.14</ele><time>2026-08-31T21:40:09Z</time></trkpt><trkpt lat="59.4908690639" lon="31.1064628232"><ele>53.13</ele><time>2026-08-31T21:40:23Z</time></trkpt><trkpt lat="59.4909808785" lon="31.1065687705"><ele>53.17</ele><time>2026-08-31T21:40:37Z</time></trkpt><trkpt lat="59.4910597522" lon="31.1067589559"><ele>53.18</ele><time>2026-08-31T21:40:47Z</time></trkpt><trkpt lat="59.4911442418" lon="31.1068609636"><ele>53.15</ele><time>2026-08-31T21:40:58Z</time></trkpt><trkpt lat="59.4911942817" lon="31.1069670785"><ele>53.63</ele><time>2026-08-31T21:41:15Z</time></trkpt><trkpt lat="59.4913850538" lon="31.1072600260"><ele>53.44</ele><time>2026-08-31T21:41:44Z</time></trkpt><trkpt lat="59.4915034901" lon="31.1074543186"><ele>53.74</ele><time>2026-08-31T21:42:00Z</time></trkpt><trkpt lat="59.4916037377" lon="31.1076191906"><ele>54.34</ele><time>2026-08-31T21:42:16Z</time></trkpt><trkpt lat="59.4916937593" lon="31.1077033449"><ele>53.58</ele><time>2026-08-31T21:42:32Z</time></trkpt><trkpt lat="59.4917138759" lon="31.1077177618"><ele>55.07</ele><time>2026-08-31T21:42:49Z</time></trkpt><trkpt lat="59.4917260297" lon="31.1077826377"><ele>53.83</ele><time>2026-08-31T21:43:06Z</time></trkpt><trkpt lat="59.4918040652" lon="31.1079216935"><ele>54.21</ele><time>2026-08-31T21:43:20Z</time></trkpt><trkpt lat="59.4918869622" lon="31.1080699693"><ele>54.57</ele><time>2026-08-31T21:43:32Z</time></trkpt><trkpt lat="59.4919902273" lon="31.1081764195"><ele>54.73</ele><time>2026-08-31T21:43:45Z</time></trkpt><trkpt lat="59.4920215756" lon="31.1082031578"><ele>55.84</ele><time>2026-08-31T21:44:03Z</time></trkpt><trkpt lat="59.4920909777" lon="31.1083783396"><ele>55.75</ele><time>2026-08-31T21:44:17Z</time></trkpt><trkpt lat="59.4921183866" lon="31.1084821913"><ele>55.09</ele><time>2026-08-31T21:44:33Z</time></trkpt><trkpt lat="59.4921703544" lon="31.1085857917"><ele>55.69</ele><time>2026-08-31T21:44:55Z</time></trkpt><trkpt lat="59.4923310354" lon="31.1087739654"><ele>55.90</ele><time>2026-08-31T21:45:14Z</time></trkpt><trkpt lat="59.4924151897" lon="31.1088689324"><ele>55.81</ele><time>2026-08-31T21:45:27Z</time></trkpt><trkpt lat="59.4924809877" lon="31.1089796573"><ele>55.67</ele><time>2026-08-31T21:45:41Z</time></trkpt><trkpt lat="59.4925963227" lon="31.1091757938"><ele>55.04</ele><time>2026-08-31T21:46:02Z</time></trkpt><trkpt lat="59.4926538225" lon="31.1092464533"><ele>54.79</ele><time>2026-08-31T21:46:18Z</time></trkpt><trkpt lat="59.4927576743" lon="31.1094009317"><ele>55.43</ele><time>2026-08-31T21:46:34Z</time></trkpt><trkpt lat="59.4927985780" lon="31.1096075457"><ele>55.61</ele><time>2026-08-31T21:46:46Z</time></trkpt><trkpt lat="59.4928778708" lon="31.1096777860"><ele>55.92</ele><time>2026-08-31T21:46:59Z</time></trkpt><trkpt lat="59.4929524697" lon="31.1098390538"><ele>55.86</ele><time>2026-08-31T21:47:15Z</time></trkpt><trkpt lat="59.4929702394" lon="31.1099501979"><ele>56.41</ele><time>2026-08-31T21:47:31Z</time></trkpt><trkpt lat="59.4929995760" lon="31.1101671215"><ele>55.87</ele><time>2026-08-31T21:48:06Z</time></trkpt><trkpt lat="59.4929961395" lon="31.1103401240"><ele>54.30</ele><time>2026-08-31T21:48:22Z</time></trkpt><trkpt lat="59.4929819740" lon="31.1103561334"><ele>54.14</ele><time>2026-08-31T21:48:26Z</time></trkpt><trkpt lat="59.4930117298" lon="31.1105348356"><ele>53.78</ele><time>2026-08-31T21:48:40Z</time></trkpt><trkpt lat="59.4930452574" lon="31.1106883921"><ele>53.27</ele><time>2026-08-31T21:49:02Z</time></trkpt><trkpt lat="59.4930674694" lon="31.1109310482"><ele>54.62</ele><time>2026-08-31T21:49:17Z</time></trkpt><trkpt lat="59.4930374622" lon="31.1110616382"><ele>55.58</ele><time>2026-08-31T21:49:32Z</time></trkpt><trkpt lat="59.4930435810" lon="31.1110748816"><ele>57.39</ele><time>2026-08-31T21:49:46Z</time></trkpt><trkpt lat="59.4930973928" lon="31.1110504903"><ele>56.58</ele><time>2026-08-31T21:50:10Z</time></trkpt><trkpt lat="59.4931170903" lon="31.1111187190"><ele>56.21</ele><time>2026-08-31T21:50:29Z</time></trkpt><trkpt lat="59.4931255560" lon="31.1111539230"><ele>52.16</ele><time>2026-08-31T21:50:53Z</time></trkpt><trkpt lat="59.4931015000" lon="31.1111034639"><ele>51.60</ele><time>2026-08-31T21:51:20Z</time></trkpt><trkpt lat="59.4931047689" lon="31.1110716965"><ele>51.95</ele><time>2026-08-31T21:51:52Z</time></trkpt><trkpt lat="59.4930933695" lon="31.1109821778"><ele>50.02</ele><time>2026-08-31T21:52:12Z</time></trkpt><trkpt lat="59.4930935372" lon="31.1111106724"><ele>50.12</ele><time>2026-08-31T21:52:31Z</time></trkpt><trkpt lat="59.4930865802" lon="31.1110963393"><ele>51.79</ele><time>2026-08-31T21:52:54Z</time></trkpt><trkpt lat="59.4930794556" lon="31.1111055594"><ele>52.04</ele><time>2026-08-31T21:53:14Z</time></trkpt><trkpt lat="59.4930972252" lon="31.1110685952"><ele>54.69</ele><time>2026-08-31T21:53:37Z</time></trkpt><trkpt lat="59.4931355305" lon="31.1111508217"><ele>55.20</ele><time>2026-08-31T21:54:04Z</time></trkpt><trkpt lat="59.4931484386" lon="31.1111547612"><ele>54.12</ele><time>2026-08-31T21:54:44Z</time></trkpt><trkpt lat="59.4931634422" lon="31.1111226585"><ele>53.80</ele><time>2026-08-31T21:55:28Z</time></trkpt><trkpt lat="59.4931878336" lon="31.1112554278"><ele>53.34</ele><time>2026-08-31T21:55:44Z</time></trkpt><trkpt lat="59.4932001550" lon="31.1113635544"><ele>51.05</ele><time>2026-08-31T21:56:01Z</time></trkpt><trkpt lat="59.4931975566" lon="31.1114685796"><ele>50.90</ele><time>2026-08-31T21:56:24Z</time></trkpt><trkpt lat="59.4932304975" lon="31.1115337908"><ele>51.78</ele><time>2026-08-31T21:56:41Z</time></trkpt><trkpt lat="59.4932622649" lon="31.1115597747"><ele>53.04</ele><time>2026-08-31T21:56:55Z</time></trkpt><trkpt lat="59.4932590798" lon="31.1115928832"><ele>54.67</ele><time>2026-08-31T21:57:12Z</time></trkpt><trkpt lat="59.4932362810" lon="31.1115671508"><ele>55.03</ele><time>2026-08-31T21:57:24Z</time></trkpt><trkpt lat="59.4932893384" lon="31.1116533168"><ele>54.60</ele><time>2026-08-31T21:57:54Z</time></trkpt><trkpt lat="59.4932672940" lon="31.1116157658"><ele>54.82</ele><time>2026-08-31T21:58:13Z</time></trkpt><trkpt lat="59.4932235405" lon="31.1117238924"><ele>54.58</ele><time>2026-08-31T21:58:33Z</time></trkpt><trkpt lat="59.4932009932" lon="31.1117188632"><ele>53.68</ele><time>2026-08-31T21:59:34Z</time></trkpt><trkpt lat="59.4932284858" lon="31.1117001716"><ele>54.42</ele><time>2026-08-31T21:59:48Z</time></trkpt><trkpt lat="59.4932419807" lon="31.1116637941"><ele>54.86</ele><time>2026-08-31T22:00:14Z</time></trkpt><trkpt lat="59.4932584930" lon="31.1116836593"><ele>53.78</ele><time>2026-08-31T22:00:48Z</time></trkpt><trkpt lat="59.4932829682" lon="31.1115283426"><ele>52.75</ele><time>2026-08-31T22:01:02Z</time></trkpt><trkpt lat="59.4932911824" lon="31.1113892868"><ele>54.39</ele><time>2026-08-31T22:01:10Z</time></trkpt><trkpt lat="59.4933064375" lon="31.1114532407"><ele>54.37</ele><time>2026-08-31T22:01:23Z</time></trkpt><trkpt lat="59.4932956249" lon="31.1115557514"><ele>54.61</ele><time>2026-08-31T22:01:34Z</time></trkpt><trkpt lat="59.4933723193" lon="31.1115604453"><ele>53.57</ele><time>2026-08-31T22:01:45Z</time></trkpt><trkpt lat="59.4934379496" lon="31.1114525702"><ele>53.00</ele><time>2026-08-31T22:02:02Z</time></trkpt><trkpt lat="59.4934845529" lon="31.1112804897"><ele>53.17</ele><time>2026-08-31T22:02:19Z</time></trkpt><trkpt lat="59.4935482554" lon="31.1111958325"><ele>53.13</ele><time>2026-08-31T22:02:31Z</time></trkpt><trkpt lat="59.4936342537" lon="31.1110017914"><ele>53.11</ele><time>2026-08-31T22:02:44Z</time></trkpt><trkpt lat="59.4936696254" lon="31.1110294517"><ele>52.75</ele><time>2026-08-31T22:03:01Z</time></trkpt><trkpt lat="59.4937255327" lon="31.1108919885"><ele>51.66</ele><time>2026-08-31T22:03:27Z</time></trkpt><trkpt lat="59.4937640894" lon="31.1108902283"><ele>52.03</ele><time>2026-08-31T22:03:39Z</time></trkpt><trkpt lat="59.4937332440" lon="31.1106946785"><ele>52.57</ele><time>2026-08-31T22:03:52Z</time></trkpt><trkpt lat="59.4937321544" lon="31.1106802616"><ele>52.51</ele><time>2026-08-31T22:03:53Z</time></trkpt><trkpt lat="59.4937930908" lon="31.1105087679"><ele>51.77</ele><time>2026-08-31T22:04:05Z</time></trkpt><trkpt lat="59.4937883969" lon="31.1105310638"><ele>52.14</ele><time>2026-08-31T22:04:31Z</time></trkpt><trkpt lat="59.4937867206" lon="31.1105096899"><ele>51.97</ele><time>2026-08-31T22:04:57Z</time></trkpt><trkpt lat="59.4937659334" lon="31.1103802733"><ele>51.37</ele><time>2026-08-31T22:05:17Z</time></trkpt><trkpt lat="59.4937601499" lon="31.1104710493"><ele>51.16</ele><time>2026-08-31T22:05:35Z</time></trkpt><trkpt lat="59.4937580545" lon="31.1105466541"><ele>48.09</ele><time>2026-08-31T22:05:55Z</time></trkpt><trkpt lat="59.4937501755" lon="31.1105927546"><ele>47.34</ele><time>2026-08-31T22:06:16Z</time></trkpt><trkpt lat="59.4937332440" lon="31.1105370987"><ele>46.41</ele><time>2026-08-31T22:06:40Z</time></trkpt><trkpt lat="59.4937443919" lon="31.1105394457"><ele>47.02</ele><time>2026-08-31T22:07:35Z</time></trkpt><trkpt lat="59.4937250298" lon="31.1105690338"><ele>47.07</ele><time>2026-08-31T22:08:08Z</time></trkpt><trkpt lat="59.4937271252" lon="31.1105336621"><ele>48.26</ele><time>2026-08-31T22:09:05Z</time></trkpt><trkpt lat="59.4937647600" lon="31.1104041617"><ele>47.33</ele><time>2026-08-31T22:09:22Z</time></trkpt><trkpt lat="59.4937967788" lon="31.1102250405"><ele>47.19</ele><time>2026-08-31T22:09:33Z</time></trkpt><trkpt lat="59.4938561227" lon="31.1099827196"><ele>47.33</ele><time>2026-08-31T22:09:47Z</time></trkpt><trkpt lat="59.4939322304" lon="31.1098944582"><ele>47.22</ele><time>2026-08-31T22:10:02Z</time></trkpt><trkpt lat="59.4939397741" lon="31.1099859886"><ele>48.38</ele><time>2026-08-31T22:10:27Z</time></trkpt><trkpt lat="59.4939529337" lon="31.1100932769"><ele>48.67</ele><time>2026-08-31T22:10:44Z</time></trkpt><trkpt lat="59.4940085895" lon="31.1102354340"><ele>49.34</ele><time>2026-08-31T22:11:04Z</time></trkpt><trkpt lat="59.4940231740" lon="31.1104824487"><ele>49.97</ele><time>2026-08-31T22:11:18Z</time></trkpt><trkpt lat="59.4939680211" lon="31.1106925830"><ele>49.82</ele><time>2026-08-31T22:11:33Z</time></trkpt><trkpt lat="59.4939835276" lon="31.1107582971"><ele>49.28</ele><time>2026-08-31T22:11:55Z</time></trkpt><trkpt lat="59.4940131996" lon="31.1110403482"><ele>49.26</ele><time>2026-08-31T22:12:20Z</time></trkpt><trkpt lat="59.4939988665" lon="31.1110908911"><ele>50.06</ele><time>2026-08-31T22:12:41Z</time></trkpt><trkpt lat="59.4940067455" lon="31.1112078186"><ele>50.25</ele><time>2026-08-31T22:12:47Z</time></trkpt><trkpt lat="59.4939956814" lon="31.1113518197"><ele>50.80</ele><time>2026-08-31T22:13:01Z</time></trkpt><trkpt lat="59.4939773250" lon="31.1116698291"><ele>50.77</ele><time>2026-08-31T22:13:17Z</time></trkpt><trkpt lat="59.4939560350" lon="31.1119557358"><ele>51.15</ele><time>2026-08-31T22:13:31Z</time></trkpt><trkpt lat="59.4939095993" lon="31.1122824624"><ele>51.92</ele><time>2026-08-31T22:13:51Z</time></trkpt><trkpt lat="59.4938726351" lon="31.1125580594"><ele>53.49</ele><time>2026-08-31T22:14:05Z</time></trkpt><trkpt lat="59.4938503392" lon="31.1127509270"><ele>53.38</ele><time>2026-08-31T22:14:20Z</time></trkpt><trkpt lat="59.4938322343" lon="31.1129432917"><ele>53.66</ele><time>2026-08-31T22:14:30Z</time></trkpt><trkpt lat="59.4937949348" lon="31.1131131928"><ele>55.46</ele><time>2026-08-31T22:14:46Z</time></trkpt><trkpt lat="59.4937775843" lon="31.1132919788"><ele>53.87</ele><time>2026-08-31T22:15:04Z</time></trkpt><trkpt lat="59.4937751535" lon="31.1133483890"><ele>53.68</ele><time>2026-08-31T22:15:32Z</time></trkpt><trkpt lat="59.4937283825" lon="31.1132575292"><ele>52.77</ele><time>2026-08-31T22:16:14Z</time></trkpt><trkpt lat="59.4937790930" lon="31.1132693477"><ele>54.08</ele><time>2026-08-31T22:17:11Z</time></trkpt><trkpt lat="59.4937833678" lon="31.1134133488"><ele>54.30</ele><time>2026-08-31T22:17:17Z</time></trkpt><trkpt lat="59.4937879778" lon="31.1136353854"><ele>52.26</ele><time>2026-08-31T22:17:33Z</time></trkpt><trkpt lat="59.4938059989" lon="31.1140271556"><ele>52.28</ele><time>2026-08-31T22:17:54Z</time></trkpt><trkpt lat="59.4938103575" lon="31.1141317617"><ele>52.97</ele><time>2026-08-31T22:18:00Z</time></trkpt><trkpt lat="59.4938322343" lon="31.1143547203"><ele>51.08</ele><time>2026-08-31T22:18:13Z</time></trkpt><trkpt lat="59.4938733894" lon="31.1145310756"><ele>50.84</ele><time>2026-08-31T22:18:30Z</time></trkpt><trkpt lat="59.4939252734" lon="31.1148158927"><ele>51.30</ele><time>2026-08-31T22:18:45Z</time></trkpt><trkpt lat="59.4939605612" lon="31.1150165554"><ele>51.04</ele><time>2026-08-31T22:18:58Z</time></trkpt><trkpt lat="59.4939897303" lon="31.1152364966"><ele>51.11</ele><time>2026-08-31T22:19:16Z</time></trkpt><trkpt lat="59.4940593839" lon="31.1155190505"><ele>51.84</ele><time>2026-08-31T22:19:38Z</time></trkpt><trkpt lat="59.4941295404" lon="31.1158271693"><ele>52.09</ele><time>2026-08-31T22:19:59Z</time></trkpt><trkpt lat="59.4941673428" lon="31.1160770338"><ele>52.50</ele><time>2026-08-31T22:20:14Z</time></trkpt><trkpt lat="59.4942019600" lon="31.1162082944"><ele>52.00</ele><time>2026-08-31T22:20:28Z</time></trkpt><trkpt lat="59.4942059834" lon="31.1162218731"><ele>51.89</ele><time>2026-08-31T22:20:33Z</time></trkpt><trkpt lat="59.4941922370" lon="31.1161038559"><ele>50.89</ele><time>2026-08-31T22:20:56Z</time></trkpt><trkpt lat="59.4942030497" lon="31.1160874274"><ele>51.19</ele><time>2026-08-31T22:21:41Z</time></trkpt><trkpt lat="59.4941804186" lon="31.1160500441"><ele>51.97</ele><time>2026-08-31T22:22:06Z</time></trkpt><trkpt lat="59.4941884652" lon="31.1161752697"><ele>49.96</ele><time>2026-08-31T22:22:42Z</time></trkpt><trkpt lat="59.4942431990" lon="31.1164279841"><ele>52.53</ele><time>2026-08-31T22:23:01Z</time></trkpt><trkpt lat="59.4943045545" lon="31.1165798642"><ele>51.31</ele><time>2026-08-31T22:23:18Z</time></trkpt><trkpt lat="59.4943711907" lon="31.1168027390"><ele>51.99</ele><time>2026-08-31T22:23:44Z</time></trkpt><trkpt lat="59.4944718573" lon="31.1173199862"><ele>53.30</ele><time>2026-08-31T22:24:00Z</time></trkpt><trkpt lat="59.4945429359" lon="31.1175727844"><ele>54.34</ele><time>2026-08-31T22:24:15Z</time></trkpt><trkpt lat="59.4945966639" lon="31.1177108344"><ele>54.45</ele><time>2026-08-31T22:24:32Z</time></trkpt><trkpt lat="59.4947085623" lon="31.1179433484"><ele>54.64</ele><time>2026-08-31T22:24:50Z</time></trkpt><trkpt lat="59.4947518967" lon="31.1181443464"><ele>55.41</ele><time>2026-08-31T22:25:05Z</time></trkpt><trkpt lat="59.4947801437" lon="31.1182703264"><ele>54.75</ele><time>2026-08-31T22:25:16Z</time></trkpt><trkpt lat="59.4947927166" lon="31.1182854977"><ele>54.03</ele><time>2026-08-31T22:25:37Z</time></trkpt><trkpt lat="59.4948046189" lon="31.1182705779"><ele>54.01</ele><time>2026-08-31T22:25:59Z</time></trkpt><trkpt lat="59.4947890285" lon="31.1182047799"><ele>55.75</ele><time>2026-08-31T22:26:23Z</time></trkpt><trkpt lat="59.4947679900" lon="31.1182666384"><ele>51.25</ele><time>2026-08-31T22:26:46Z</time></trkpt><trkpt lat="59.4947124179" lon="31.1183081288"><ele>51.37</ele><time>2026-08-31T22:27:34Z</time></trkpt><trkpt lat="59.4947713427" lon="31.1182758585"><ele>50.32</ele><time>2026-08-31T22:28:20Z</time></trkpt><trkpt lat="59.4947695825" lon="31.1183609348"><ele>51.54</ele><time>2026-08-31T22:28:38Z</time></trkpt><trkpt lat="59.4948594365" lon="31.1185012478"><ele>52.07</ele><time>2026-08-31T22:28:56Z</time></trkpt><trkpt lat="59.4950119872" lon="31.1186254676"><ele>52.35</ele><time>2026-08-31T22:29:11Z</time></trkpt><trkpt lat="59.4950681459" lon="31.1187614221"><ele>53.02</ele><time>2026-08-31T22:29:27Z</time></trkpt><trkpt lat="59.4951824751" lon="31.1189465784"><ele>53.32</ele><time>2026-08-31T22:29:41Z</time></trkpt><trkpt lat="59.4953193516" lon="31.1191187426"><ele>54.83</ele><time>2026-08-31T22:29:57Z</time></trkpt><trkpt lat="59.4954693876" lon="31.1193293799"><ele>56.20</ele><time>2026-08-31T22:30:17Z</time></trkpt><trkpt lat="59.4955741614" lon="31.1194734648"><ele>57.59</ele><time>2026-08-31T22:30:38Z</time></trkpt><trkpt lat="59.4956954475" lon="31.1196230818"><ele>58.50</ele><time>2026-08-31T22:30:54Z</time></trkpt><trkpt lat="59.4958200864" lon="31.1198479682"><ele>58.93</ele><time>2026-08-31T22:31:15Z</time></trkpt><trkpt lat="59.4958996307" lon="31.1199662369"><ele>57.97</ele><time>2026-08-31T22:31:42Z</time></trkpt><trkpt lat="59.4960252754" lon="31.1200790573"><ele>57.73</ele><time>2026-08-31T22:31:55Z</time></trkpt><trkpt lat="59.4961532671" lon="31.1202400737"><ele>57.23</ele><time>2026-08-31T22:32:11Z</time></trkpt><trkpt lat="59.4962506648" lon="31.1203961447"><ele>57.30</ele><time>2026-08-31T22:32:25Z</time></trkpt><trkpt lat="59.4963353220" lon="31.1205190234"><ele>56.62</ele><time>2026-08-31T22:32:40Z</time></trkpt><trkpt lat="59.4963643234" lon="31.1206091288"><ele>56.12</ele><time>2026-08-31T22:33:06Z</time></trkpt><trkpt lat="59.4963601325" lon="31.1205957178"><ele>58.17</ele><time>2026-08-31T22:33:57Z</time></trkpt><trkpt lat="59.4963730406" lon="31.1206406448"><ele>59.70</ele><time>2026-08-31T22:34:51Z</time></trkpt><trkpt lat="59.4965302851" lon="31.1208366975"><ele>59.19</ele><time>2026-08-31T22:35:10Z</time></trkpt><trkpt lat="59.4966890384" lon="31.1210752465"><ele>58.84</ele><time>2026-08-31T22:35:28Z</time></trkpt><trkpt lat="59.4967901241" lon="31.1212558765"><ele>58.83</ele><time>2026-08-31T22:35:46Z</time></trkpt><trkpt lat="59.4969422556" lon="31.1213728879"><ele>58.68</ele><time>2026-08-31T22:36:02Z</time></trkpt><trkpt lat="59.4971016794" lon="31.1214735545"><ele>57.73</ele><time>2026-08-31T22:36:22Z</time></trkpt><trkpt lat="59.4971856661" lon="31.1215656716"><ele>57.57</ele><time>2026-08-31T22:36:37Z</time></trkpt><trkpt lat="59.4973307569" lon="31.1217126902"><ele>57.23</ele><time>2026-08-31T22:36:56Z</time></trkpt><trkpt lat="59.4974227902" lon="31.1218348984"><ele>57.27</ele><time>2026-08-31T22:37:13Z</time></trkpt><trkpt lat="59.4975742511" lon="31.1219976749"><ele>56.52</ele><time>2026-08-31T22:37:31Z</time></trkpt><trkpt lat="59.4976440724" lon="31.1221149378"><ele>55.90</ele><time>2026-08-31T22:37:48Z</time></trkpt><trkpt lat="59.4976211898" lon="31.1221269239"><ele>54.76</ele><time>2026-08-31T22:38:14Z</time></trkpt><trkpt lat="59.4976964593" lon="31.1221589427"><ele>55.15</ele><time>2026-08-31T22:38:42Z</time></trkpt><trkpt lat="59.4978034962" lon="31.1222951487"><ele>54.67</ele><time>2026-08-31T22:38:54Z</time></trkpt><trkpt lat="59.4978315756" lon="31.1223359685"><ele>54.73</ele><time>2026-08-31T22:38:59Z</time></trkpt><trkpt lat="59.4979306497" lon="31.1224810593"><ele>54.77</ele><time>2026-08-31T22:39:12Z</time></trkpt><trkpt lat="59.4980575517" lon="31.1226872541"><ele>52.77</ele><time>2026-08-31T22:39:29Z</time></trkpt><trkpt lat="59.4980927557" lon="31.1227220390"><ele>52.64</ele><time>2026-08-31T22:39:33Z</time></trkpt><trkpt lat="59.4981592242" lon="31.1229320895"><ele>53.22</ele><time>2026-08-31T22:39:46Z</time></trkpt><trkpt lat="59.4981781673" lon="31.1229643598"><ele>53.15</ele><time>2026-08-31T22:40:03Z</time></trkpt><trkpt lat="59.4981548656" lon="31.1229407229"><ele>52.26</ele><time>2026-08-31T22:40:37Z</time></trkpt><trkpt lat="59.4981551170" lon="31.1229760945"><ele>52.81</ele><time>2026-08-31T22:41:26Z</time></trkpt><trkpt lat="59.4982051570" lon="31.1230724864"><ele>52.10</ele><time>2026-08-31T22:41:43Z</time></trkpt><trkpt lat="59.4982636627" lon="31.1231621727"><ele>52.34</ele><time>2026-08-31T22:41:52Z</time></trkpt><trkpt lat="59.4983087573" lon="31.1233292241"><ele>53.29</ele><time>2026-08-31T22:42:05Z</time></trkpt><trkpt lat="59.4983494934" lon="31.1233865563"><ele>53.43</ele><time>2026-08-31T22:42:11Z</time></trkpt><trkpt lat="59.4984460529" lon="31.1235627439"><ele>53.28</ele><time>2026-08-31T22:42:26Z</time></trkpt><trkpt lat="59.4985201489" lon="31.1237279512"><ele>53.37</ele><time>2026-08-31T22:42:41Z</time></trkpt><trkpt lat="59.4986088295" lon="31.1239418574"><ele>53.54</ele><time>2026-08-31T22:42:54Z</time></trkpt><trkpt lat="59.4987107534" lon="31.1241189670"><ele>53.72</ele><time>2026-08-31T22:43:10Z</time></trkpt><trkpt lat="59.4988346379" lon="31.1243793927"><ele>54.60</ele><time>2026-08-31T22:43:28Z</time></trkpt><trkpt lat="59.4988613762" lon="31.1244707555"><ele>53.04</ele><time>2026-08-31T22:43:42Z</time></trkpt><trkpt lat="59.4990150165" lon="31.1246601865"><ele>54.24</ele><time>2026-08-31T22:44:04Z</time></trkpt><trkpt lat="59.4990911242" lon="31.1247414909"><ele>52.39</ele><time>2026-08-31T22:44:24Z</time></trkpt><trkpt lat="59.4991987478" lon="31.1247396469"><ele>52.36</ele><time>2026-08-31T22:44:49Z</time></trkpt><trkpt lat="59.4992984924" lon="31.1247458495"><ele>52.41</ele><time>2026-08-31T22:45:02Z</time></trkpt><trkpt lat="59.4994122349" lon="31.1248487793"><ele>53.09</ele><time>2026-08-31T22:45:16Z</time></trkpt><trkpt lat="59.4995615166" lon="31.1250458378"><ele>53.57</ele><time>2026-08-31T22:45:35Z</time></trkpt><trkpt lat="59.4996505324" lon="31.1252195947"><ele>53.79</ele><time>2026-08-31T22:45:44Z</time></trkpt><trkpt lat="59.4997429848" lon="31.1254256219"><ele>54.29</ele><time>2026-08-31T22:46:01Z</time></trkpt><trkpt lat="59.4997916836" lon="31.1255665217"><ele>55.92</ele><time>2026-08-31T22:46:19Z</time></trkpt><trkpt lat="59.4998206850" lon="31.1256844550"><ele>56.92</ele><time>2026-08-31T22:46:46Z</time></trkpt><trkpt lat="59.4998734910" lon="31.1257965211"><ele>55.34</ele><time>2026-08-31T22:47:21Z</time></trkpt><trkpt lat="59.4998891652" lon="31.1258702818"><ele>53.66</ele><time>2026-08-31T22:47:45Z</time></trkpt><trkpt lat="59.4999516942" lon="31.1259111855"><ele>54.71</ele><time>2026-08-31T22:48:18Z</time></trkpt><trkpt lat="59.4999553822" lon="31.1260622274"><ele>54.17</ele><time>2026-08-31T22:48:50Z</time></trkpt><trkpt lat="59.5001436397" lon="31.1262490600"><ele>53.70</ele><time>2026-08-31T22:49:17Z</time></trkpt><trkpt lat="59.5001702942" lon="31.1264366470"><ele>53.99</ele><time>2026-08-31T22:49:27Z</time></trkpt><trkpt lat="59.5001561288" lon="31.1265206337"><ele>54.48</ele><time>2026-08-31T22:49:43Z</time></trkpt><trkpt lat="59.5002945978" lon="31.1266017705"><ele>54.77</ele><time>2026-08-31T22:49:59Z</time></trkpt><trkpt lat="59.5004186500" lon="31.1268245615"><ele>55.34</ele><time>2026-08-31T22:50:15Z</time></trkpt><trkpt lat="59.5004185662" lon="31.1267613620"><ele>53.57</ele><time>2026-08-31T22:50:34Z</time></trkpt><trkpt lat="59.5002762415" lon="31.1265577655"><ele>54.30</ele><time>2026-08-31T22:50:48Z</time></trkpt><trkpt lat="59.5002582204" lon="31.1265255790"><ele>52.17</ele><time>2026-08-31T22:51:38Z</time></trkpt><trkpt lat="59.5002538618" lon="31.1265041213"><ele>52.46</ele><time>2026-08-31T22:52:23Z</time></trkpt><trkpt lat="59.5002958551" lon="31.1265499704"><ele>51.68</ele><time>2026-08-31T22:52:45Z</time></trkpt><trkpt lat="59.5003815182" lon="31.1266925465"><ele>51.69</ele><time>2026-08-31T22:52:59Z</time></trkpt><trkpt lat="59.5004733838" lon="31.1269482784"><ele>52.05</ele><time>2026-08-31T22:53:15Z</time></trkpt><trkpt lat="59.5006618928" lon="31.1273005698"><ele>51.33</ele><time>2026-08-31T22:53:51Z</time></trkpt><trkpt lat="59.5007863641" lon="31.1274927668"><ele>51.31</ele><time>2026-08-31T22:54:10Z</time></trkpt><trkpt lat="59.5009050518" lon="31.1277163960"><ele>50.63</ele><time>2026-08-31T22:54:29Z</time></trkpt><trkpt lat="59.5010242425" lon="31.1279312242"><ele>51.50</ele><time>2026-08-31T22:54:47Z</time></trkpt><trkpt lat="59.5011065528" lon="31.1280380934"><ele>51.31</ele><time>2026-08-31T22:55:01Z</time></trkpt><trkpt lat="59.5011853427" lon="31.1281783227"><ele>50.30</ele><time>2026-08-31T22:55:19Z</time></trkpt><trkpt lat="59.5013444312" lon="31.1285027862"><ele>50.99</ele><time>2026-08-31T22:55:38Z</time></trkpt><trkpt lat="59.5014417451" lon="31.1287033651"><ele>52.22</ele><time>2026-08-31T22:55:52Z</time></trkpt><trkpt lat="59.5015534759" lon="31.1288003437"><ele>53.19</ele><time>2026-08-31T22:56:08Z</time></trkpt><trkpt lat="59.5016145799" lon="31.1289056204"><ele>53.56</ele><time>2026-08-31T22:56:22Z</time></trkpt><trkpt lat="59.5016950462" lon="31.1291969754"><ele>53.47</ele><time>2026-08-31T22:56:41Z</time></trkpt><trkpt lat="59.5018089563" lon="31.1293369532"><ele>53.37</ele><time>2026-08-31T22:57:10Z</time></trkpt><trkpt lat="59.5019662846" lon="31.1295261327"><ele>52.10</ele><time>2026-08-31T22:57:24Z</time></trkpt><trkpt lat="59.5020232815" lon="31.1296773423"><ele>52.44</ele><time>2026-08-31T22:57:35Z</time></trkpt><trkpt lat="59.5021454897" lon="31.1298937630"><ele>52.66</ele><time>2026-08-31T22:57:52Z</time></trkpt><trkpt lat="59.5021878183" lon="31.1299818568"><ele>52.04</ele><time>2026-08-31T22:57:59Z</time></trkpt><trkpt lat="59.5022109523" lon="31.1300023925"><ele>52.49</ele><time>2026-08-31T22:58:15Z</time></trkpt><trkpt lat="59.5022121258" lon="31.1300275382"><ele>52.79</ele><time>2026-08-31T22:58:36Z</time></trkpt><trkpt lat="59.5022139698" lon="31.1299654283"><ele>52.22</ele><time>2026-08-31T22:59:09Z</time></trkpt><trkpt lat="59.5022180770" lon="31.1299619917"><ele>52.21</ele><time>2026-08-31T22:59:51Z</time></trkpt><trkpt lat="59.5022078510" lon="31.1299949326"><ele>51.07</ele><time>2026-08-31T23:00:30Z</time></trkpt><trkpt lat="59.5022055879" lon="31.1299840361"><ele>50.72</ele><time>2026-08-31T23:01:08Z</time></trkpt><trkpt lat="59.5022150595" lon="31.1300437991"><ele>49.33</ele><time>2026-08-31T23:01:33Z</time></trkpt><trkpt lat="59.5022358466" lon="31.1301390175"><ele>49.86</ele><time>2026-08-31T23:01:48Z</time></trkpt><trkpt lat="59.5022532810" lon="31.1302793305"><ele>49.99</ele><time>2026-08-31T23:02:16Z</time></trkpt><trkpt lat="59.5022631716" lon="31.1302780733"><ele>49.66</ele><time>2026-08-31T23:02:36Z</time></trkpt><trkpt lat="59.5022506826" lon="31.1301824357"><ele>50.27</ele><time>2026-08-31T23:02:47Z</time></trkpt><trkpt lat="59.5022270456" lon="31.1299652606"><ele>51.41</ele><time>2026-08-31T23:03:00Z</time></trkpt><trkpt lat="59.5022632554" lon="31.1299752351"><ele>51.44</ele><time>2026-08-31T23:03:04Z</time></trkpt><trkpt lat="59.5023643412" lon="31.1301144585"><ele>51.55</ele><time>2026-08-31T23:03:20Z</time></trkpt><trkpt lat="59.5024104416" lon="31.1302243453"><ele>50.19</ele><time>2026-08-31T23:03:34Z</time></trkpt><trkpt lat="59.5023447275" lon="31.1302493233"><ele>51.08</ele><time>2026-08-31T23:03:53Z</time></trkpt><trkpt lat="59.5022947714" lon="31.1302706972"><ele>51.56</ele><time>2026-08-31T23:04:11Z</time></trkpt><trkpt lat="59.5022476651" lon="31.1303335615"><ele>50.34</ele><time>2026-08-31T23:04:29Z</time></trkpt><trkpt lat="59.5022841264" lon="31.1304154526"><ele>50.48</ele><time>2026-08-31T23:04:42Z</time></trkpt><trkpt lat="59.5022953581" lon="31.1305320449"><ele>49.77</ele><time>2026-08-31T23:04:58Z</time></trkpt><trkpt lat="59.5023079310" lon="31.1306644790"><ele>51.58</ele><time>2026-08-31T23:05:13Z</time></trkpt><trkpt lat="59.5023138821" lon="31.1306932289"><ele>51.62</ele><time>2026-08-31T23:05:15Z</time></trkpt><trkpt lat="59.5023271255" lon="31.1308641359"><ele>51.82</ele><time>2026-08-31T23:05:27Z</time></trkpt><trkpt lat="59.5023468230" lon="31.1309768725"><ele>51.83</ele><time>2026-08-31T23:05:42Z</time></trkpt><trkpt lat="59.5023726393" lon="31.1310610268"><ele>51.03</ele><time>2026-08-31T23:05:59Z</time></trkpt><trkpt lat="59.5023665205" lon="31.1311901920"><ele>52.23</ele><time>2026-08-31T23:06:18Z</time></trkpt><trkpt lat="59.5023966953" lon="31.1312549841"><ele>51.51</ele><time>2026-08-31T23:06:39Z</time></trkpt><trkpt lat="59.5024621580" lon="31.1310997512"><ele>51.87</ele><time>2026-08-31T23:07:17Z</time></trkpt><trkpt lat="59.5024420414" lon="31.1310668942"><ele>51.68</ele><time>2026-08-31T23:08:05Z</time></trkpt><trkpt lat="59.5024853759" lon="31.1311601847"><ele>51.88</ele><time>2026-08-31T23:09:33Z</time></trkpt><trkpt lat="59.5024865493" lon="31.1310918722"><ele>52.12</ele><time>2026-08-31T23:10:24Z</time></trkpt><trkpt lat="59.5025039837" lon="31.1310139205"><ele>51.46</ele><time>2026-08-31T23:11:06Z</time></trkpt><trkpt lat="59.5024899859" lon="31.1310692411"><ele>49.92</ele><time>2026-08-31T23:11:24Z</time></trkpt><trkpt lat="59.5024199970" lon="31.1311814748"><ele>49.94</ele><time>2026-08-31T23:11:55Z</time></trkpt><trkpt lat="59.5023944322" lon="31.1312850751"><ele>49.51</ele><time>2026-08-31T23:12:13Z</time></trkpt><trkpt lat="59.5023935940" lon="31.1313105561"><ele>49.13</ele><time>2026-08-31T23:12:47Z</time></trkpt><trkpt lat="59.5024156384" lon="31.1315192655"><ele>49.20</ele><time>2026-08-31T23:13:08Z</time></trkpt><trkpt lat="59.5024360903" lon="31.1315775197"><ele>49.02</ele><time>2026-08-31T23:13:20Z</time></trkpt><trkpt lat="59.5024602301" lon="31.1316509452"><ele>47.95</ele><time>2026-08-31T23:13:45Z</time></trkpt><trkpt lat="59.5024775807" lon="31.1318733171"><ele>48.44</ele><time>2026-08-31T23:14:04Z</time></trkpt><trkpt lat="59.5024816878" lon="31.1319885682"><ele>49.47</ele><time>2026-08-31T23:14:31Z</time></trkpt><trkpt lat="59.5024766587" lon="31.1320295557"><ele>50.82</ele><time>2026-08-31T23:15:01Z</time></trkpt><trkpt lat="59.5025005471" lon="31.1321109440"><ele>50.88</ele><time>2026-08-31T23:15:28Z</time></trkpt><trkpt lat="59.5024952665" lon="31.1322177295"><ele>52.74</ele><time>2026-08-31T23:15:42Z</time></trkpt><trkpt lat="59.5024983678" lon="31.1324468907"><ele>54.35</ele><time>2026-08-31T23:15:57Z</time></trkpt><trkpt lat="59.5024923328" lon="31.1325447913"><ele>53.77</ele><time>2026-08-31T23:16:10Z</time></trkpt><trkpt lat="59.5025221724" lon="31.1326628923"><ele>53.91</ele><time>2026-08-31T23:16:24Z</time></trkpt><trkpt lat="59.5025198255" lon="31.1326514930"><ele>53.98</ele><time>2026-08-31T23:16:45Z</time></trkpt><trkpt lat="59.5026074164" lon="31.1328596994"><ele>53.16</ele><time>2026-08-31T23:17:05Z</time></trkpt><trkpt lat="59.5026011299" lon="31.1329854280"><ele>52.86</ele><time>2026-08-31T23:17:23Z</time></trkpt><trkpt lat="59.5025906526" lon="31.1329746991"><ele>52.41</ele><time>2026-08-31T23:17:53Z</time></trkpt><trkpt lat="59.5025693625" lon="31.1330114957"><ele>51.78</ele><time>2026-08-31T23:18:37Z</time></trkpt><trkpt lat="59.5025933348" lon="31.1330547463"><ele>53.59</ele><time>2026-08-31T23:19:35Z</time></trkpt><trkpt lat="59.5026059914" lon="31.1332712509"><ele>53.37</ele><time>2026-08-31T23:19:50Z</time></trkpt><trkpt lat="59.5026133675" lon="31.1334281601"><ele>53.17</ele><time>2026-08-31T23:20:03Z</time></trkpt><trkpt lat="59.5026213303" lon="31.1334632803"><ele>52.91</ele><time>2026-08-31T23:20:06Z</time></trkpt><trkpt lat="59.5026836917" lon="31.1336585786"><ele>52.95</ele><time>2026-08-31T23:20:21Z</time></trkpt><trkpt lat="59.5027328935" lon="31.1338095367"><ele>49.61</ele><time>2026-08-31T23:20:38Z</time></trkpt><trkpt lat="59.5027088374" lon="31.1339153163"><ele>49.75</ele><time>2026-08-31T23:21:02Z</time></trkpt><trkpt lat="59.5027210750" lon="31.1341383588"><ele>49.65</ele><time>2026-08-31T23:21:22Z</time></trkpt><trkpt lat="59.5027192309" lon="31.1341463216"><ele>49.75</ele><time>2026-08-31T23:21:26Z</time></trkpt><trkpt lat="59.5026142895" lon="31.1342399474"><ele>50.23</ele><time>2026-08-31T23:21:41Z</time></trkpt><trkpt lat="59.5026626531" lon="31.1344482377"><ele>49.86</ele><time>2026-08-31T23:22:03Z</time></trkpt><trkpt lat="59.5026906487" lon="31.1346718669"><ele>49.51</ele><time>2026-08-31T23:22:23Z</time></trkpt><trkpt lat="59.5027188957" lon="31.1350314505"><ele>49.46</ele><time>2026-08-31T23:22:45Z</time></trkpt><trkpt lat="59.5027263556" lon="31.1353471968"><ele>48.90</ele><time>2026-08-31T23:23:00Z</time></trkpt><trkpt lat="59.5027626492" lon="31.1354784574"><ele>47.79</ele><time>2026-08-31T23:23:18Z</time></trkpt><trkpt lat="59.5027386770" lon="31.1357198562"><ele>47.91</ele><time>2026-08-31T23:23:34Z</time></trkpt><trkpt lat="59.5027084183" lon="31.1358461715"><ele>48.83</ele><time>2026-08-31T23:23:47Z</time></trkpt><trkpt lat="59.5027330611" lon="31.1359670386"><ele>48.33</ele><time>2026-08-31T23:24:10Z</time></trkpt><trkpt lat="59.5027900580" lon="31.1359635182"><ele>48.59</ele><time>2026-08-31T23:24:18Z</time></trkpt><trkpt lat="59.5029172953" lon="31.1360483430"><ele>49.67</ele><time>2026-08-31T23:24:32Z</time></trkpt><trkpt lat="59.5029701851" lon="31.1361735687"><ele>50.91</ele><time>2026-08-31T23:24:45Z</time></trkpt><trkpt lat="59.5029155351" lon="31.1362728942"><ele>49.84</ele><time>2026-08-31T23:24:56Z</time></trkpt><trkpt lat="59.5029344782" lon="31.1364117824"><ele>50.68</ele><time>2026-08-31T23:25:10Z</time></trkpt><trkpt lat="59.5029663295" lon="31.1365770735"><ele>49.17</ele><time>2026-08-31T23:25:26Z</time></trkpt><trkpt lat="59.5029329695" lon="31.1365591362"><ele>47.85</ele><time>2026-08-31T23:26:05Z</time></trkpt><trkpt lat="59.5029228274" lon="31.1365810968"><ele>46.95</ele><time>2026-08-31T23:26:24Z</time></trkpt><trkpt lat="59.5029233303" lon="31.1365696974"><ele>49.39</ele><time>2026-08-31T23:26:48Z</time></trkpt><trkpt lat="59.5029108413" lon="31.1366929952"><ele>46.78</ele><time>2026-08-31T23:27:16Z</time></trkpt><trkpt lat="59.5029272698" lon="31.1368288659"><ele>45.57</ele><time>2026-08-31T23:27:44Z</time></trkpt><trkpt lat="59.5029936545" lon="31.1370825861"><ele>45.49</ele><time>2026-08-31T23:28:03Z</time></trkpt><trkpt lat="59.5030072331" lon="31.1373197939"><ele>46.51</ele><time>2026-08-31T23:28:15Z</time></trkpt><trkpt lat="59.5030513220" lon="31.1375034414"><ele>45.79</ele><time>2026-08-31T23:28:31Z</time></trkpt><trkpt lat="59.5031044632" lon="31.1377937905"><ele>47.19</ele><time>2026-08-31T23:28:54Z</time></trkpt><trkpt lat="59.5031584427" lon="31.1379967164"><ele>47.12</ele><time>2026-08-31T23:29:07Z</time></trkpt><trkpt lat="59.5031552576" lon="31.1381905898"><ele>46.69</ele><time>2026-08-31T23:29:20Z</time></trkpt><trkpt lat="59.5031617954" lon="31.1383984610"><ele>50.72</ele><time>2026-08-31T23:29:37Z</time></trkpt><trkpt lat="59.5031834207" lon="31.1384720542"><ele>50.26</ele><time>2026-08-31T23:29:53Z</time></trkpt><trkpt lat="59.5031985920" lon="31.1386489961"><ele>50.30</ele><time>2026-08-31T23:30:08Z</time></trkpt><trkpt lat="59.5032301918" lon="31.1390395928"><ele>50.79</ele><time>2026-08-31T23:30:28Z</time></trkpt><trkpt lat="59.5032863505" lon="31.1392720230"><ele>52.76</ele><time>2026-08-31T23:30:48Z</time></trkpt><trkpt lat="59.5033206325" lon="31.1393859331"><ele>52.98</ele><time>2026-08-31T23:31:11Z</time></trkpt><trkpt lat="59.5034041163" lon="31.1395485420"><ele>52.27</ele><time>2026-08-31T23:31:24Z</time></trkpt><trkpt lat="59.5034051221" lon="31.1395770404"><ele>50.98</ele><time>2026-08-31T23:31:38Z</time></trkpt><trkpt lat="59.5034217183" lon="31.1395296827"><ele>50.63</ele><time>2026-08-31T23:31:57Z</time></trkpt><trkpt lat="59.5034546591" lon="31.1395545769"><ele>50.10</ele><time>2026-08-31T23:32:30Z</time></trkpt><trkpt lat="59.5034472831" lon="31.1395956483"><ele>52.35</ele><time>2026-08-31T23:32:50Z</time></trkpt><trkpt lat="59.5033628773" lon="31.1396322772"><ele>51.58</ele><time>2026-08-31T23:33:35Z</time></trkpt><trkpt lat="59.5032966603" lon="31.1395498831"><ele>49.86</ele><time>2026-08-31T23:34:00Z</time></trkpt><trkpt lat="59.5032691676" lon="31.1396165192"><ele>50.13</ele><time>2026-08-31T23:34:30Z</time></trkpt><trkpt lat="59.5032757893" lon="31.1397015955"><ele>51.54</ele><time>2026-08-31T23:35:07Z</time></trkpt><trkpt lat="59.5032963250" lon="31.1396148428"><ele>51.98</ele><time>2026-08-31T23:35:43Z</time></trkpt><trkpt lat="59.5032869373" lon="31.1396382283"><ele>50.66</ele><time>2026-08-31T23:36:14Z</time></trkpt><trkpt lat="59.5033811498" lon="31.1396011803"><ele>51.40</ele><time>2026-08-31T23:36:47Z</time></trkpt><trkpt lat="59.5034492947" lon="31.1394564249"><ele>49.02</ele><time>2026-08-31T23:37:15Z</time></trkpt><trkpt lat="59.5033992548" lon="31.1394903716"><ele>46.21</ele><time>2026-08-31T23:38:32Z</time></trkpt><trkpt lat="59.5033831615" lon="31.1395077221"><ele>45.41</ele><time>2026-08-31T23:39:44Z</time></trkpt><trkpt lat="59.5034419186" lon="31.1395487934"><ele>45.80</ele><time>2026-08-31T23:40:07Z</time></trkpt><trkpt lat="59.5034666453" lon="31.1395258270"><ele>45.62</ele><time>2026-08-31T23:40:34Z</time></trkpt><trkpt lat="59.5035475306" lon="31.1395309400"><ele>45.26</ele><time>2026-08-31T23:40:49Z</time></trkpt><trkpt lat="59.5036212914" lon="31.1395622883"><ele>45.25</ele><time>2026-08-31T23:41:02Z</time></trkpt><trkpt lat="59.5036597643" lon="31.1395524815"><ele>45.81</ele><time>2026-08-31T23:41:19Z</time></trkpt><trkpt lat="59.5036347862" lon="31.1397662200"><ele>48.59</ele><time>2026-08-31T23:41:34Z</time></trkpt><trkpt lat="59.5036537293" lon="31.1398361251"><ele>48.57</ele><time>2026-08-31T23:41:48Z</time></trkpt><trkpt lat="59.5037114806" lon="31.1398492847"><ele>47.57</ele><time>2026-08-31T23:42:03Z</time></trkpt><trkpt lat="59.5037508756" lon="31.1399052758"><ele>49.88</ele><time>2026-08-31T23:42:20Z</time></trkpt><trkpt lat="59.5038050227" lon="31.1391814984"><ele>44.75</ele><time>2026-08-31T23:47:19Z</time></trkpt><trkpt lat="59.5038814656" lon="31.1393523216"><ele>58.83</ele><time>2026-08-31T23:47:39Z</time></trkpt><trkpt lat="59.5039868262" lon="31.1394661479"><ele>54.98</ele><time>2026-08-31T23:47:54Z</time></trkpt><trkpt lat="59.5039980579" lon="31.1396210454"><ele>61.51</ele><time>2026-08-31T23:48:11Z</time></trkpt><trkpt lat="59.5040731598" lon="31.1395041179"><ele>64.92</ele><time>2026-08-31T23:48:39Z</time></trkpt><trkpt lat="59.5040409733" lon="31.1395659763"><ele>63.61</ele><time>2026-08-31T23:48:54Z</time></trkpt><trkpt lat="59.5039497782" lon="31.1394347996"><ele>65.13</ele><time>2026-08-31T23:49:14Z</time></trkpt><trkpt lat="59.5038937870" lon="31.1395580973"><ele>65.98</ele><time>2026-08-31T23:49:32Z</time></trkpt><trkpt lat="59.5038863271" lon="31.1397877615"><ele>64.41</ele><time>2026-08-31T23:49:48Z</time></trkpt><trkpt lat="59.5038020890" lon="31.1397253163"><ele>63.13</ele><time>2026-08-31T23:50:01Z</time></trkpt><trkpt lat="59.5037498698" lon="31.1398099735"><ele>60.34</ele><time>2026-08-31T23:50:15Z</time></trkpt><trkpt lat="59.5037799608" lon="31.1399599258"><ele>57.93</ele><time>2026-08-31T23:50:29Z</time></trkpt><trkpt lat="59.5037984848" lon="31.1400063615"><ele>57.27</ele><time>2026-08-31T23:50:42Z</time></trkpt><trkpt lat="59.5038766880" lon="31.1400585808"><ele>52.62</ele><time>2026-08-31T23:50:55Z</time></trkpt><trkpt lat="59.5039294939" lon="31.1400946230"><ele>52.20</ele><time>2026-08-31T23:51:13Z</time></trkpt><trkpt lat="59.5040268917" lon="31.1401686352"><ele>52.37</ele><time>2026-08-31T23:51:28Z</time></trkpt><trkpt lat="59.5040751714" lon="31.1402154900"><ele>51.86</ele><time>2026-08-31T23:51:40Z</time></trkpt><trkpt lat="59.5041634329" lon="31.1402617581"><ele>51.42</ele><time>2026-08-31T23:51:53Z</time></trkpt><trkpt lat="59.5041953679" lon="31.1403881572"><ele>52.09</ele><time>2026-08-31T23:52:06Z</time></trkpt><trkpt lat="59.5042451564" lon="31.1404406279"><ele>52.30</ele><time>2026-08-31T23:52:18Z</time></trkpt><trkpt lat="59.5042973757" lon="31.1405053362"><ele>51.14</ele><time>2026-08-31T23:52:31Z</time></trkpt><trkpt lat="59.5043007284" lon="31.1405405402"><ele>48.46</ele><time>2026-08-31T23:52:46Z</time></trkpt><trkpt lat="59.5043893252" lon="31.1406089365"><ele>45.34</ele><time>2026-08-31T23:52:58Z</time></trkpt><trkpt lat="59.5044570509" lon="31.1407445557"><ele>45.74</ele><time>2026-08-31T23:53:13Z</time></trkpt><trkpt lat="59.5045254473" lon="31.1408675183"><ele>45.17</ele><time>2026-08-31T23:53:26Z</time></trkpt><trkpt lat="59.5045974478" lon="31.1409530975"><ele>44.99</ele><time>2026-08-31T23:53:41Z</time></trkpt><trkpt lat="59.5046543609" lon="31.1410304625"><ele>45.13</ele><time>2026-08-31T23:53:53Z</time></trkpt><trkpt lat="59.5047419518" lon="31.1411730386"><ele>46.24</ele><time>2026-08-31T23:54:09Z</time></trkpt><trkpt lat="59.5048318896" lon="31.1412571929"><ele>48.71</ele><time>2026-08-31T23:54:25Z</time></trkpt><trkpt lat="59.5048365835" lon="31.1411956698"><ele>54.13</ele><time>2026-08-31T23:54:49Z</time></trkpt><trkpt lat="59.5048308000" lon="31.1411631480"><ele>60.09</ele><time>2026-08-31T23:55:16Z</time></trkpt><trkpt lat="59.5048701949" lon="31.1412361544"><ele>56.31</ele><time>2026-08-31T23:55:44Z</time></trkpt><trkpt lat="59.5048385952" lon="31.1412595399"><ele>58.80</ele><time>2026-08-31T23:56:09Z</time></trkpt><trkpt lat="59.5048275311" lon="31.1411884613"><ele>57.10</ele><time>2026-08-31T23:56:32Z</time></trkpt><trkpt lat="59.5048618969" lon="31.1412018724"><ele>53.49</ele><time>2026-08-31T23:56:50Z</time></trkpt><trkpt lat="59.5049047284" lon="31.1413569376"><ele>52.41</ele><time>2026-08-31T23:57:02Z</time></trkpt><trkpt lat="59.5049972646" lon="31.1413634755"><ele>52.10</ele><time>2026-08-31T23:57:16Z</time></trkpt><trkpt lat="59.5050418563" lon="31.1415188760"><ele>52.01</ele><time>2026-08-31T23:57:31Z</time></trkpt><trkpt lat="59.5050697681" lon="31.1416269187"><ele>51.23</ele><time>2026-08-31T23:57:44Z</time></trkpt><trkpt lat="59.5050983503" lon="31.1416822392"><ele>51.82</ele><time>2026-08-31T23:58:03Z</time></trkpt><trkpt lat="59.5051177964" lon="31.1416556686"><ele>47.89</ele><time>2026-08-31T23:58:23Z</time></trkpt><trkpt lat="59.5051268488" lon="31.1416471191"><ele>46.76</ele><time>2026-08-31T23:58:45Z</time></trkpt><trkpt lat="59.5051301178" lon="31.1416781321"><ele>46.34</ele><time>2026-08-31T23:59:07Z</time></trkpt><trkpt lat="59.5051500667" lon="31.1416886933"><ele>48.59</ele><time>2026-08-31T23:59:27Z</time></trkpt><trkpt lat="59.5051676687" lon="31.1417784635"><ele>47.45</ele><time>2026-08-31T23:59:46Z</time></trkpt><trkpt lat="59.5051811635" lon="31.1417871807"><ele>49.28</ele><time>2026-09-01T00:00:07Z</time></trkpt><trkpt lat="59.5052078180" lon="31.1417601909"><ele>49.06</ele><time>2026-09-01T00:00:22Z</time></trkpt><trkpt lat="59.5051757991" lon="31.1417343747"><ele>48.26</ele><time>2026-09-01T00:00:35Z</time></trkpt><trkpt lat="59.5052494761" lon="31.1418284196"><ele>46.24</ele><time>2026-09-01T00:00:54Z</time></trkpt><trkpt lat="59.5052832551" lon="31.1419233866"><ele>47.40</ele><time>2026-09-01T00:01:11Z</time></trkpt><trkpt lat="59.5053210575" lon="31.1420161743"><ele>46.26</ele><time>2026-09-01T00:01:28Z</time></trkpt><trkpt lat="59.5054029487" lon="31.1420099717"><ele>49.38</ele><time>2026-09-01T00:01:48Z</time></trkpt><trkpt lat="59.5054221433" lon="31.1420266517"><ele>49.06</ele><time>2026-09-01T00:02:16Z</time></trkpt><trkpt lat="59.5054632984" lon="31.1421148293"><ele>48.07</ele><time>2026-09-01T00:02:33Z</time></trkpt><trkpt lat="59.5054965746" lon="31.1422274821"><ele>47.83</ele><time>2026-09-01T00:02:50Z</time></trkpt><trkpt lat="59.5055456925" lon="31.1423239578"><ele>46.25</ele><time>2026-09-01T00:03:06Z</time></trkpt><trkpt lat="59.5055158529" lon="31.1422580760"><ele>48.57</ele><time>2026-09-01T00:03:19Z</time></trkpt><trkpt lat="59.5055365562" lon="31.1423164979"><ele>50.41</ele><time>2026-09-01T00:03:46Z</time></trkpt><trkpt lat="59.5055468660" lon="31.1423597485"><ele>50.82</ele><time>2026-09-01T00:04:03Z</time></trkpt><trkpt lat="59.5055227261" lon="31.1423321720"><ele>51.81</ele><time>2026-09-01T00:04:29Z</time></trkpt><trkpt lat="59.5054958202" lon="31.1423914321"><ele>52.47</ele><time>2026-09-01T00:05:11Z</time></trkpt><trkpt lat="59.5054724347" lon="31.1424076930"><ele>52.45</ele><time>2026-09-01T00:05:56Z</time></trkpt><trkpt lat="59.5055287611" lon="31.1423787754"><ele>53.76</ele><time>2026-09-01T00:07:04Z</time></trkpt><trkpt lat="59.5056296792" lon="31.1424238700"><ele>53.45</ele><time>2026-09-01T00:07:21Z</time></trkpt><trkpt lat="59.5056324452" lon="31.1425318290"><ele>53.07</ele><time>2026-09-01T00:07:50Z</time></trkpt><trkpt lat="59.5057103969" lon="31.1426141392"><ele>52.70</ele><time>2026-09-01T00:08:12Z</time></trkpt><trkpt lat="59.5057880972" lon="31.1426922586"><ele>52.69</ele><time>2026-09-01T00:08:29Z</time></trkpt><trkpt lat="59.5058837347" lon="31.1428371817"><ele>52.53</ele><time>2026-09-01T00:08:49Z</time></trkpt><trkpt lat="59.5059950463" lon="31.1429852899"><ele>52.20</ele><time>2026-09-01T00:09:04Z</time></trkpt><trkpt lat="59.5060757641" lon="31.1430694442"><ele>51.67</ele><time>2026-09-01T00:09:23Z</time></trkpt><trkpt lat="59.5061581582" lon="31.1432042252"><ele>51.68</ele><time>2026-09-01T00:09:44Z</time></trkpt><trkpt lat="59.5062456653" lon="31.1433435325"><ele>51.82</ele><time>2026-09-01T00:09:58Z</time></trkpt><trkpt lat="59.5063180849" lon="31.1434447858"><ele>52.04</ele><time>2026-09-01T00:10:24Z</time></trkpt><trkpt lat="59.5063579828" lon="31.1435983423"><ele>51.26</ele><time>2026-09-01T00:10:46Z</time></trkpt><trkpt lat="59.5064587332" lon="31.1437905394"><ele>50.95</ele><time>2026-09-01T00:11:03Z</time></trkpt><trkpt lat="59.5065076835" lon="31.1437883601"><ele>51.82</ele><time>2026-09-01T00:11:22Z</time></trkpt><trkpt lat="59.5065292250" lon="31.1437447742"><ele>51.60</ele><time>2026-09-01T00:11:38Z</time></trkpt><trkpt lat="59.5065244474" lon="31.1437509768"><ele>51.78</ele><time>2026-09-01T00:12:12Z</time></trkpt><trkpt lat="59.5065525267" lon="31.1437872704"><ele>53.62</ele><time>2026-09-01T00:12:38Z</time></trkpt><trkpt lat="59.5065268781" lon="31.1437555868"><ele>52.30</ele><time>2026-09-01T00:12:55Z</time></trkpt><trkpt lat="59.5065215975" lon="31.1437515635"><ele>52.54</ele><time>2026-09-01T00:13:39Z</time></trkpt><trkpt lat="59.5065323263" lon="31.1437562574"><ele>53.72</ele><time>2026-09-01T00:14:07Z</time></trkpt><trkpt lat="59.5065508503" lon="31.1438691616"><ele>53.64</ele><time>2026-09-01T00:14:33Z</time></trkpt><trkpt lat="59.5066044945" lon="31.1438878532"><ele>53.23</ele><time>2026-09-01T00:14:51Z</time></trkpt><trkpt lat="59.5067090169" lon="31.1439841613"><ele>52.76</ele><time>2026-09-01T00:15:04Z</time></trkpt><trkpt lat="59.5067920815" lon="31.1441571638"><ele>52.37</ele><time>2026-09-01T00:15:20Z</time></trkpt><trkpt lat="59.5068328176" lon="31.1442897655"><ele>51.48</ele><time>2026-09-01T00:15:34Z</time></trkpt><trkpt lat="59.5069341548" lon="31.1443898454"><ele>51.75</ele><time>2026-09-01T00:15:51Z</time></trkpt><trkpt lat="59.5070462208" lon="31.1445567291"><ele>51.26</ele><time>2026-09-01T00:16:09Z</time></trkpt><trkpt lat="59.5072093327" lon="31.1447530333"><ele>50.90</ele><time>2026-09-01T00:16:34Z</time></trkpt><trkpt lat="59.5072946604" lon="31.1449252814"><ele>50.27</ele><time>2026-09-01T00:16:52Z</time></trkpt><trkpt lat="59.5073471311" lon="31.1450080946"><ele>49.69</ele><time>2026-09-01T00:17:11Z</time></trkpt><trkpt lat="59.5074531622" lon="31.1451328173"><ele>48.04</ele><time>2026-09-01T00:17:26Z</time></trkpt><trkpt lat="59.5075228997" lon="31.1452041473"><ele>47.71</ele><time>2026-09-01T00:17:43Z</time></trkpt><trkpt lat="59.5076778810" lon="31.1453600507"><ele>50.59</ele><time>2026-09-01T00:18:07Z</time></trkpt><trkpt lat="59.5077257417" lon="31.1454219930"><ele>49.96</ele><time>2026-09-01T00:18:23Z</time></trkpt><trkpt lat="59.5077710878" lon="31.1454890482"><ele>48.97</ele><time>2026-09-01T00:18:43Z</time></trkpt><trkpt lat="59.5078693237" lon="31.1456506513"><ele>49.97</ele><time>2026-09-01T00:19:03Z</time></trkpt><trkpt lat="59.5079324394" lon="31.1457462888"><ele>49.68</ele><time>2026-09-01T00:19:20Z</time></trkpt><trkpt lat="59.5079003368" lon="31.1457658187"><ele>48.47</ele><time>2026-09-01T00:20:04Z</time></trkpt><trkpt lat="59.5079007559" lon="31.1457174551"><ele>49.87</ele><time>2026-09-01T00:20:29Z</time></trkpt><trkpt lat="59.5079685654" lon="31.1457707640"><ele>52.80</ele><time>2026-09-01T00:20:41Z</time></trkpt><trkpt lat="59.5079685654" lon="31.1457353923"><ele>51.29</ele><time>2026-09-01T00:20:52Z</time></trkpt><trkpt lat="59.5079984888" lon="31.1457552575"><ele>51.44</ele><time>2026-09-01T00:21:29Z</time></trkpt><trkpt lat="59.5079902746" lon="31.1457575206"><ele>51.96</ele><time>2026-09-01T00:22:34Z</time></trkpt><trkpt lat="59.5080067869" lon="31.1457421817"><ele>52.02</ele><time>2026-09-01T00:23:08Z</time></trkpt><trkpt lat="59.5080045238" lon="31.1457172874"><ele>52.30</ele><time>2026-09-01T00:23:40Z</time></trkpt><trkpt lat="59.5080204494" lon="31.1456823349"><ele>50.04</ele><time>2026-09-01T00:24:05Z</time></trkpt><trkpt lat="59.5080212876" lon="31.1457401700"><ele>53.71</ele><time>2026-09-01T00:24:23Z</time></trkpt><trkpt lat="59.5080381352" lon="31.1457841750"><ele>56.80</ele><time>2026-09-01T00:24:47Z</time></trkpt><trkpt lat="59.5080490317" lon="31.1458142661"><ele>56.24</ele><time>2026-09-01T00:25:07Z</time></trkpt><trkpt lat="59.5080578327" lon="31.1458519846"><ele>53.78</ele><time>2026-09-01T00:25:31Z</time></trkpt><trkpt lat="59.5080486964" lon="31.1458449438"><ele>53.93</ele><time>2026-09-01T00:25:56Z</time></trkpt><trkpt lat="59.5080535579" lon="31.1458419263"><ele>53.49</ele><time>2026-09-01T00:26:15Z</time></trkpt><trkpt lat="59.5080440864" lon="31.1458197981"><ele>50.60</ele><time>2026-09-01T00:26:40Z</time></trkpt><trkpt lat="59.5080304239" lon="31.1458019447"><ele>50.89</ele><time>2026-09-01T00:27:07Z</time></trkpt><trkpt lat="59.5080250595" lon="31.1458315328"><ele>50.53</ele><time>2026-09-01T00:27:32Z</time></trkpt><trkpt lat="59.5080388896" lon="31.1458473746"><ele>50.94</ele><time>2026-09-01T00:27:48Z</time></trkpt><trkpt lat="59.5080663823" lon="31.1458921339"><ele>50.59</ele><time>2026-09-01T00:28:18Z</time></trkpt><trkpt lat="59.5081223734" lon="31.1460134201"><ele>50.13</ele><time>2026-09-01T00:28:41Z</time></trkpt><trkpt lat="59.5082042646" lon="31.1461444292"><ele>50.43</ele><time>2026-09-01T00:29:10Z</time></trkpt><trkpt lat="59.5082785282" lon="31.1462008394"><ele>51.12</ele><time>2026-09-01T00:29:33Z</time></trkpt><trkpt lat="59.5082858205" lon="31.1462058686"><ele>51.35</ele><time>2026-09-01T00:29:57Z</time></trkpt><trkpt lat="59.5083296578" lon="31.1461704969"><ele>52.12</ele><time>2026-09-01T00:30:39Z</time></trkpt><trkpt lat="59.5083291549" lon="31.1461860873"><ele>51.43</ele><time>2026-09-01T00:31:11Z</time></trkpt><trkpt lat="59.5082795341" lon="31.1461908650"><ele>47.96</ele><time>2026-09-01T00:31:44Z</time></trkpt><trkpt lat="59.5082951244" lon="31.1462283321"><ele>48.20</ele><time>2026-09-01T00:32:03Z</time></trkpt><trkpt lat="59.5083892532" lon="31.1463592574"><ele>48.19</ele><time>2026-09-01T00:32:29Z</time></trkpt><trkpt lat="59.5083940309" lon="31.1463651247"><ele>48.02</ele><time>2026-09-01T00:32:30Z</time></trkpt><trkpt lat="59.5084751677" lon="31.1464616843"><ele>49.43</ele><time>2026-09-01T00:32:47Z</time></trkpt><trkpt lat="59.5085351821" lon="31.1465829704"><ele>49.61</ele><time>2026-09-01T00:33:07Z</time></trkpt><trkpt lat="59.5086212642" lon="31.1467077769"><ele>49.52</ele><time>2026-09-01T00:33:32Z</time></trkpt><trkpt lat="59.5087051671" lon="31.1467650253"><ele>48.15</ele><time>2026-09-01T00:33:44Z</time></trkpt><trkpt lat="59.5087998826" lon="31.1468915921"><ele>47.74</ele><time>2026-09-01T00:34:04Z</time></trkpt><trkpt lat="59.5088658482" lon="31.1469806917"><ele>47.20</ele><time>2026-09-01T00:34:20Z</time></trkpt><trkpt lat="59.5089458954" lon="31.1470444780"><ele>47.88</ele><time>2026-09-01T00:34:41Z</time></trkpt><trkpt lat="59.5089951809" lon="31.1471381877"><ele>48.07</ele><time>2026-09-01T00:35:03Z</time></trkpt><trkpt lat="59.5090760663" lon="31.1472994555"><ele>47.94</ele><time>2026-09-01T00:35:23Z</time></trkpt><trkpt lat="59.5091466419" lon="31.1474162992"><ele>48.71</ele><time>2026-09-01T00:35:38Z</time></trkpt><trkpt lat="59.5091795828" lon="31.1474501621"><ele>48.30</ele><time>2026-09-01T00:35:54Z</time></trkpt><trkpt lat="59.5092168823" lon="31.1474885512"><ele>49.00</ele><time>2026-09-01T00:36:07Z</time></trkpt><trkpt lat="59.5092552714" lon="31.1475780699"><ele>49.28</ele><time>2026-09-01T00:36:32Z</time></trkpt><trkpt lat="59.5093273558" lon="31.1476228293"><ele>48.35</ele><time>2026-09-01T00:37:01Z</time></trkpt><trkpt lat="59.5093292836" lon="31.1476618890"><ele>46.16</ele><time>2026-09-01T00:37:25Z</time></trkpt><trkpt lat="59.5093371626" lon="31.1477089953"><ele>46.15</ele><time>2026-09-01T00:37:47Z</time></trkpt><trkpt lat="59.5093599614" lon="31.1477327999"><ele>47.60</ele><time>2026-09-01T00:38:21Z</time></trkpt><trkpt lat="59.5093812514" lon="31.1477230769"><ele>49.02</ele><time>2026-09-01T00:38:46Z</time></trkpt><trkpt lat="59.5093568601" lon="31.1476925667"><ele>50.05</ele><time>2026-09-01T00:39:19Z</time></trkpt><trkpt lat="59.5093242545" lon="31.1477913894"><ele>49.70</ele><time>2026-09-01T00:40:00Z</time></trkpt><trkpt lat="59.5092983544" lon="31.1477111746"><ele>51.23</ele><time>2026-09-01T00:40:35Z</time></trkpt><trkpt lat="59.5092439558" lon="31.1478431895"><ele>49.80</ele><time>2026-09-01T00:41:03Z</time></trkpt><trkpt lat="59.5092556905" lon="31.1479089875"><ele>49.56</ele><time>2026-09-01T00:41:22Z</time></trkpt><trkpt lat="59.5092212409" lon="31.1480340455"><ele>48.73</ele><time>2026-09-01T00:42:08Z</time></trkpt><trkpt lat="59.5091050677" lon="31.1480306927"><ele>47.16</ele><time>2026-09-01T00:42:34Z</time></trkpt><trkpt lat="59.5090688579" lon="31.1482822336"><ele>47.17</ele><time>2026-09-01T00:42:55Z</time></trkpt><trkpt lat="59.5089432970" lon="31.1484346166"><ele>47.47</ele><time>2026-09-01T00:43:20Z</time></trkpt><trkpt lat="59.5088605676" lon="31.1485737562"><ele>46.98</ele><time>2026-09-01T00:43:37Z</time></trkpt><trkpt lat="59.5088529401" lon="31.1486044340"><ele>47.66</ele><time>2026-09-01T00:44:05Z</time></trkpt><trkpt lat="59.5088608190" lon="31.1486786976"><ele>50.47</ele><time>2026-09-01T00:44:30Z</time></trkpt><trkpt lat="59.5088850427" lon="31.1486156657"><ele>51.18</ele><time>2026-09-01T00:45:19Z</time></trkpt><trkpt lat="59.5088343322" lon="31.1486627720"><ele>50.76</ele><time>2026-09-01T00:46:15Z</time></trkpt><trkpt lat="59.5088281296" lon="31.1486219522"><ele>54.52</ele><time>2026-09-01T00:46:50Z</time></trkpt><trkpt lat="59.5088552870" lon="31.1485984828"><ele>55.16</ele><time>2026-09-01T00:47:17Z</time></trkpt><trkpt lat="59.5088937599" lon="31.1485666316"><ele>57.57</ele><time>2026-09-01T00:47:47Z</time></trkpt><trkpt lat="59.5089184865" lon="31.1485290807"><ele>56.82</ele><time>2026-09-01T00:48:12Z</time></trkpt><trkpt lat="59.5089322329" lon="31.1485508736"><ele>55.29</ele><time>2026-09-01T00:48:33Z</time></trkpt><trkpt lat="59.5089002978" lon="31.1485133227"><ele>56.82</ele><time>2026-09-01T00:48:56Z</time></trkpt><trkpt lat="59.5089041535" lon="31.1486050207"><ele>56.73</ele><time>2026-09-01T00:49:22Z</time></trkpt><trkpt lat="59.5088832825" lon="31.1485952977"><ele>56.92</ele><time>2026-09-01T00:49:51Z</time></trkpt><trkpt lat="59.5088689495" lon="31.1486482713"><ele>55.89</ele><time>2026-09-01T00:50:17Z</time></trkpt><trkpt lat="59.5087520219" lon="31.1488951184"><ele>55.83</ele><time>2026-09-01T00:50:36Z</time></trkpt><trkpt lat="59.5086677838" lon="31.1489577312"><ele>54.68</ele><time>2026-09-01T00:50:55Z</time></trkpt><trkpt lat="59.5085865632" lon="31.1491262913"><ele>54.19</ele><time>2026-09-01T00:51:08Z</time></trkpt><trkpt lat="59.5085366908" lon="31.1492897384"><ele>53.64</ele><time>2026-09-01T00:51:27Z</time></trkpt><trkpt lat="59.5084575657" lon="31.1494062468"><ele>53.12</ele><time>2026-09-01T00:51:47Z</time></trkpt><trkpt lat="59.5084249601" lon="31.1494721286"><ele>53.09</ele><time>2026-09-01T00:52:11Z</time></trkpt><trkpt lat="59.5084301569" lon="31.1494550295"><ele>54.26</ele><time>2026-09-01T00:52:46Z</time></trkpt><trkpt lat="59.5084135607" lon="31.1493380181"><ele>52.72</ele><time>2026-09-01T00:53:12Z</time></trkpt><trkpt lat="59.5083949529" lon="31.1493360903"><ele>52.62</ele><time>2026-09-01T00:54:27Z</time></trkpt><trkpt lat="59.5083980542" lon="31.1493434664"><ele>52.29</ele><time>2026-09-01T00:55:02Z</time></trkpt><trkpt lat="59.5083979703" lon="31.1493713781"><ele>52.57</ele><time>2026-09-01T00:56:01Z</time></trkpt><trkpt lat="59.5083744172" lon="31.1494577955"><ele>53.22</ele><time>2026-09-01T00:56:15Z</time></trkpt><trkpt lat="59.5083444938" lon="31.1495101824"><ele>53.79</ele><time>2026-09-01T00:56:31Z</time></trkpt><trkpt lat="59.5083075296" lon="31.1495800875"><ele>51.98</ele><time>2026-09-01T00:56:45Z</time></trkpt><trkpt lat="59.5082914364" lon="31.1497080792"><ele>51.29</ele><time>2026-09-01T00:57:00Z</time></trkpt><trkpt lat="59.5081935357" lon="31.1498837639"><ele>50.44</ele><time>2026-09-01T00:57:27Z</time></trkpt><trkpt lat="59.5081100520" lon="31.1499826703"><ele>51.73</ele><time>2026-09-01T00:57:48Z</time></trkpt><trkpt lat="59.5080172643" lon="31.1500818282"><ele>52.48</ele><time>2026-09-01T00:58:30Z</time></trkpt><trkpt lat="59.5079947170" lon="31.1501487996"><ele>52.24</ele><time>2026-09-01T00:58:52Z</time></trkpt><trkpt lat="59.5079790428" lon="31.1501880269"><ele>51.84</ele><time>2026-09-01T00:59:31Z</time></trkpt><trkpt lat="59.5079599321" lon="31.1501936428"><ele>51.82</ele><time>2026-09-01T00:59:49Z</time></trkpt><trkpt lat="59.5079326909" lon="31.1502776295"><ele>52.30</ele><time>2026-09-01T01:00:18Z</time></trkpt><trkpt lat="59.5078729279" lon="31.1504725926"><ele>52.22</ele><time>2026-09-01T01:00:34Z</time></trkpt><trkpt lat="59.5078266598" lon="31.1505601835"><ele>53.04</ele><time>2026-09-01T01:00:56Z</time></trkpt><trkpt lat="59.5077576768" lon="31.1507015862"><ele>52.07</ele><time>2026-09-01T01:01:13Z</time></trkpt><trkpt lat="59.5076568425" lon="31.1508327629"><ele>51.50</ele><time>2026-09-01T01:01:39Z</time></trkpt><trkpt lat="59.5075867698" lon="31.1509884987"><ele>49.81</ele><time>2026-09-01T01:01:56Z</time></trkpt><trkpt lat="59.5075027831" lon="31.1511039175"><ele>49.66</ele><time>2026-09-01T01:02:10Z</time></trkpt><trkpt lat="59.5074709319" lon="31.1512198392"><ele>49.22</ele><time>2026-09-01T01:02:25Z</time></trkpt><trkpt lat="59.5074210595" lon="31.1512495950"><ele>50.80</ele><time>2026-09-01T01:02:49Z</time></trkpt><trkpt lat="59.5074488875" lon="31.1512770876"><ele>51.51</ele><time>2026-09-01T01:03:27Z</time></trkpt><trkpt lat="59.5074954908" lon="31.1512822844"><ele>55.47</ele><time>2026-09-01T01:04:07Z</time></trkpt><trkpt lat="59.5074704289" lon="31.1512784287"><ele>52.28</ele><time>2026-09-01T01:05:07Z</time></trkpt><trkpt lat="59.5074652322" lon="31.1512696277"><ele>53.08</ele><time>2026-09-01T01:05:27Z</time></trkpt><trkpt lat="59.5074563473" lon="31.1512546241"><ele>53.28</ele><time>2026-09-01T01:05:48Z</time></trkpt><trkpt lat="59.5074493904" lon="31.1512290593"><ele>50.50</ele><time>2026-09-01T01:06:08Z</time></trkpt><trkpt lat="59.5072922297" lon="31.1514668539"><ele>50.36</ele><time>2026-09-01T01:06:52Z</time></trkpt><trkpt lat="59.5072919782" lon="31.1515916605"><ele>49.56</ele><time>2026-09-01T01:07:14Z</time></trkpt><trkpt lat="59.5072531700" lon="31.1516260263"><ele>50.48</ele><time>2026-09-01T01:07:32Z</time></trkpt><trkpt lat="59.5072402619" lon="31.1515377648"><ele>51.31</ele><time>2026-09-01T01:07:49Z</time></trkpt><trkpt lat="59.5072552655" lon="31.1515680235"><ele>51.07</ele><time>2026-09-01T01:07:52Z</time></trkpt><trkpt lat="59.5072174631" lon="31.1516895611"><ele>49.20</ele><time>2026-09-01T01:08:03Z</time></trkpt><trkpt lat="59.5071136951" lon="31.1517703626"><ele>51.28</ele><time>2026-09-01T01:08:19Z</time></trkpt><trkpt lat="59.5070830174" lon="31.1518982705"><ele>52.35</ele><time>2026-09-01T01:08:37Z</time></trkpt><trkpt lat="59.5070561953" lon="31.1519782338"><ele>51.20</ele><time>2026-09-01T01:09:03Z</time></trkpt><trkpt lat="59.5069905650" lon="31.1520847678"><ele>49.68</ele><time>2026-09-01T01:09:46Z</time></trkpt><trkpt lat="59.5069861226" lon="31.1519293673"><ele>50.61</ele><time>2026-09-01T01:10:20Z</time></trkpt><trkpt lat="59.5069803391" lon="31.1520105880"><ele>49.87</ele><time>2026-09-01T01:10:48Z</time></trkpt><trkpt lat="59.5069763996" lon="31.1520815827"><ele>48.17</ele><time>2026-09-01T01:11:12Z</time></trkpt><trkpt lat="59.5069586299" lon="31.1520511564"><ele>46.07</ele><time>2026-09-01T01:11:45Z</time></trkpt><trkpt lat="59.5069827698" lon="31.1520972569"><ele>45.01</ele><time>2026-09-01T01:12:07Z</time></trkpt><trkpt lat="59.5070789941" lon="31.1519347318"><ele>47.64</ele><time>2026-09-01T01:12:25Z</time></trkpt><trkpt lat="59.5071254298" lon="31.1519074906"><ele>50.05</ele><time>2026-09-01T01:12:58Z</time></trkpt><trkpt lat="59.5071769785" lon="31.1517604720"><ele>50.20</ele><time>2026-09-01T01:13:15Z</time></trkpt><trkpt lat="59.5072768908" lon="31.1515545286"><ele>49.90</ele><time>2026-09-01T01:13:30Z</time></trkpt><trkpt lat="59.5073706843" lon="31.1513641756"><ele>50.27</ele><time>2026-09-01T01:13:42Z</time></trkpt><trkpt lat="59.5074323751" lon="31.1512070987"><ele>50.30</ele><time>2026-09-01T01:14:03Z</time></trkpt><trkpt lat="59.5075400826" lon="31.1509489361"><ele>49.18</ele><time>2026-09-01T01:14:36Z</time></trkpt><trkpt lat="59.5077034459" lon="31.1506374646"><ele>49.27</ele><time>2026-09-01T01:14:55Z</time></trkpt><trkpt lat="59.5078346226" lon="31.1505075451"><ele>49.97</ele><time>2026-09-01T01:15:12Z</time></trkpt><trkpt lat="59.5078725927" lon="31.1505587585"><ele>49.17</ele><time>2026-09-01T01:15:37Z</time></trkpt><trkpt lat="59.5078712516" lon="31.1506165937"><ele>50.11</ele><time>2026-09-01T01:16:30Z</time></trkpt><trkpt lat="59.5078436751" lon="31.1506690644"><ele>51.30</ele><time>2026-09-01T01:16:59Z</time></trkpt><trkpt lat="59.5078218821" lon="31.1506503727"><ele>51.13</ele><time>2026-09-01T01:17:29Z</time></trkpt><trkpt lat="59.5079237223" lon="31.1503238976"><ele>50.74</ele><time>2026-09-01T01:17:50Z</time></trkpt><trkpt lat="59.5080392249" lon="31.1501310300"><ele>51.09</ele><time>2026-09-01T01:18:21Z</time></trkpt><trkpt lat="59.5081624389" lon="31.1499185488"><ele>51.77</ele><time>2026-09-01T01:18:36Z</time></trkpt><trkpt lat="59.5082158316" lon="31.1497599632"><ele>51.42</ele><time>2026-09-01T01:18:54Z</time></trkpt><trkpt lat="59.5083313342" lon="31.1494848691"><ele>51.88</ele><time>2026-09-01T01:19:08Z</time></trkpt><trkpt lat="59.5084153209" lon="31.1494265310"><ele>52.84</ele><time>2026-09-01T01:19:35Z</time></trkpt><trkpt lat="59.5084526204" lon="31.1494855396"><ele>53.36</ele><time>2026-09-01T01:20:06Z</time></trkpt><trkpt lat="59.5084276423" lon="31.1494871322"><ele>53.20</ele><time>2026-09-01T01:20:35Z</time></trkpt><trkpt lat="59.5084420592" lon="31.1494514253"><ele>54.32</ele><time>2026-09-01T01:21:02Z</time></trkpt><trkpt lat="59.5084415562" lon="31.1494494975"><ele>54.75</ele><time>2026-09-01T01:21:34Z</time></trkpt><trkpt lat="59.5084434841" lon="31.1494332366"><ele>54.73</ele><time>2026-09-01T01:22:15Z</time></trkpt><trkpt lat="59.5085042529" lon="31.1493495852"><ele>54.20</ele><time>2026-09-01T01:22:37Z</time></trkpt><trkpt lat="59.5086172409" lon="31.1489812844"><ele>53.86</ele><time>2026-09-01T01:23:02Z</time></trkpt><trkpt lat="59.5087082684" lon="31.1488396302"><ele>53.56</ele><time>2026-09-01T01:23:31Z</time></trkpt><trkpt lat="59.5087299775" lon="31.1488038395"><ele>53.51</ele><time>2026-09-01T01:23:38Z</time></trkpt><trkpt lat="59.5089033991" lon="31.1484410707"><ele>53.56</ele><time>2026-09-01T01:23:53Z</time></trkpt><trkpt lat="59.5089916606" lon="31.1483426671"><ele>53.44</ele><time>2026-09-01T01:24:08Z</time></trkpt><trkpt lat="59.5090823527" lon="31.1481301859"><ele>51.39</ele><time>2026-09-01T01:24:25Z</time></trkpt><trkpt lat="59.5091464743" lon="31.1480095703"><ele>51.26</ele><time>2026-09-01T01:24:40Z</time></trkpt><trkpt lat="59.5092043933" lon="31.1479482986"><ele>51.81</ele><time>2026-09-01T01:24:54Z</time></trkpt><trkpt lat="59.5093247574" lon="31.1476908904"><ele>51.64</ele><time>2026-09-01T01:25:13Z</time></trkpt><trkpt lat="59.5094138570" lon="31.1477120966"><ele>51.12</ele><time>2026-09-01T01:25:32Z</time></trkpt><trkpt lat="59.5094253402" lon="31.1477083247"><ele>48.25</ele><time>2026-09-01T01:25:55Z</time></trkpt><trkpt lat="59.5094098337" lon="31.1478390824"><ele>47.77</ele><time>2026-09-01T01:26:25Z</time></trkpt><trkpt lat="59.5093935728" lon="31.1479506455"><ele>51.38</ele><time>2026-09-01T01:27:02Z</time></trkpt><trkpt lat="59.5093761384" lon="31.1480337940"><ele>51.92</ele><time>2026-09-01T01:27:26Z</time></trkpt><trkpt lat="59.5093251765" lon="31.1480809841"><ele>50.55</ele><time>2026-09-01T01:27:41Z</time></trkpt><trkpt lat="59.5093208179" lon="31.1481140926"><ele>50.12</ele><time>2026-09-01T01:28:16Z</time></trkpt><trkpt lat="59.5093298703" lon="31.1481930502"><ele>50.13</ele><time>2026-09-01T01:29:03Z</time></trkpt><trkpt lat="59.5093465503" lon="31.1481756996"><ele>51.66</ele><time>2026-09-01T01:29:41Z</time></trkpt><trkpt lat="59.5093108434" lon="31.1481769569"><ele>52.67</ele><time>2026-09-01T01:30:13Z</time></trkpt><trkpt lat="59.5093097538" lon="31.1481443513"><ele>53.35</ele><time>2026-09-01T01:30:47Z</time></trkpt><trkpt lat="59.5093572792" lon="31.1479050480"><ele>53.00</ele><time>2026-09-01T01:31:10Z</time></trkpt><trkpt lat="59.5094822533" lon="31.1478762981"><ele>52.74</ele><time>2026-09-01T01:31:27Z</time></trkpt><trkpt lat="59.5095220674" lon="31.1479993444"><ele>55.93</ele><time>2026-09-01T01:31:48Z</time></trkpt><trkpt lat="59.5095772203" lon="31.1480155215"><ele>55.28</ele><time>2026-09-01T01:32:09Z</time></trkpt><trkpt lat="59.5096016955" lon="31.1481036991"><ele>53.18</ele><time>2026-09-01T01:32:25Z</time></trkpt><trkpt lat="59.5095891226" lon="31.1481986661"><ele>52.53</ele><time>2026-09-01T01:32:49Z</time></trkpt><trkpt lat="59.5096314512" lon="31.1482456885"><ele>53.00</ele><time>2026-09-01T01:33:01Z</time></trkpt><trkpt lat="59.5096506458" lon="31.1482712533"><ele>52.79</ele><time>2026-09-01T01:33:30Z</time></trkpt><trkpt lat="59.5096469577" lon="31.1482748576"><ele>52.10</ele><time>2026-09-01T01:34:05Z</time></trkpt><trkpt lat="59.5096442755" lon="31.1482712533"><ele>51.74</ele><time>2026-09-01T01:34:36Z</time></trkpt><trkpt lat="59.5096399169" lon="31.1482529808"><ele>51.28</ele><time>2026-09-01T01:35:17Z</time></trkpt><trkpt lat="59.5096897893" lon="31.1482985783"><ele>50.82</ele><time>2026-09-01T01:35:36Z</time></trkpt><trkpt lat="59.5097830798" lon="31.1484097224"><ele>50.00</ele><time>2026-09-01T01:35:59Z</time></trkpt><trkpt lat="59.5098314434" lon="31.1483651306"><ele>49.39</ele><time>2026-09-01T01:36:16Z</time></trkpt><trkpt lat="59.5098493807" lon="31.1483569164"><ele>49.36</ele><time>2026-09-01T01:37:21Z</time></trkpt><trkpt lat="59.5098434296" lon="31.1483548209"><ele>49.13</ele><time>2026-09-01T01:37:53Z</time></trkpt><trkpt lat="59.5098466985" lon="31.1483603530"><ele>49.20</ele><time>2026-09-01T01:38:42Z</time></trkpt><trkpt lat="59.5098421723" lon="31.1483455170"><ele>48.88</ele><time>2026-09-01T01:39:25Z</time></trkpt><trkpt lat="59.5097876899" lon="31.1483681481"><ele>48.67</ele><time>2026-09-01T01:39:39Z</time></trkpt><trkpt lat="59.5096626319" lon="31.1482592672"><ele>47.92</ele><time>2026-09-01T01:40:05Z</time></trkpt><trkpt lat="59.5095484704" lon="31.1481325328"><ele>48.71</ele><time>2026-09-01T01:40:21Z</time></trkpt><trkpt lat="59.5094604604" lon="31.1479639728"><ele>48.79</ele><time>2026-09-01T01:40:45Z</time></trkpt><trkpt lat="59.5094236638" lon="31.1478884518"><ele>49.81</ele><time>2026-09-01T01:41:11Z</time></trkpt><trkpt lat="59.5093987696" lon="31.1478890385"><ele>51.57</ele><time>2026-09-01T01:41:31Z</time></trkpt><trkpt lat="59.5093727857" lon="31.1478932295"><ele>50.93</ele><time>2026-09-01T01:42:00Z</time></trkpt><trkpt lat="59.5093818381" lon="31.1477153655"><ele>49.86</ele><time>2026-09-01T01:42:20Z</time></trkpt><trkpt lat="59.5093421917" lon="31.1476238351"><ele>48.29</ele><time>2026-09-01T01:42:39Z</time></trkpt><trkpt lat="59.5092866197" lon="31.1477432773"><ele>48.08</ele><time>2026-09-01T01:43:05Z</time></trkpt><trkpt lat="59.5092307962" lon="31.1479239911"><ele>49.20</ele><time>2026-09-01T01:43:26Z</time></trkpt><trkpt lat="59.5091030560" lon="31.1480696686"><ele>50.42</ele><time>2026-09-01T01:44:17Z</time></trkpt><trkpt lat="59.5090467297" lon="31.1481567565"><ele>48.97</ele><time>2026-09-01T01:44:43Z</time></trkpt><trkpt lat="59.5090354979" lon="31.1482548248"><ele>49.78</ele><time>2026-09-01T01:45:12Z</time></trkpt><trkpt lat="59.5089067519" lon="31.1484651268"><ele>49.86</ele><time>2026-09-01T01:45:33Z</time></trkpt><trkpt lat="59.5087662712" lon="31.1487113871"><ele>51.93</ele><time>2026-09-01T01:45:52Z</time></trkpt><trkpt lat="59.5086962823" lon="31.1488484312"><ele>52.23</ele><time>2026-09-01T01:46:26Z</time></trkpt><trkpt lat="59.5085772593" lon="31.1490502674"><ele>53.78</ele><time>2026-09-01T01:46:52Z</time></trkpt><trkpt lat="59.5084541291" lon="31.1493122857"><ele>53.95</ele><time>2026-09-01T01:47:13Z</time></trkpt><trkpt lat="59.5083043445" lon="31.1496194825"><ele>52.59</ele><time>2026-09-01T01:47:41Z</time></trkpt><trkpt lat="59.5081905182" lon="31.1498926487"><ele>52.89</ele><time>2026-09-01T01:48:12Z</time></trkpt><trkpt lat="59.5080992393" lon="31.1501171999"><ele>52.42</ele><time>2026-09-01T01:48:50Z</time></trkpt><trkpt lat="59.5079021808" lon="31.1504516378"><ele>53.04</ele><time>2026-09-01T01:49:09Z</time></trkpt><trkpt lat="59.5077992510" lon="31.1506886780"><ele>54.00</ele><time>2026-09-01T01:49:32Z</time></trkpt><trkpt lat="59.5077196229" lon="31.1508033425"><ele>54.45</ele><time>2026-09-01T01:50:01Z</time></trkpt><trkpt lat="59.5075102430" lon="31.1511425581"><ele>51.91</ele><time>2026-09-01T01:50:24Z</time></trkpt><trkpt lat="59.5074049663" lon="31.1512525287"><ele>51.79</ele><time>2026-09-01T01:50:47Z</time></trkpt><trkpt lat="59.5073284395" lon="31.1514393613"><ele>52.25</ele><time>2026-09-01T01:51:02Z</time></trkpt><trkpt lat="59.5071994420" lon="31.1516791675"><ele>52.80</ele><time>2026-09-01T01:51:22Z</time></trkpt><trkpt lat="59.5071225800" lon="31.1518246774"><ele>52.93</ele><time>2026-09-01T01:51:45Z</time></trkpt><trkpt lat="59.5070293732" lon="31.1519957520"><ele>52.51</ele><time>2026-09-01T01:52:03Z</time></trkpt><trkpt lat="59.5069258567" lon="31.1521805730"><ele>53.95</ele><time>2026-09-01T01:52:25Z</time></trkpt><trkpt lat="59.5068826899" lon="31.1522482987"><ele>52.78</ele><time>2026-09-01T01:52:43Z</time></trkpt><trkpt lat="59.5069112722" lon="31.1522129271"><ele>51.34</ele><time>2026-09-01T01:53:00Z</time></trkpt><trkpt lat="59.5068323985" lon="31.1524073873"><ele>51.56</ele><time>2026-09-01T01:53:35Z</time></trkpt><trkpt lat="59.5067975298" lon="31.1524912901"><ele>50.04</ele><time>2026-09-01T01:54:07Z</time></trkpt><trkpt lat="59.5067827776" lon="31.1525424197"><ele>50.60</ele><time>2026-09-01T01:54:40Z</time></trkpt><trkpt lat="59.5067732222" lon="31.1525521427"><ele>50.76</ele><time>2026-09-01T01:55:09Z</time></trkpt><trkpt lat="59.5067348331" lon="31.1525452696"><ele>50.11</ele><time>2026-09-01T01:55:27Z</time></trkpt><trkpt lat="59.5066613238" lon="31.1526479479"><ele>49.58</ele><time>2026-09-01T01:55:44Z</time></trkpt><trkpt lat="59.5066327415" lon="31.1527794600"><ele>49.58</ele><time>2026-09-01T01:56:12Z</time></trkpt><trkpt lat="59.5065386966" lon="31.1529359501"><ele>49.95</ele><time>2026-09-01T01:56:38Z</time></trkpt><trkpt lat="59.5065084379" lon="31.1530151591"><ele>49.84</ele><time>2026-09-01T01:57:03Z</time></trkpt><trkpt lat="59.5064262953" lon="31.1531084497"><ele>50.92</ele><time>2026-09-01T01:57:24Z</time></trkpt><trkpt lat="59.5063402969" lon="31.1533061787"><ele>51.05</ele><time>2026-09-01T01:57:51Z</time></trkpt><trkpt lat="59.5062554721" lon="31.1535026506"><ele>51.01</ele><time>2026-09-01T01:58:25Z</time></trkpt><trkpt lat="59.5061796997" lon="31.1534484196"><ele>52.32</ele><time>2026-09-01T01:58:50Z</time></trkpt><trkpt lat="59.5061570685" lon="31.1534795165"><ele>51.20</ele><time>2026-09-01T01:59:15Z</time></trkpt><trkpt lat="59.5061741676" lon="31.1535404529"><ele>52.48</ele><time>2026-09-01T02:00:17Z</time></trkpt><trkpt lat="59.5061643608" lon="31.1535968632"><ele>52.50</ele><time>2026-09-01T02:00:43Z</time></trkpt><trkpt lat="59.5061507821" lon="31.1536227632"><ele>51.03</ele><time>2026-09-01T02:01:14Z</time></trkpt><trkpt lat="59.5061166678" lon="31.1536782514"><ele>49.98</ele><time>2026-09-01T02:01:56Z</time></trkpt><trkpt lat="59.5061333477" lon="31.1536803469"><ele>49.51</ele><time>2026-09-01T02:02:40Z</time></trkpt><trkpt lat="59.5060976408" lon="31.1537574604"><ele>49.35</ele><time>2026-09-01T02:03:06Z</time></trkpt><trkpt lat="59.5060588326" lon="31.1537987832"><ele>49.34</ele><time>2026-09-01T02:03:26Z</time></trkpt><trkpt lat="59.5059649553" lon="31.1538777407"><ele>49.87</ele><time>2026-09-01T02:03:46Z</time></trkpt><trkpt lat="59.5059524663" lon="31.1539536808"><ele>47.49</ele><time>2026-09-01T02:04:00Z</time></trkpt><trkpt lat="59.5058986545" lon="31.1540277768"><ele>47.90</ele><time>2026-09-01T02:04:16Z</time></trkpt><trkpt lat="59.5058607683" lon="31.1540830974"><ele>46.28</ele><time>2026-09-01T02:04:38Z</time></trkpt><trkpt lat="59.5058379695" lon="31.1541225761"><ele>46.92</ele><time>2026-09-01T02:04:51Z</time></trkpt><trkpt lat="59.5057881810" lon="31.1542598717"><ele>48.23</ele><time>2026-09-01T02:05:11Z</time></trkpt><trkpt lat="59.5057602692" lon="31.1544247437"><ele>46.16</ele><time>2026-09-01T02:05:30Z</time></trkpt><trkpt lat="59.5057198685" lon="31.1544969957"><ele>46.85</ele><time>2026-09-01T02:05:54Z</time></trkpt><trkpt lat="59.5056980755" lon="31.1544737779"><ele>45.22</ele><time>2026-09-01T02:06:15Z</time></trkpt><trkpt lat="59.5056187827" lon="31.1545388214"><ele>46.07</ele><time>2026-09-01T02:06:41Z</time></trkpt><trkpt lat="59.5055921283" lon="31.1546915397"><ele>47.74</ele><time>2026-09-01T02:07:07Z</time></trkpt><trkpt lat="59.5055348799" lon="31.1548166815"><ele>50.69</ele><time>2026-09-01T02:07:35Z</time></trkpt><trkpt lat="59.5055316947" lon="31.1548116524"><ele>51.25</ele><time>2026-09-01T02:08:21Z</time></trkpt><trkpt lat="59.5055138413" lon="31.1547617801"><ele>49.43</ele><time>2026-09-01T02:08:54Z</time></trkpt><trkpt lat="59.5055054594" lon="31.1548163462"><ele>50.47</ele><time>2026-09-01T02:09:19Z</time></trkpt><trkpt lat="59.5054614544" lon="31.1548867542"><ele>52.29</ele><time>2026-09-01T02:09:39Z</time></trkpt><trkpt lat="59.5053811558" lon="31.1549156718"><ele>53.48</ele><time>2026-09-01T02:10:07Z</time></trkpt><trkpt lat="59.5053314511" lon="31.1550177634"><ele>52.75</ele><time>2026-09-01T02:10:32Z</time></trkpt><trkpt lat="59.5053350553" lon="31.1551851500"><ele>51.79</ele><time>2026-09-01T02:10:49Z</time></trkpt><trkpt lat="59.5052550919" lon="31.1552443262"><ele>53.06</ele><time>2026-09-01T02:11:08Z</time></trkpt><trkpt lat="59.5052091591" lon="31.1553925183"><ele>52.94</ele><time>2026-09-01T02:11:24Z</time></trkpt><trkpt lat="59.5051672496" lon="31.1554564722"><ele>51.10</ele><time>2026-09-01T02:11:44Z</time></trkpt><trkpt lat="59.5051283576" lon="31.1554610822"><ele>50.68</ele><time>2026-09-01T02:12:03Z</time></trkpt><trkpt lat="59.5051074866" lon="31.1554884911"><ele>50.56</ele><time>2026-09-01T02:12:21Z</time></trkpt><trkpt lat="59.5050513279" lon="31.1555606592"><ele>50.07</ele><time>2026-09-01T02:12:38Z</time></trkpt><trkpt lat="59.5050311275" lon="31.1556440592"><ele>49.60</ele><time>2026-09-01T02:13:05Z</time></trkpt><trkpt lat="59.5050439518" lon="31.1555787642"><ele>50.40</ele><time>2026-09-01T02:13:36Z</time></trkpt><trkpt lat="59.5050279424" lon="31.1556500942"><ele>47.79</ele><time>2026-09-01T02:14:08Z</time></trkpt><trkpt lat="59.5050093345" lon="31.1556747369"><ele>47.98</ele><time>2026-09-01T02:14:43Z</time></trkpt><trkpt lat="59.5049870387" lon="31.1556621641"><ele>48.04</ele><time>2026-09-01T02:15:17Z</time></trkpt><trkpt lat="59.5049420279" lon="31.1557442229"><ele>48.45</ele><time>2026-09-01T02:15:43Z</time></trkpt><trkpt lat="59.5049486496" lon="31.1558409501"><ele>48.98</ele><time>2026-09-01T02:16:03Z</time></trkpt><trkpt lat="59.5049397647" lon="31.1559441313"><ele>49.17</ele><time>2026-09-01T02:16:22Z</time></trkpt><trkpt lat="59.5049055666" lon="31.1560395174"><ele>49.02</ele><time>2026-09-01T02:16:46Z</time></trkpt><trkpt lat="59.5048337337" lon="31.1561118532"><ele>48.91</ele><time>2026-09-01T02:17:11Z</time></trkpt><trkpt lat="59.5047493279" lon="31.1561850272"><ele>48.67</ele><time>2026-09-01T02:17:45Z</time></trkpt><trkpt lat="59.5046915766" lon="31.1562713608"><ele>49.08</ele><time>2026-09-01T02:18:03Z</time></trkpt><trkpt lat="59.5047196560" lon="31.1562362406"><ele>48.64</ele><time>2026-09-01T02:18:19Z</time></trkpt><trkpt lat="59.5047242660" lon="31.1562546808"><ele>50.42</ele><time>2026-09-01T02:18:42Z</time></trkpt><trkpt lat="59.5046956837" lon="31.1562916450"><ele>51.20</ele><time>2026-09-01T02:19:15Z</time></trkpt><trkpt lat="59.5046777464" lon="31.1562867835"><ele>51.30</ele><time>2026-09-01T02:20:07Z</time></trkpt><trkpt lat="59.5047009643" lon="31.1563154496"><ele>47.47</ele><time>2026-09-01T02:21:20Z</time></trkpt><trkpt lat="59.5047040656" lon="31.1563162878"><ele>46.09</ele><time>2026-09-01T02:21:43Z</time></trkpt><trkpt lat="59.5046831947" lon="31.1562572792"><ele>45.94</ele><time>2026-09-01T02:22:05Z</time></trkpt><trkpt lat="59.5046570431" lon="31.1561815906"><ele>48.69</ele><time>2026-09-01T02:22:24Z</time></trkpt><trkpt lat="59.5046196599" lon="31.1561493203"><ele>49.91</ele><time>2026-09-01T02:22:43Z</time></trkpt><trkpt lat="59.5047202427" lon="31.1561119370"><ele>49.75</ele><time>2026-09-01T02:23:15Z</time></trkpt><trkpt lat="59.5047674328" lon="31.1562307924"><ele>49.67</ele><time>2026-09-01T02:23:32Z</time></trkpt><trkpt lat="59.5047187340" lon="31.1563859414"><ele>50.89</ele><time>2026-09-01T02:23:55Z</time></trkpt><trkpt lat="59.5046046562" lon="31.1564350594"><ele>52.38</ele><time>2026-09-01T02:24:10Z</time></trkpt><trkpt lat="59.5045745652" lon="31.1566010211"><ele>54.30</ele><time>2026-09-01T02:24:42Z</time></trkpt><trkpt lat="59.5045724697" lon="31.1567533202"><ele>51.66</ele><time>2026-09-01T02:24:59Z</time></trkpt><trkpt lat="59.5046023931" lon="31.1568424199"><ele>51.39</ele><time>2026-09-01T02:25:27Z</time></trkpt><trkpt lat="59.5046093501" lon="31.1569257360"><ele>51.25</ele><time>2026-09-01T02:25:42Z</time></trkpt><trkpt lat="59.5045554545" lon="31.1569478642"><ele>50.21</ele><time>2026-09-01T02:25:58Z</time></trkpt><trkpt lat="59.5045223460" lon="31.1571180169"><ele>51.32</ele><time>2026-09-01T02:26:18Z</time></trkpt><trkpt lat="59.5044524409" lon="31.1571992375"><ele>51.24</ele><time>2026-09-01T02:26:38Z</time></trkpt><trkpt lat="59.5043953601" lon="31.1573540512"><ele>51.46</ele><time>2026-09-01T02:26:57Z</time></trkpt><trkpt lat="59.5042997226" lon="31.1574799474"><ele>53.84</ele><time>2026-09-01T02:27:16Z</time></trkpt><trkpt lat="59.5042768400" lon="31.1575479247"><ele>53.90</ele><time>2026-09-01T02:27:38Z</time></trkpt><trkpt lat="59.5042310748" lon="31.1576027423"><ele>53.31</ele><time>2026-09-01T02:27:49Z</time></trkpt><trkpt lat="59.5041751675" lon="31.1576705519"><ele>53.37</ele><time>2026-09-01T02:28:03Z</time></trkpt><trkpt lat="59.5041608345" lon="31.1577604897"><ele>52.38</ele><time>2026-09-01T02:28:25Z</time></trkpt><trkpt lat="59.5040685497" lon="31.1579385214"><ele>53.33</ele><time>2026-09-01T02:28:46Z</time></trkpt><trkpt lat="59.5040349383" lon="31.1580103543"><ele>51.74</ele><time>2026-09-01T02:29:22Z</time></trkpt><trkpt lat="59.5040264726" lon="31.1579952668"><ele>49.85</ele><time>2026-09-01T02:30:03Z</time></trkpt><trkpt lat="59.5040366985" lon="31.1579271220"><ele>49.74</ele><time>2026-09-01T02:30:36Z</time></trkpt><trkpt lat="59.5039884187" lon="31.1580494978"><ele>51.46</ele><time>2026-09-01T02:31:08Z</time></trkpt><trkpt lat="59.5039488561" lon="31.1581785791"><ele>51.39</ele><time>2026-09-01T02:31:33Z</time></trkpt><trkpt lat="59.5039067790" lon="31.1583316326"><ele>52.28</ele><time>2026-09-01T02:32:05Z</time></trkpt><trkpt lat="59.5038095489" lon="31.1584795732"><ele>51.99</ele><time>2026-09-01T02:32:32Z</time></trkpt><trkpt lat="59.5037016738" lon="31.1586378235"><ele>51.10</ele><time>2026-09-01T02:32:59Z</time></trkpt><trkpt lat="59.5036192797" lon="31.1588112451"><ele>50.47</ele><time>2026-09-01T02:33:53Z</time></trkpt><trkpt lat="59.5035424177" lon="31.1589844991"><ele>49.83</ele><time>2026-09-01T02:34:15Z</time></trkpt><trkpt lat="59.5034422539" lon="31.1591234710"><ele>50.10</ele><time>2026-09-01T02:34:35Z</time></trkpt><trkpt lat="59.5033040363" lon="31.1593808793"><ele>51.12</ele><time>2026-09-01T02:35:06Z</time></trkpt><trkpt lat="59.5032111648" lon="31.1594924424"><ele>50.16</ele><time>2026-09-01T02:35:28Z</time></trkpt><trkpt lat="59.5031622984" lon="31.1595799495"><ele>49.14</ele><time>2026-09-01T02:35:42Z</time></trkpt><trkpt lat="59.5030962490" lon="31.1596372817"><ele>48.55</ele><time>2026-09-01T02:35:59Z</time></trkpt><trkpt lat="59.5030665770" lon="31.1597569752"><ele>47.47</ele><time>2026-09-01T02:36:23Z</time></trkpt><trkpt lat="59.5030285232" lon="31.1598003935"><ele>47.22</ele><time>2026-09-01T02:36:48Z</time></trkpt><trkpt lat="59.5030583628" lon="31.1596502736"><ele>50.18</ele><time>2026-09-01T02:37:19Z</time></trkpt><trkpt lat="59.5030130167" lon="31.1595993955"><ele>55.29</ele><time>2026-09-01T02:38:03Z</time></trkpt><trkpt lat="59.5030353963" lon="31.1596060172"><ele>56.31</ele><time>2026-09-01T02:38:20Z</time></trkpt><trkpt lat="59.5030655712" lon="31.1596476752"><ele>54.16</ele><time>2026-09-01T02:38:35Z</time></trkpt><trkpt lat="59.5030722767" lon="31.1596028320"><ele>54.22</ele><time>2026-09-01T02:39:09Z</time></trkpt><trkpt lat="59.5030549262" lon="31.1595772672"><ele>54.32</ele><time>2026-09-01T02:39:38Z</time></trkpt><trkpt lat="59.5030946564" lon="31.1596568953"><ele>52.81</ele><time>2026-09-01T02:40:05Z</time></trkpt><trkpt lat="59.5030839276" lon="31.1597031634"><ele>51.84</ele><time>2026-09-01T02:40:47Z</time></trkpt><trkpt lat="59.5031100791" lon="31.1596946977"><ele>47.92</ele><time>2026-09-01T02:41:40Z</time></trkpt><trkpt lat="59.5031237416" lon="31.1597119644"><ele>47.94</ele><time>2026-09-01T02:41:59Z</time></trkpt><trkpt lat="59.5030719414" lon="31.1597873177"><ele>48.51</ele><time>2026-09-01T02:42:38Z</time></trkpt><trkpt lat="59.5032316167" lon="31.1597215198"><ele>16.76</ele><time>2026-09-01T02:46:39Z</time></trkpt><trkpt lat="59.5032347180" lon="31.1597223580"><ele>17.21</ele><time>2026-09-01T02:46:58Z</time></trkpt><trkpt lat="59.5032521524" lon="31.1597726494"><ele>27.46</ele><time>2026-09-01T02:47:18Z</time></trkpt><trkpt lat="59.5032609534" lon="31.1598016508"><ele>34.06</ele><time>2026-09-01T02:47:35Z</time></trkpt><trkpt lat="59.5032462850" lon="31.1597817857"><ele>37.63</ele><time>2026-09-01T02:47:52Z</time></trkpt><trkpt lat="59.5032421779" lon="31.1598186661"><ele>34.38</ele><time>2026-09-01T02:48:24Z</time></trkpt><trkpt lat="59.5032427646" lon="31.1598827876"><ele>44.23</ele><time>2026-09-01T02:48:47Z</time></trkpt><trkpt lat="59.5032581873" lon="31.1599668581"><ele>43.67</ele><time>2026-09-01T02:49:06Z</time></trkpt><trkpt lat="59.5032693353" lon="31.1600972805"><ele>45.36</ele><time>2026-09-01T02:49:19Z</time></trkpt><trkpt lat="59.5033652242" lon="31.1601763219"><ele>45.17</ele><time>2026-09-01T02:49:32Z</time></trkpt><trkpt lat="59.5033384860" lon="31.1602672655"><ele>44.68</ele><time>2026-09-01T02:49:46Z</time></trkpt><trkpt lat="59.5033673197" lon="31.1603396852"><ele>45.21</ele><time>2026-09-01T02:49:57Z</time></trkpt><trkpt lat="59.5033799764" lon="31.1604886316"><ele>44.66</ele><time>2026-09-01T02:50:11Z</time></trkpt><trkpt lat="59.5033870172" lon="31.1606485583"><ele>45.34</ele><time>2026-09-01T02:50:21Z</time></trkpt><trkpt lat="59.5034456905" lon="31.1606989335"><ele>43.88</ele><time>2026-09-01T02:50:35Z</time></trkpt><trkpt lat="59.5035331976" lon="31.1609183718"><ele>42.86</ele><time>2026-09-01T02:50:47Z</time></trkpt><trkpt lat="59.5035666414" lon="31.1610735208"><ele>44.51</ele><time>2026-09-01T02:51:00Z</time></trkpt><trkpt lat="59.5036169328" lon="31.1611724272"><ele>44.41</ele><time>2026-09-01T02:51:12Z</time></trkpt><trkpt lat="59.5036975667" lon="31.1612487864"><ele>45.69</ele><time>2026-09-01T02:51:26Z</time></trkpt><trkpt lat="59.5037701540" lon="31.1613039393"><ele>45.62</ele><time>2026-09-01T02:51:45Z</time></trkpt><trkpt lat="59.5038801245" lon="31.1614364572"><ele>45.90</ele><time>2026-09-01T02:52:01Z</time></trkpt><trkpt lat="59.5039924420" lon="31.1615253892"><ele>45.13</ele><time>2026-09-01T02:52:15Z</time></trkpt><trkpt lat="59.5040764287" lon="31.1616897583"><ele>46.65</ele><time>2026-09-01T02:52:31Z</time></trkpt><trkpt lat="59.5041812863" lon="31.1617861502"><ele>45.74</ele><time>2026-09-01T02:52:48Z</time></trkpt><trkpt lat="59.5042868983" lon="31.1617491860"><ele>46.21</ele><time>2026-09-01T02:53:06Z</time></trkpt><trkpt lat="59.5043913368" lon="31.1616531294"><ele>46.45</ele><time>2026-09-01T02:53:18Z</time></trkpt><trkpt lat="59.5044433884" lon="31.1616542190"><ele>44.82</ele><time>2026-09-01T02:53:38Z</time></trkpt><trkpt lat="59.5044934284" lon="31.1616356950"><ele>47.19</ele><time>2026-09-01T02:54:03Z</time></trkpt><trkpt lat="59.5044712164" lon="31.1616165843"><ele>47.29</ele><time>2026-09-01T02:54:40Z</time></trkpt><trkpt lat="59.5044585597" lon="31.1615839787"><ele>49.44</ele><time>2026-09-01T02:55:38Z</time></trkpt><trkpt lat="59.5044599846" lon="31.1615786981"><ele>49.44</ele><time>2026-09-01T02:55:41Z</time></trkpt><trkpt lat="59.5045065880" lon="31.1616209429"><ele>52.39</ele><time>2026-09-01T02:55:56Z</time></trkpt><trkpt lat="59.5045897365" lon="31.1616228707"><ele>52.68</ele><time>2026-09-01T02:56:15Z</time></trkpt><trkpt lat="59.5046110265" lon="31.1615495291"><ele>52.31</ele><time>2026-09-01T02:56:36Z</time></trkpt><trkpt lat="59.5047275349" lon="31.1614108924"><ele>51.76</ele><time>2026-09-01T02:56:59Z</time></trkpt><trkpt lat="59.5047940873" lon="31.1613424961"><ele>52.33</ele><time>2026-09-01T02:57:22Z</time></trkpt><trkpt lat="59.5047827717" lon="31.1611761991"><ele>51.34</ele><time>2026-09-01T02:57:42Z</time></trkpt><trkpt lat="59.5048348233" lon="31.1609692499"><ele>51.05</ele><time>2026-09-01T02:57:58Z</time></trkpt><trkpt lat="59.5048242621" lon="31.1607192177"><ele>51.02</ele><time>2026-09-01T02:58:16Z</time></trkpt><trkpt lat="59.5048392657" lon="31.1605109274"><ele>50.82</ele><time>2026-09-01T02:58:35Z</time></trkpt><trkpt lat="59.5048682671" lon="31.1603920721"><ele>50.13</ele><time>2026-09-01T02:58:52Z</time></trkpt><trkpt lat="59.5049189776" lon="31.1604046449"><ele>49.71</ele><time>2026-09-01T02:59:10Z</time></trkpt><trkpt lat="59.5049881283" lon="31.1604285333"><ele>49.14</ele><time>2026-09-01T02:59:24Z</time></trkpt><trkpt lat="59.5050899684" lon="31.1605388392"><ele>48.79</ele><time>2026-09-01T02:59:44Z</time></trkpt><trkpt lat="59.5051980950" lon="31.1604983546"><ele>48.19</ele><time>2026-09-01T02:59:58Z</time></trkpt><trkpt lat="59.5052506495" lon="31.1603648309"><ele>50.09</ele><time>2026-09-01T03:00:16Z</time></trkpt><trkpt lat="59.5053427666" lon="31.1601778306"><ele>50.25</ele><time>2026-09-01T03:00:44Z</time></trkpt><trkpt lat="59.5054072235" lon="31.1599902436"><ele>49.92</ele><time>2026-09-01T03:01:00Z</time></trkpt><trkpt lat="59.5055007655" lon="31.1599953566"><ele>49.30</ele><time>2026-09-01T03:01:30Z</time></trkpt><trkpt lat="59.5056671463" lon="31.1600763258"><ele>48.82</ele><time>2026-09-01T03:01:50Z</time></trkpt><trkpt lat="59.5057900250" lon="31.1601184867"><ele>48.21</ele><time>2026-09-01T03:02:04Z</time></trkpt><trkpt lat="59.5059633628" lon="31.1599949375"><ele>48.19</ele><time>2026-09-01T03:02:21Z</time></trkpt><trkpt lat="59.5060943719" lon="31.1600492522"><ele>49.17</ele><time>2026-09-01T03:02:44Z</time></trkpt><trkpt lat="59.5061943680" lon="31.1600559577"><ele>48.60</ele><time>2026-09-01T03:03:06Z</time></trkpt><trkpt lat="59.5062401332" lon="31.1601009686"><ele>49.28</ele><time>2026-09-01T03:03:32Z</time></trkpt><trkpt lat="59.5063783508" lon="31.1602694448"><ele>48.81</ele><time>2026-09-01T03:03:53Z</time></trkpt><trkpt lat="59.5065104496" lon="31.1604151223"><ele>49.32</ele><time>2026-09-01T03:04:12Z</time></trkpt><trkpt lat="59.5065784268" lon="31.1603102647"><ele>48.77</ele><time>2026-09-01T03:04:34Z</time></trkpt><trkpt lat="59.5067017246" lon="31.1603703629"><ele>48.97</ele><time>2026-09-01T03:04:50Z</time></trkpt><trkpt lat="59.5068433788" lon="31.1604571994"><ele>49.32</ele><time>2026-09-01T03:05:08Z</time></trkpt><trkpt lat="59.5069235936" lon="31.1604197323"><ele>49.29</ele><time>2026-09-01T03:05:40Z</time></trkpt><trkpt lat="59.5069516730" lon="31.1602987815"><ele>46.17</ele><time>2026-09-01T03:05:57Z</time></trkpt><trkpt lat="59.5070645772" lon="31.1600397807"><ele>46.42</ele><time>2026-09-01T03:06:18Z</time></trkpt><trkpt lat="59.5072039682" lon="31.1600754876"><ele>49.73</ele><time>2026-09-01T03:06:44Z</time></trkpt><trkpt lat="59.5073847659" lon="31.1602817662"><ele>49.39</ele><time>2026-09-01T03:07:13Z</time></trkpt><trkpt lat="59.5074695908" lon="31.1602732167"><ele>49.12</ele><time>2026-09-01T03:07:38Z</time></trkpt><trkpt lat="59.5075589418" lon="31.1602508370"><ele>49.79</ele><time>2026-09-01T03:07:51Z</time></trkpt><trkpt lat="59.5076711755" lon="31.1603789963"><ele>50.30</ele><time>2026-09-01T03:08:14Z</time></trkpt><trkpt lat="59.5077859238" lon="31.1604538467"><ele>50.41</ele><time>2026-09-01T03:08:31Z</time></trkpt><trkpt lat="59.5078818966" lon="31.1605530884"><ele>50.49</ele><time>2026-09-01T03:08:53Z</time></trkpt><trkpt lat="59.5079979859" lon="31.1607271805"><ele>51.61</ele><time>2026-09-01T03:09:10Z</time></trkpt><trkpt lat="59.5080781169" lon="31.1607814953"><ele>51.20</ele><time>2026-09-01T03:09:25Z</time></trkpt><trkpt lat="59.5081816334" lon="31.1608800665"><ele>51.24</ele><time>2026-09-01T03:09:54Z</time></trkpt><trkpt lat="59.5082194358" lon="31.1609690823"><ele>50.08</ele><time>2026-09-01T03:10:10Z</time></trkpt><trkpt lat="59.5083357766" lon="31.1611335352"><ele>49.15</ele><time>2026-09-01T03:10:39Z</time></trkpt><trkpt lat="59.5085197594" lon="31.1613075435"><ele>49.09</ele><time>2026-09-01T03:10:55Z</time></trkpt><trkpt lat="59.5086257905" lon="31.1614239682"><ele>48.91</ele><time>2026-09-01T03:11:10Z</time></trkpt><trkpt lat="59.5088178199" lon="31.1613811366"><ele>49.25</ele><time>2026-09-01T03:11:43Z</time></trkpt><trkpt lat="59.5088889822" lon="31.1614105571"><ele>48.45</ele><time>2026-09-01T03:11:59Z</time></trkpt><trkpt lat="59.5090148784" lon="31.1615992337"><ele>48.66</ele><time>2026-09-01T03:12:15Z</time></trkpt><trkpt lat="59.5091417804" lon="31.1616041791"><ele>48.91</ele><time>2026-09-01T03:12:30Z</time></trkpt><trkpt lat="59.5092484821" lon="31.1615731660"><ele>49.17</ele><time>2026-09-01T03:12:43Z</time></trkpt><trkpt lat="59.5093587879" lon="31.1615734175"><ele>49.18</ele><time>2026-09-01T03:13:01Z</time></trkpt><trkpt lat="59.5094665792" lon="31.1614816356"><ele>49.52</ele><time>2026-09-01T03:13:17Z</time></trkpt><trkpt lat="59.5095479675" lon="31.1614127364"><ele>49.45</ele><time>2026-09-01T03:13:33Z</time></trkpt><trkpt lat="59.5096549205" lon="31.1614381336"><ele>50.42</ele><time>2026-09-01T03:13:46Z</time></trkpt><trkpt lat="59.5097191259" lon="31.1614374630"><ele>49.95</ele><time>2026-09-01T03:13:59Z</time></trkpt><trkpt lat="59.5096884482" lon="31.1613648757"><ele>46.18</ele><time>2026-09-01T03:14:15Z</time></trkpt><trkpt lat="59.5096954890" lon="31.1613315996"><ele>45.87</ele><time>2026-09-01T03:14:44Z</time></trkpt><trkpt lat="59.5097330399" lon="31.1610796396"><ele>45.86</ele><time>2026-09-01T03:15:07Z</time></trkpt><trkpt lat="59.5098255761" lon="31.1607707664"><ele>45.86</ele><time>2026-09-01T03:15:25Z</time></trkpt><trkpt lat="59.5099218842" lon="31.1607899610"><ele>46.50</ele><time>2026-09-01T03:15:56Z</time></trkpt><trkpt lat="59.5099519752" lon="31.1608365644"><ele>48.17</ele><time>2026-09-01T03:16:20Z</time></trkpt><trkpt lat="59.5099435933" lon="31.1608447786"><ele>48.18</ele><time>2026-09-01T03:16:42Z</time></trkpt><trkpt lat="59.5099804737" lon="31.1609576829"><ele>49.96</ele><time>2026-09-01T03:17:01Z</time></trkpt><trkpt lat="59.5100343693" lon="31.1609300226"><ele>50.53</ele><time>2026-09-01T03:17:08Z</time></trkpt><trkpt lat="59.5101035200" lon="31.1608000193"><ele>50.15</ele><time>2026-09-01T03:17:20Z</time></trkpt><trkpt lat="59.5102294162" lon="31.1607250851"><ele>50.23</ele><time>2026-09-01T03:17:33Z</time></trkpt><trkpt lat="59.5102854911" lon="31.1607862730"><ele>50.24</ele><time>2026-09-01T03:17:46Z</time></trkpt><trkpt lat="59.5103370398" lon="31.1606698483"><ele>49.11</ele><time>2026-09-01T03:18:08Z</time></trkpt><trkpt lat="59.5103908516" lon="31.1605534237"><ele>48.70</ele><time>2026-09-01T03:18:21Z</time></trkpt><trkpt lat="59.5104437415" lon="31.1604862846"><ele>47.28</ele><time>2026-09-01T03:18:35Z</time></trkpt><trkpt lat="59.5105164964" lon="31.1605390906"><ele>47.02</ele><time>2026-09-01T03:18:50Z</time></trkpt><trkpt lat="59.5106047578" lon="31.1605286971"><ele>47.05</ele><time>2026-09-01T03:19:05Z</time></trkpt><trkpt lat="59.5106908400" lon="31.1605075747"><ele>47.12</ele><time>2026-09-01T03:19:20Z</time></trkpt><trkpt lat="59.5107828733" lon="31.1604586244"><ele>47.33</ele><time>2026-09-01T03:19:38Z</time></trkpt><trkpt lat="59.5108772535" lon="31.1604516674"><ele>47.49</ele><time>2026-09-01T03:19:57Z</time></trkpt><trkpt lat="59.5109968632" lon="31.1604347359"><ele>47.87</ele><time>2026-09-01T03:20:11Z</time></trkpt><trkpt lat="59.5110899862" lon="31.1604771484"><ele>47.78</ele><time>2026-09-01T03:20:25Z</time></trkpt><trkpt lat="59.5111554489" lon="31.1604336463"><ele>48.64</ele><time>2026-09-01T03:20:40Z</time></trkpt><trkpt lat="59.5112127811" lon="31.1603319738"><ele>48.00</ele><time>2026-09-01T03:20:52Z</time></trkpt><trkpt lat="59.5113302954" lon="31.1602642480"><ele>48.57</ele><time>2026-09-01T03:21:04Z</time></trkpt><trkpt lat="59.5113768987" lon="31.1602073349"><ele>47.99</ele><time>2026-09-01T03:21:20Z</time></trkpt><trkpt lat="59.5115384180" lon="31.1602527648"><ele>47.84</ele><time>2026-09-01T03:21:34Z</time></trkpt><trkpt lat="59.5116341393" lon="31.1602301337"><ele>49.95</ele><time>2026-09-01T03:21:47Z</time></trkpt><trkpt lat="59.5117089897" lon="31.1602053232"><ele>49.83</ele><time>2026-09-01T03:22:01Z</time></trkpt><trkpt lat="59.5117638912" lon="31.1603420321"><ele>49.15</ele><time>2026-09-01T03:22:16Z</time></trkpt><trkpt lat="59.5118486322" lon="31.1603953410"><ele>49.15</ele><time>2026-09-01T03:22:32Z</time></trkpt><trkpt lat="59.5119770430" lon="31.1603859533"><ele>50.06</ele><time>2026-09-01T03:22:55Z</time></trkpt><trkpt lat="59.5120016858" lon="31.1603935808"><ele>48.57</ele><time>2026-09-01T03:23:01Z</time></trkpt><trkpt lat="59.5120693278" lon="31.1605146993"><ele>48.45</ele><time>2026-09-01T03:23:16Z</time></trkpt><trkpt lat="59.5120945573" lon="31.1605580337"><ele>48.80</ele><time>2026-09-01T03:23:35Z</time></trkpt><trkpt lat="59.5120945573" lon="31.1606845167"><ele>49.65</ele><time>2026-09-01T03:23:51Z</time></trkpt><trkpt lat="59.5121362992" lon="31.1608114187"><ele>49.13</ele><time>2026-09-01T03:24:03Z</time></trkpt><trkpt lat="59.5121481176" lon="31.1607633904"><ele>45.13</ele><time>2026-09-01T03:24:13Z</time></trkpt><trkpt lat="59.5121486206" lon="31.1608513165"><ele>47.34</ele><time>2026-09-01T03:24:44Z</time></trkpt><trkpt lat="59.5121841598" lon="31.1609726865"><ele>47.99</ele><time>2026-09-01T03:24:55Z</time></trkpt><trkpt lat="59.5122281648" lon="31.1610949785"><ele>48.42</ele><time>2026-09-01T03:25:09Z</time></trkpt><trkpt lat="59.5122354571" lon="31.1611757800"><ele>48.63</ele><time>2026-09-01T03:25:22Z</time></trkpt><trkpt lat="59.5122717507" lon="31.1612236407"><ele>49.27</ele><time>2026-09-01T03:25:37Z</time></trkpt><trkpt lat="59.5123278257" lon="31.1612106487"><ele>49.06</ele><time>2026-09-01T03:26:10Z</time></trkpt><trkpt lat="59.5124812983" lon="31.1612610240"><ele>49.36</ele><time>2026-09-01T03:26:29Z</time></trkpt><trkpt lat="59.5125483535" lon="31.1613801308"><ele>48.05</ele><time>2026-09-01T03:26:44Z</time></trkpt><trkpt lat="59.5125994831" lon="31.1614826415"><ele>46.49</ele><time>2026-09-01T03:27:01Z</time></trkpt><trkpt lat="59.5126801170" lon="31.1617012415"><ele>47.09</ele><time>2026-09-01T03:27:22Z</time></trkpt><trkpt lat="59.5125876646" lon="31.1619400419"><ele>48.64</ele><time>2026-09-01T03:27:38Z</time></trkpt><trkpt lat="59.5126462542" lon="31.1621653475"><ele>48.36</ele><time>2026-09-01T03:27:54Z</time></trkpt><trkpt lat="59.5127159916" lon="31.1623385176"><ele>47.85</ele><time>2026-09-01T03:28:08Z</time></trkpt><trkpt lat="59.5126934443" lon="31.1623401940"><ele>47.36</ele><time>2026-09-01T03:28:36Z</time></trkpt><trkpt lat="59.5127008203" lon="31.1624206603"><ele>47.44</ele><time>2026-09-01T03:29:00Z</time></trkpt><trkpt lat="59.5128205977" lon="31.1625466403"><ele>47.55</ele><time>2026-09-01T03:29:16Z</time></trkpt><trkpt lat="59.5128550474" lon="31.1626572814"><ele>48.19</ele><time>2026-09-01T03:29:30Z</time></trkpt><trkpt lat="59.5130117889" lon="31.1628309544"><ele>48.62</ele><time>2026-09-01T03:29:50Z</time></trkpt><trkpt lat="59.5131196640" lon="31.1629785597"><ele>49.55</ele><time>2026-09-01T03:30:05Z</time></trkpt><trkpt lat="59.5131902397" lon="31.1630657315"><ele>50.10</ele><time>2026-09-01T03:30:19Z</time></trkpt><trkpt lat="59.5132912416" lon="31.1630033702"><ele>50.94</ele><time>2026-09-01T03:30:35Z</time></trkpt><trkpt lat="59.5133785810" lon="31.1631132569"><ele>50.38</ele><time>2026-09-01T03:30:45Z</time></trkpt><trkpt lat="59.5135142840" lon="31.1632042844"><ele>51.29</ele><time>2026-09-01T03:30:59Z</time></trkpt><trkpt lat="59.5136109274" lon="31.1633510515"><ele>47.99</ele><time>2026-09-01T03:31:12Z</time></trkpt><trkpt lat="59.5137461275" lon="31.1634553224"><ele>47.87</ele><time>2026-09-01T03:31:25Z</time></trkpt><trkpt lat="59.5138916373" lon="31.1636347789"><ele>47.13</ele><time>2026-09-01T03:31:39Z</time></trkpt><trkpt lat="59.5140040386" lon="31.1637996510"><ele>47.10</ele><time>2026-09-01T03:31:52Z</time></trkpt><trkpt lat="59.5140813198" lon="31.1639676243"><ele>47.69</ele><time>2026-09-01T03:32:05Z</time></trkpt><trkpt lat="59.5142037794" lon="31.1641685385"><ele>49.65</ele><time>2026-09-01T03:32:21Z</time></trkpt><trkpt lat="59.5143146720" lon="31.1643256992"><ele>50.63</ele><time>2026-09-01T03:32:38Z</time></trkpt><trkpt lat="59.5144163445" lon="31.1644513439"><ele>51.20</ele><time>2026-09-01T03:32:54Z</time></trkpt><trkpt lat="59.5145131554" lon="31.1645922437"><ele>51.87</ele><time>2026-09-01T03:33:07Z</time></trkpt><trkpt lat="59.5146413986" lon="31.1646632385"><ele>52.60</ele><time>2026-09-01T03:33:21Z</time></trkpt><trkpt lat="59.5147478487" lon="31.1647514999"><ele>53.52</ele><time>2026-09-01T03:33:36Z</time></trkpt><trkpt lat="59.5148989744" lon="31.1648433656"><ele>52.88</ele><time>2026-09-01T03:33:50Z</time></trkpt><trkpt lat="59.5150275528" lon="31.1649664957"><ele>52.63</ele><time>2026-09-01T03:34:03Z</time></trkpt><trkpt lat="59.5151373558" lon="31.1650919728"><ele>52.20</ele><time>2026-09-01T03:34:18Z</time></trkpt><trkpt lat="59.5152057521" lon="31.1651707627"><ele>53.36</ele><time>2026-09-01T03:34:33Z</time></trkpt><trkpt lat="59.5152081829" lon="31.1651950702"><ele>53.20</ele><time>2026-09-01T03:34:35Z</time></trkpt><trkpt lat="59.5153171476" lon="31.1654268298"><ele>51.42</ele><time>2026-09-01T03:34:52Z</time></trkpt><trkpt lat="59.5153990388" lon="31.1656494532"><ele>52.05</ele><time>2026-09-01T03:35:05Z</time></trkpt><trkpt lat="59.5154720452" lon="31.1658139899"><ele>52.17</ele><time>2026-09-01T03:35:18Z</time></trkpt><trkpt lat="59.5155986957" lon="31.1658847332"><ele>52.43</ele><time>2026-09-01T03:35:32Z</time></trkpt><trkpt lat="59.5157670882" lon="31.1659739166"><ele>52.51</ele><time>2026-09-01T03:35:51Z</time></trkpt><trkpt lat="59.5159555972" lon="31.1660978850"><ele>53.01</ele><time>2026-09-01T03:36:11Z</time></trkpt><trkpt lat="59.5160989277" lon="31.1661307421"><ele>53.05</ele><time>2026-09-01T03:36:26Z</time></trkpt><trkpt lat="59.5162232313" lon="31.1661433987"><ele>53.47</ele><time>2026-09-01T03:36:40Z</time></trkpt><trkpt lat="59.5164096449" lon="31.1661889963"><ele>53.97</ele><time>2026-09-01T03:36:57Z</time></trkpt><trkpt lat="59.5165981539" lon="31.1662730668"><ele>53.51</ele><time>2026-09-01T03:37:12Z</time></trkpt><trkpt lat="59.5166871697" lon="31.1661936902"><ele>52.92</ele><time>2026-09-01T03:37:22Z</time></trkpt><trkpt lat="59.5167045202" lon="31.1661891639"><ele>53.22</ele><time>2026-09-01T03:37:24Z</time></trkpt><trkpt lat="59.5168203581" lon="31.1662727315"><ele>54.67</ele><time>2026-09-01T03:37:38Z</time></trkpt><trkpt lat="59.5168284886" lon="31.1662377790"><ele>54.13</ele><time>2026-09-01T03:37:54Z</time></trkpt><trkpt lat="59.5169253834" lon="31.1660437379"><ele>53.18</ele><time>2026-09-01T03:38:09Z</time></trkpt><trkpt lat="59.5170050953" lon="31.1660230346"><ele>53.18</ele><time>2026-09-01T03:38:24Z</time></trkpt><trkpt lat="59.5171937719" lon="31.1659539677"><ele>53.40</ele><time>2026-09-01T03:38:39Z</time></trkpt><trkpt lat="59.5173237752" lon="31.1659425683"><ele>53.71</ele><time>2026-09-01T03:38:54Z</time></trkpt><trkpt lat="59.5174581371" lon="31.1659129802"><ele>54.54</ele><time>2026-09-01T03:39:10Z</time></trkpt><trkpt lat="59.5175777469" lon="31.1659363657"><ele>56.59</ele><time>2026-09-01T03:39:24Z</time></trkpt><trkpt lat="59.5177402720" lon="31.1659783591"><ele>55.53</ele><time>2026-09-01T03:39:41Z</time></trkpt><trkpt lat="59.5178351551" lon="31.1660363618"><ele>56.51</ele><time>2026-09-01T03:39:50Z</time></trkpt><trkpt lat="59.5179663319" lon="31.1661497690"><ele>56.67</ele><time>2026-09-01T03:40:05Z</time></trkpt><trkpt lat="59.5180434454" lon="31.1662904173"><ele>55.02</ele><time>2026-09-01T03:40:18Z</time></trkpt><trkpt lat="59.5180344768" lon="31.1663035769"><ele>53.74</ele><time>2026-09-01T03:40:40Z</time></trkpt><trkpt lat="59.5180570241" lon="31.1662491783"><ele>54.23</ele><time>2026-09-01T03:41:22Z</time></trkpt><trkpt lat="59.5180585328" lon="31.1662207637"><ele>55.06</ele><time>2026-09-01T03:41:44Z</time></trkpt><trkpt lat="59.5180208981" lon="31.1662068497"><ele>54.07</ele><time>2026-09-01T03:42:04Z</time></trkpt><trkpt lat="59.5180163719" lon="31.1662121303"><ele>52.38</ele><time>2026-09-01T03:42:28Z</time></trkpt><trkpt lat="59.5180153660" lon="31.1662187520"><ele>52.07</ele><time>2026-09-01T03:42:51Z</time></trkpt><trkpt lat="59.5180164557" lon="31.1662102863"><ele>50.24</ele><time>2026-09-01T03:43:07Z</time></trkpt><trkpt lat="59.5179567765" lon="31.1661904212"><ele>47.73</ele><time>2026-09-01T03:43:29Z</time></trkpt><trkpt lat="59.5179783180" lon="31.1662289780"><ele>46.77</ele><time>2026-09-01T03:43:51Z</time></trkpt><trkpt lat="59.5179685950" lon="31.1662335880"><ele>46.97</ele><time>2026-09-01T03:44:33Z</time></trkpt><trkpt lat="59.5179607999" lon="31.1662576441"><ele>46.47</ele><time>2026-09-01T03:44:58Z</time></trkpt><trkpt lat="59.5179768931" lon="31.1662108731"><ele>45.44</ele><time>2026-09-01T03:45:30Z</time></trkpt><trkpt lat="59.5180042181" lon="31.1662198417"><ele>45.37</ele><time>2026-09-01T03:45:56Z</time></trkpt><trkpt lat="59.5180326328" lon="31.1662646849"><ele>45.90</ele><time>2026-09-01T03:46:14Z</time></trkpt><trkpt lat="59.5181329641" lon="31.1663599871"><ele>46.91</ele><time>2026-09-01T03:46:24Z</time></trkpt><trkpt lat="59.5182610396" lon="31.1664745677"><ele>48.69</ele><time>2026-09-01T03:46:39Z</time></trkpt><trkpt lat="59.5183364768" lon="31.1665983684"><ele>49.58</ele><time>2026-09-01T03:46:50Z</time></trkpt><trkpt lat="59.5184470341" lon="31.1667296290"><ele>51.02</ele><time>2026-09-01T03:47:04Z</time></trkpt><trkpt lat="59.5185580943" lon="31.1669068225"><ele>50.84</ele><time>2026-09-01T03:47:23Z</time></trkpt><trkpt lat="59.5185649674" lon="31.1669718660"><ele>51.97</ele><time>2026-09-01T03:47:56Z</time></trkpt><trkpt lat="59.5185835753" lon="31.1671288591"><ele>53.30</ele><time>2026-09-01T03:48:11Z</time></trkpt><trkpt lat="59.5186086372" lon="31.1672491394"><ele>55.57</ele><time>2026-09-01T03:48:24Z</time></trkpt><trkpt lat="59.5186103974" lon="31.1674565915"><ele>54.86</ele><time>2026-09-01T03:48:41Z</time></trkpt><trkpt lat="59.5185714215" lon="31.1675892770"><ele>54.45</ele><time>2026-09-01T03:48:52Z</time></trkpt><trkpt lat="59.5185748581" lon="31.1677580886"><ele>54.43</ele><time>2026-09-01T03:49:03Z</time></trkpt><trkpt lat="59.5185919572" lon="31.1679382995"><ele>54.39</ele><time>2026-09-01T03:49:16Z</time></trkpt><trkpt lat="59.5186085533" lon="31.1681517866"><ele>54.40</ele><time>2026-09-01T03:49:30Z</time></trkpt><trkpt lat="59.5186446793" lon="31.1683846358"><ele>55.02</ele><time>2026-09-01T03:49:43Z</time></trkpt><trkpt lat="59.5187636185" lon="31.1685925908"><ele>55.62</ele><time>2026-09-01T03:49:58Z</time></trkpt><trkpt lat="59.5188442525" lon="31.1686884798"><ele>55.17</ele><time>2026-09-01T03:50:09Z</time></trkpt><trkpt lat="59.5189611800" lon="31.1689738836"><ele>55.21</ele><time>2026-09-01T03:50:26Z</time></trkpt><trkpt lat="59.5190325938" lon="31.1691744626"><ele>55.41</ele><time>2026-09-01T03:50:40Z</time></trkpt><trkpt lat="59.5190912671" lon="31.1693375744"><ele>56.01</ele><time>2026-09-01T03:50:50Z</time></trkpt><trkpt lat="59.5191266388" lon="31.1695191264"><ele>55.38</ele><time>2026-09-01T03:51:02Z</time></trkpt><trkpt lat="59.5191603340" lon="31.1697254889"><ele>55.16</ele><time>2026-09-01T03:51:16Z</time></trkpt><trkpt lat="59.5192057639" lon="31.1700319313"><ele>55.35</ele><time>2026-09-01T03:51:30Z</time></trkpt><trkpt lat="59.5192271378" lon="31.1703157425"><ele>54.80</ele><time>2026-09-01T03:51:44Z</time></trkpt><trkpt lat="59.5191947836" lon="31.1704217736"><ele>55.53</ele><time>2026-09-01T03:52:04Z</time></trkpt><trkpt lat="59.5191886649" lon="31.1706676986"><ele>55.26</ele><time>2026-09-01T03:52:20Z</time></trkpt><trkpt lat="59.5191618428" lon="31.1709992867"><ele>54.36</ele><time>2026-09-01T03:52:33Z</time></trkpt><trkpt lat="59.5191498566" lon="31.1711706966"><ele>53.37</ele><time>2026-09-01T03:52:45Z</time></trkpt><trkpt lat="59.5191396307" lon="31.1714806594"><ele>53.09</ele><time>2026-09-01T03:52:58Z</time></trkpt><trkpt lat="59.5191202685" lon="31.1717244890"><ele>53.07</ele><time>2026-09-01T03:53:12Z</time></trkpt><trkpt lat="59.5190832205" lon="31.1719019338"><ele>53.13</ele><time>2026-09-01T03:53:23Z</time></trkpt><trkpt lat="59.5190435741" lon="31.1721812189"><ele>51.54</ele><time>2026-09-01T03:53:39Z</time></trkpt><trkpt lat="59.5189857390" lon="31.1725340970"><ele>52.04</ele><time>2026-09-01T03:53:55Z</time></trkpt><trkpt lat="59.5189642813" lon="31.1728249490"><ele>52.76</ele><time>2026-09-01T03:54:10Z</time></trkpt><trkpt lat="59.5189497806" lon="31.1731247697"><ele>53.06</ele><time>2026-09-01T03:54:27Z</time></trkpt><trkpt lat="59.5189472660" lon="31.1731515918"><ele>53.00</ele><time>2026-09-01T03:54:29Z</time></trkpt><trkpt lat="59.5189642813" lon="31.1734442879"><ele>53.85</ele><time>2026-09-01T03:54:43Z</time></trkpt><trkpt lat="59.5189573243" lon="31.1737233214"><ele>53.64</ele><time>2026-09-01T03:55:01Z</time></trkpt><trkpt lat="59.5189100504" lon="31.1740042828"><ele>52.82</ele><time>2026-09-01T03:55:17Z</time></trkpt><trkpt lat="59.5188578311" lon="31.1742926203"><ele>52.83</ele><time>2026-09-01T03:55:32Z</time></trkpt><trkpt lat="59.5188263990" lon="31.1746218614"><ele>53.01</ele><time>2026-09-01T03:55:45Z</time></trkpt><trkpt lat="59.5188047737" lon="31.1749222688"><ele>53.81</ele><time>2026-09-01T03:56:00Z</time></trkpt><trkpt lat="59.5187718328" lon="31.1751237698"><ele>53.55</ele><time>2026-09-01T03:56:14Z</time></trkpt><trkpt lat="59.5187430829" lon="31.1753016338"><ele>55.05</ele><time>2026-09-01T03:56:25Z</time></trkpt><trkpt lat="59.5186532289" lon="31.1754588783"><ele>51.12</ele><time>2026-09-01T03:56:39Z</time></trkpt><trkpt lat="59.5186144207" lon="31.1754904781"><ele>51.04</ele><time>2026-09-01T03:56:42Z</time></trkpt><trkpt lat="59.5185274165" lon="31.1756336410"><ele>50.74</ele><time>2026-09-01T03:56:54Z</time></trkpt><trkpt lat="59.5185019355" lon="31.1757498980"><ele>50.10</ele><time>2026-09-01T03:57:04Z</time></trkpt><trkpt lat="59.5184192900" lon="31.1759948172"><ele>51.48</ele><time>2026-09-01T03:57:18Z</time></trkpt><trkpt lat="59.5184121653" lon="31.1761312746"><ele>55.36</ele><time>2026-09-01T03:57:26Z</time></trkpt><trkpt lat="59.5182854310" lon="31.1762540694"><ele>54.48</ele><time>2026-09-01T03:57:40Z</time></trkpt><trkpt lat="59.5181447826" lon="31.1764068715"><ele>53.96</ele><time>2026-09-01T03:57:54Z</time></trkpt><trkpt lat="59.5180135220" lon="31.1765677202"><ele>55.23</ele><time>2026-09-01T03:58:08Z</time></trkpt><trkpt lat="59.5178994443" lon="31.1766264774"><ele>55.52</ele><time>2026-09-01T03:58:22Z</time></trkpt><trkpt lat="59.5178175531" lon="31.1766397208"><ele>55.03</ele><time>2026-09-01T03:58:40Z</time></trkpt><trkpt lat="59.5177549403" lon="31.1768625956"><ele>54.01</ele><time>2026-09-01T03:59:01Z</time></trkpt><trkpt lat="59.5176786650" lon="31.1771383602"><ele>53.79</ele><time>2026-09-01T03:59:16Z</time></trkpt><trkpt lat="59.5175953489" lon="31.1773920804"><ele>54.40</ele><time>2026-09-01T03:59:31Z</time></trkpt><trkpt lat="59.5175617374" lon="31.1774860416"><ele>53.23</ele><time>2026-09-01T03:59:41Z</time></trkpt><trkpt lat="59.5174803492" lon="31.1775960959"><ele>51.52</ele><time>2026-09-01T03:59:55Z</time></trkpt><trkpt lat="59.5173728932" lon="31.1777747981"><ele>50.92</ele><time>2026-09-01T04:00:13Z</time></trkpt><trkpt lat="59.5173245296" lon="31.1777827609"><ele>52.40</ele><time>2026-09-01T04:00:43Z</time></trkpt><trkpt lat="59.5173717197" lon="31.1777610518"><ele>52.07</ele><time>2026-09-01T04:01:10Z</time></trkpt><trkpt lat="59.5173478313" lon="31.1777894665"><ele>51.57</ele><time>2026-09-01T04:01:29Z</time></trkpt><trkpt lat="59.5173279662" lon="31.1779074837"><ele>52.75</ele><time>2026-09-01T04:01:42Z</time></trkpt><trkpt lat="59.5173118729" lon="31.1779741198"><ele>51.91</ele><time>2026-09-01T04:02:00Z</time></trkpt><trkpt lat="59.5172638446" lon="31.1780503951"><ele>49.10</ele><time>2026-09-01T04:02:18Z</time></trkpt><trkpt lat="59.5172788482" lon="31.1781123374"><ele>48.21</ele><time>2026-09-01T04:02:34Z</time></trkpt><trkpt lat="59.5173028205" lon="31.1780994292"><ele>47.88</ele><time>2026-09-01T04:02:55Z</time></trkpt><trkpt lat="59.5173022337" lon="31.1779310368"><ele>48.20</ele><time>2026-09-01T04:03:11Z</time></trkpt><trkpt lat="59.5173153933" lon="31.1778396741"><ele>47.92</ele><time>2026-09-01T04:03:42Z</time></trkpt><trkpt lat="59.5173362643" lon="31.1778791528"><ele>49.24</ele><time>2026-09-01T04:04:09Z</time></trkpt><trkpt lat="59.5173132978" lon="31.1778750457"><ele>50.31</ele><time>2026-09-01T04:04:58Z</time></trkpt><trkpt lat="59.5173045807" lon="31.1779066455"><ele>50.57</ele><time>2026-09-01T04:05:29Z</time></trkpt><trkpt lat="59.5172716398" lon="31.1778991856"><ele>49.77</ele><time>2026-09-01T04:06:01Z</time></trkpt><trkpt lat="59.5172716398" lon="31.1778982636"><ele>50.54</ele><time>2026-09-01T04:06:29Z</time></trkpt><trkpt lat="59.5172730647" lon="31.1778925639"><ele>50.18</ele><time>2026-09-01T04:06:54Z</time></trkpt><trkpt lat="59.5173012279" lon="31.1779657379"><ele>49.40</ele><time>2026-09-01T04:07:39Z</time></trkpt><trkpt lat="59.5172890741" lon="31.1779370718"><ele>49.95</ele><time>2026-09-01T04:08:10Z</time></trkpt><trkpt lat="59.5173221827" lon="31.1779927276"><ele>52.48</ele><time>2026-09-01T04:08:55Z</time></trkpt><trkpt lat="59.5172611624" lon="31.1780669913"><ele>53.62</ele><time>2026-09-01T04:09:38Z</time></trkpt><trkpt lat="59.5171150658" lon="31.1782734375"><ele>54.36</ele><time>2026-09-01T04:09:53Z</time></trkpt><trkpt lat="59.5170220267" lon="31.1783696618"><ele>54.27</ele><time>2026-09-01T04:10:00Z</time></trkpt><trkpt lat="59.5168856531" lon="31.1786028463"><ele>53.80</ele><time>2026-09-01T04:10:15Z</time></trkpt><trkpt lat="59.5167956315" lon="31.1788384616"><ele>53.37</ele><time>2026-09-01T04:10:31Z</time></trkpt><trkpt lat="59.5166755188" lon="31.1792540364"><ele>52.77</ele><time>2026-09-01T04:10:46Z</time></trkpt><trkpt lat="59.5164112374" lon="31.1795340758"><ele>52.14</ele><time>2026-09-01T04:11:04Z</time></trkpt><trkpt lat="59.5161852613" lon="31.1797980219"><ele>51.33</ele><time>2026-09-01T04:11:20Z</time></trkpt><trkpt lat="59.5159693435" lon="31.1799458787"><ele>52.67</ele><time>2026-09-01T04:11:35Z</time></trkpt><trkpt lat="59.5157229993" lon="31.1800157838"><ele>51.88</ele><time>2026-09-01T04:11:53Z</time></trkpt><trkpt lat="59.5154855400" lon="31.1801928934"><ele>51.73</ele><time>2026-09-01T04:12:07Z</time></trkpt><trkpt lat="59.5152706280" lon="31.1802333780"><ele>50.30</ele><time>2026-09-01T04:12:24Z</time></trkpt><trkpt lat="59.5152071770" lon="31.1802233197"><ele>49.57</ele><time>2026-09-01T04:12:28Z</time></trkpt><trkpt lat="59.5149692986" lon="31.1801702622"><ele>49.87</ele><time>2026-09-01T04:12:47Z</time></trkpt><trkpt lat="59.5147947874" lon="31.1801950727"><ele>50.52</ele><time>2026-09-01T04:13:01Z</time></trkpt><trkpt lat="59.5144932903" lon="31.1803541612"><ele>49.47</ele><time>2026-09-01T04:13:21Z</time></trkpt><trkpt lat="59.5142334513" lon="31.1806776188"><ele>49.46</ele><time>2026-09-01T04:13:38Z</time></trkpt><trkpt lat="59.5140094869" lon="31.1810302455"><ele>49.25</ele><time>2026-09-01T04:13:57Z</time></trkpt><trkpt lat="59.5139942318" lon="31.1810661200"><ele>49.11</ele><time>2026-09-01T04:13:59Z</time></trkpt><trkpt lat="59.5136612188" lon="31.1812808644"><ele>48.46</ele><time>2026-09-01T04:14:17Z</time></trkpt><trkpt lat="59.5134860370" lon="31.1815541983"><ele>49.01</ele><time>2026-09-01T04:14:33Z</time></trkpt><trkpt lat="59.5133292954" lon="31.1818521749"><ele>50.21</ele><time>2026-09-01T04:14:48Z</time></trkpt><trkpt lat="59.5131184906" lon="31.1823495571"><ele>50.34</ele><time>2026-09-01T04:15:02Z</time></trkpt><trkpt lat="59.5127008203" lon="31.1830872484"><ele>48.60</ele><time>2026-09-01T04:15:22Z</time></trkpt><trkpt lat="59.5122979861" lon="31.1836023163"><ele>47.76</ele><time>2026-09-01T04:15:36Z</time></trkpt><trkpt lat="59.5120427571" lon="31.1840509996"><ele>46.75</ele><time>2026-09-01T04:15:53Z</time></trkpt><trkpt lat="59.5118828304" lon="31.1846595258"><ele>45.82</ele><time>2026-09-01T04:16:09Z</time></trkpt><trkpt lat="59.5117636397" lon="31.1852653697"><ele>45.10</ele><time>2026-09-01T04:16:22Z</time></trkpt><trkpt lat="59.5116945729" lon="31.1859068368"><ele>45.11</ele><time>2026-09-01T04:16:34Z</time></trkpt><trkpt lat="59.5115584508" lon="31.1866903771"><ele>44.54</ele><time>2026-09-01T04:16:47Z</time></trkpt><trkpt lat="59.5114963409" lon="31.1873336881"><ele>47.87</ele><time>2026-09-01T04:16:58Z</time></trkpt><trkpt lat="59.5114168804" lon="31.1880550347"><ele>50.66</ele><time>2026-09-01T04:17:13Z</time></trkpt><trkpt lat="59.5112886373" lon="31.1889473721"><ele>50.17</ele><time>2026-09-01T04:17:31Z</time></trkpt><trkpt lat="59.5111501683" lon="31.1896921881"><ele>50.58</ele><time>2026-09-01T04:17:48Z</time></trkpt><trkpt lat="59.5110892318" lon="31.1902502552"><ele>50.76</ele><time>2026-09-01T04:18:05Z</time></trkpt><trkpt lat="59.5111235976" lon="31.1907431949"><ele>50.54</ele><time>2026-09-01T04:18:21Z</time></trkpt><trkpt lat="59.5110653434" lon="31.1912918743"><ele>49.73</ele><time>2026-09-01T04:18:35Z</time></trkpt><trkpt lat="59.5108274650" lon="31.1921821162"><ele>50.55</ele><time>2026-09-01T04:18:50Z</time></trkpt><trkpt lat="59.5105876587" lon="31.1931674927"><ele>51.53</ele><time>2026-09-01T04:19:07Z</time></trkpt><trkpt lat="59.5105382893" lon="31.1939032562"><ele>49.42</ele><time>2026-09-01T04:19:20Z</time></trkpt><trkpt lat="59.5107397903" lon="31.1944264546"><ele>50.06</ele><time>2026-09-01T04:19:31Z</time></trkpt><trkpt lat="59.5111213345" lon="31.1949175503"><ele>49.25</ele><time>2026-09-01T04:19:47Z</time></trkpt><trkpt lat="59.5114230830" lon="31.1951988470"><ele>48.88</ele><time>2026-09-01T04:20:01Z</time></trkpt><trkpt lat="59.5117306989" lon="31.1954562552"><ele>49.33</ele><time>2026-09-01T04:20:16Z</time></trkpt><trkpt lat="59.5120132528" lon="31.1957289185"><ele>49.23</ele><time>2026-09-01T04:20:27Z</time></trkpt><trkpt lat="59.5121309347" lon="31.1957528908"><ele>49.29</ele><time>2026-09-01T04:20:31Z</time></trkpt><trkpt lat="59.5124210324" lon="31.1956013460"><ele>47.74</ele><time>2026-09-01T04:20:47Z</time></trkpt><trkpt lat="59.5128248725" lon="31.1957321875"><ele>44.68</ele><time>2026-09-01T04:21:03Z</time></trkpt><trkpt lat="59.5132461470" lon="31.1961614247"><ele>49.32</ele><time>2026-09-01T04:21:17Z</time></trkpt><trkpt lat="59.5133457240" lon="31.1962886620"><ele>56.60</ele><time>2026-09-01T04:21:41Z</time></trkpt><trkpt lat="59.5133533515" lon="31.1963016540"><ele>57.16</ele><time>2026-09-01T04:22:08Z</time></trkpt><trkpt lat="59.5132996235" lon="31.1962514464"><ele>56.07</ele><time>2026-09-01T04:22:38Z</time></trkpt><trkpt lat="59.5132457279" lon="31.1960955430"><ele>53.94</ele><time>2026-09-01T04:23:10Z</time></trkpt><trkpt lat="59.5132065844" lon="31.1960447486"><ele>53.54</ele><time>2026-09-01T04:23:13Z</time></trkpt><trkpt lat="59.5129695442" lon="31.1958732549"><ele>53.79</ele><time>2026-09-01T04:23:28Z</time></trkpt><trkpt lat="59.5129171573" lon="31.1958363745"><ele>53.68</ele><time>2026-09-01T04:23:33Z</time></trkpt><trkpt lat="59.5127353538" lon="31.1956560798"><ele>53.41</ele><time>2026-09-01T04:23:47Z</time></trkpt><trkpt lat="59.5125455875" lon="31.1956179421"><ele>52.91</ele><time>2026-09-01T04:24:02Z</time></trkpt><trkpt lat="59.5124118961" lon="31.1955954786"><ele>53.24</ele><time>2026-09-01T04:24:14Z</time></trkpt><trkpt lat="59.5122645423" lon="31.1955750268"><ele>53.01</ele><time>2026-09-01T04:24:26Z</time></trkpt><trkpt lat="59.5120970719" lon="31.1956518888"><ele>53.30</ele><time>2026-09-01T04:24:40Z</time></trkpt><trkpt lat="59.5120162703" lon="31.1956704967"><ele>53.34</ele><time>2026-09-01T04:24:46Z</time></trkpt><trkpt lat="59.5118744485" lon="31.1956989951"><ele>54.02</ele><time>2026-09-01T04:24:58Z</time></trkpt><trkpt lat="59.5118076447" lon="31.1957433354"><ele>54.52</ele><time>2026-09-01T04:25:10Z</time></trkpt><trkpt lat="59.5117425174" lon="31.1956850812"><ele>54.92</ele><time>2026-09-01T04:25:23Z</time></trkpt><trkpt lat="59.5116244163" lon="31.1956495419"><ele>54.48</ele><time>2026-09-01T04:25:34Z</time></trkpt><trkpt lat="59.5115333889" lon="31.1954678223"><ele>54.78</ele><time>2026-09-01T04:25:48Z</time></trkpt><trkpt lat="59.5114254300" lon="31.1953765433"><ele>56.00</ele><time>2026-09-01T04:26:01Z</time></trkpt><trkpt lat="59.5113390964" lon="31.1952606216"><ele>55.39</ele><time>2026-09-01T04:26:17Z</time></trkpt><trkpt lat="59.5112420339" lon="31.1950463802"><ele>55.19</ele><time>2026-09-01T04:26:32Z</time></trkpt><trkpt lat="59.5110773295" lon="31.1947962642"><ele>54.63</ele><time>2026-09-01T04:26:47Z</time></trkpt><trkpt lat="59.5109244436" lon="31.1946232617"><ele>53.95</ele><time>2026-09-01T04:27:01Z</time></trkpt><trkpt lat="59.5108264592" lon="31.1944791768"><ele>54.42</ele><time>2026-09-01T04:27:14Z</time></trkpt><trkpt lat="59.5107250381" lon="31.1942650191"><ele>54.64</ele><time>2026-09-01T04:27:29Z</time></trkpt><trkpt lat="59.5105564781" lon="31.1940708943"><ele>55.38</ele><time>2026-09-01T04:27:44Z</time></trkpt><trkpt lat="59.5104766823" lon="31.1940787733"><ele>54.35</ele><time>2026-09-01T04:27:55Z</time></trkpt><trkpt lat="59.5103974734" lon="31.1943045817"><ele>54.49</ele><time>2026-09-01T04:28:07Z</time></trkpt><trkpt lat="59.5102640335" lon="31.1945582181"><ele>54.45</ele><time>2026-09-01T04:28:22Z</time></trkpt><trkpt lat="59.5101901889" lon="31.1947393510"><ele>52.54</ele><time>2026-09-01T04:28:34Z</time></trkpt><trkpt lat="59.5101544820" lon="31.1949205678"><ele>52.33</ele><time>2026-09-01T04:28:52Z</time></trkpt><trkpt lat="59.5100216288" lon="31.1951390840"><ele>51.98</ele><time>2026-09-01T04:29:05Z</time></trkpt><trkpt lat="59.5098766219" lon="31.1953421775"><ele>51.61</ele><time>2026-09-01T04:29:24Z</time></trkpt><trkpt lat="59.5097648911" lon="31.1956976540"><ele>49.41</ele><time>2026-09-01T04:29:48Z</time></trkpt><trkpt lat="59.5096883643" lon="31.1960392166"><ele>49.75</ele><time>2026-09-01T04:30:07Z</time></trkpt><trkpt lat="59.5096241590" lon="31.1962462496"><ele>51.56</ele><time>2026-09-01T04:30:23Z</time></trkpt><trkpt lat="59.5096246619" lon="31.1964747403"><ele>52.63</ele><time>2026-09-01T04:30:47Z</time></trkpt><trkpt lat="59.5096187945" lon="31.1965325754"><ele>52.58</ele><time>2026-09-01T04:31:08Z</time></trkpt><trkpt lat="59.5096365642" lon="31.1967561208"><ele>52.57</ele><time>2026-09-01T04:31:30Z</time></trkpt><trkpt lat="59.5096549205" lon="31.1969636567"><ele>52.66</ele><time>2026-09-01T04:31:44Z</time></trkpt><trkpt lat="59.5097419247" lon="31.1970243417"><ele>52.54</ele><time>2026-09-01T04:32:04Z</time></trkpt><trkpt lat="59.5097882766" lon="31.1971382517"><ele>52.54</ele><time>2026-09-01T04:32:16Z</time></trkpt><trkpt lat="59.5097475406" lon="31.1973703466"><ele>52.20</ele><time>2026-09-01T04:32:30Z</time></trkpt><trkpt lat="59.5097190421" lon="31.1975737754"><ele>52.48</ele><time>2026-09-01T04:32:47Z</time></trkpt><trkpt lat="59.5096985903" lon="31.1975587718"><ele>51.54</ele><time>2026-09-01T04:33:07Z</time></trkpt><trkpt lat="59.5096659847" lon="31.1977310199"><ele>51.98</ele><time>2026-09-01T04:33:48Z</time></trkpt><trkpt lat="59.5096663199" lon="31.1979720835"><ele>51.57</ele><time>2026-09-01T04:34:02Z</time></trkpt><trkpt lat="59.5096651465" lon="31.1982760951"><ele>51.10</ele><time>2026-09-01T04:34:14Z</time></trkpt><trkpt lat="59.5096635539" lon="31.1985506862"><ele>49.78</ele><time>2026-09-01T04:34:26Z</time></trkpt><trkpt lat="59.5096606202" lon="31.1988740601"><ele>49.63</ele><time>2026-09-01T04:34:39Z</time></trkpt><trkpt lat="59.5096258353" lon="31.1990695260"><ele>49.27</ele><time>2026-09-01T04:34:53Z</time></trkpt><trkpt lat="59.5095886197" lon="31.1993015371"><ele>49.17</ele><time>2026-09-01T04:35:09Z</time></trkpt><trkpt lat="59.5095311198" lon="31.1996129248"><ele>49.74</ele><time>2026-09-01T04:35:23Z</time></trkpt><trkpt lat="59.5095257554" lon="31.1998833250"><ele>49.17</ele><time>2026-09-01T04:35:39Z</time></trkpt><trkpt lat="59.5095296949" lon="31.2000642903"><ele>49.37</ele><time>2026-09-01T04:35:46Z</time></trkpt><trkpt lat="59.5094491448" lon="31.2003233749"><ele>49.10</ele><time>2026-09-01T04:35:59Z</time></trkpt><trkpt lat="59.5094350632" lon="31.2006569747"><ele>49.34</ele><time>2026-09-01T04:36:23Z</time></trkpt><trkpt lat="59.5094406791" lon="31.2008321565"><ele>49.51</ele><time>2026-09-01T04:36:47Z</time></trkpt><trkpt lat="59.5093984343" lon="31.2010405306"><ele>50.17</ele><time>2026-09-01T04:37:04Z</time></trkpt><trkpt lat="59.5093916450" lon="31.2012684345"><ele>50.67</ele><time>2026-09-01T04:37:21Z</time></trkpt><trkpt lat="59.5093254279" lon="31.2015425228"><ele>50.20</ele><time>2026-09-01T04:37:34Z</time></trkpt><trkpt lat="59.5092931576" lon="31.2017527409"><ele>50.48</ele><time>2026-09-01T04:37:48Z</time></trkpt><trkpt lat="59.5092998631" lon="31.2018018588"><ele>50.93</ele><time>2026-09-01T04:38:02Z</time></trkpt><trkpt lat="59.5092850272" lon="31.2019505538"><ele>50.32</ele><time>2026-09-01T04:38:16Z</time></trkpt><trkpt lat="59.5092496555" lon="31.2023822218"><ele>48.93</ele><time>2026-09-01T04:38:34Z</time></trkpt><trkpt lat="59.5092066564" lon="31.2026772648"><ele>49.81</ele><time>2026-09-01T04:38:46Z</time></trkpt><trkpt lat="59.5091505814" lon="31.2029311527"><ele>49.98</ele><time>2026-09-01T04:38:59Z</time></trkpt><trkpt lat="59.5090998709" lon="31.2031150516"><ele>49.56</ele><time>2026-09-01T04:39:13Z</time></trkpt><trkpt lat="59.5090371743" lon="31.2034775689"><ele>50.52</ele><time>2026-09-01T04:39:26Z</time></trkpt><trkpt lat="59.5090216678" lon="31.2038272619"><ele>51.88</ele><time>2026-09-01T04:39:41Z</time></trkpt><trkpt lat="59.5090209972" lon="31.2041677348"><ele>52.26</ele><time>2026-09-01T04:39:55Z</time></trkpt><trkpt lat="59.5089246891" lon="31.2043469399"><ele>51.61</ele><time>2026-09-01T04:40:09Z</time></trkpt><trkpt lat="59.5088402834" lon="31.2047856487"><ele>53.23</ele><time>2026-09-01T04:40:27Z</time></trkpt><trkpt lat="59.5088211726" lon="31.2047982216"><ele>52.72</ele><time>2026-09-01T04:40:52Z</time></trkpt><trkpt lat="59.5087775867" lon="31.2049996387"><ele>51.62</ele><time>2026-09-01T04:41:03Z</time></trkpt><trkpt lat="59.5087758265" lon="31.2053397764"><ele>50.88</ele><time>2026-09-01T04:41:18Z</time></trkpt><trkpt lat="59.5088425465" lon="31.2055957597"><ele>50.48</ele><time>2026-09-01T04:41:29Z</time></trkpt><trkpt lat="59.5088671893" lon="31.2059681676"><ele>50.12</ele><time>2026-09-01T04:41:44Z</time></trkpt><trkpt lat="59.5088611543" lon="31.2060727738"><ele>49.82</ele><time>2026-09-01T04:41:49Z</time></trkpt><trkpt lat="59.5088558737" lon="31.2063260749"><ele>49.89</ele><time>2026-09-01T04:42:01Z</time></trkpt><trkpt lat="59.5087878965" lon="31.2065798789"><ele>49.75</ele><time>2026-09-01T04:42:17Z</time></trkpt><trkpt lat="59.5087891538" lon="31.2068658695"><ele>49.22</ele><time>2026-09-01T04:42:31Z</time></trkpt><trkpt lat="59.5086750761" lon="31.2071630917"><ele>49.86</ele><time>2026-09-01T04:42:44Z</time></trkpt><trkpt lat="59.5085735712" lon="31.2074072566"><ele>50.70</ele><time>2026-09-01T04:42:54Z</time></trkpt><trkpt lat="59.5085226931" lon="31.2076652516"><ele>51.19</ele><time>2026-09-01T04:43:06Z</time></trkpt><trkpt lat="59.5084941946" lon="31.2078745477"><ele>51.52</ele><time>2026-09-01T04:43:21Z</time></trkpt><trkpt lat="59.5084518660" lon="31.2080943212"><ele>51.06</ele><time>2026-09-01T04:43:32Z</time></trkpt><trkpt lat="59.5084217750" lon="31.2082652282"><ele>51.67</ele><time>2026-09-01T04:43:42Z</time></trkpt><trkpt lat="59.5083914325" lon="31.2083785515"><ele>52.20</ele><time>2026-09-01T04:43:48Z</time></trkpt><trkpt lat="59.5083382912" lon="31.2085828185"><ele>52.04</ele><time>2026-09-01T04:44:00Z</time></trkpt><trkpt lat="59.5082319248" lon="31.2088467646"><ele>51.96</ele><time>2026-09-01T04:44:13Z</time></trkpt><trkpt lat="59.5081141591" lon="31.2090299930"><ele>52.02</ele><time>2026-09-01T04:44:26Z</time></trkpt><trkpt lat="59.5080921985" lon="31.2090727407"><ele>51.94</ele><time>2026-09-01T04:44:29Z</time></trkpt><trkpt lat="59.5079983212" lon="31.2092256267"><ele>52.17</ele><time>2026-09-01T04:44:41Z</time></trkpt><trkpt lat="59.5078828186" lon="31.2094210926"><ele>52.11</ele><time>2026-09-01T04:44:54Z</time></trkpt><trkpt lat="59.5077883545" lon="31.2096550316"><ele>52.23</ele><time>2026-09-01T04:45:08Z</time></trkpt><trkpt lat="59.5077311900" lon="31.2098813429"><ele>50.30</ele><time>2026-09-01T04:45:21Z</time></trkpt><trkpt lat="59.5077325311" lon="31.2099933252"><ele>49.48</ele><time>2026-09-01T04:45:35Z</time></trkpt><trkpt lat="59.5077047870" lon="31.2102518231"><ele>49.87</ele><time>2026-09-01T04:45:51Z</time></trkpt><trkpt lat="59.5076712593" lon="31.2107488699"><ele>51.81</ele><time>2026-09-01T04:46:03Z</time></trkpt><trkpt lat="59.5076129213" lon="31.2110342737"><ele>50.94</ele><time>2026-09-01T04:46:22Z</time></trkpt><trkpt lat="59.5076152682" lon="31.2113413867"><ele>49.26</ele><time>2026-09-01T04:46:37Z</time></trkpt><trkpt lat="59.5075940620" lon="31.2114919256"><ele>49.42</ele><time>2026-09-01T04:46:44Z</time></trkpt><trkpt lat="59.5075658988" lon="31.2116320711"><ele>50.41</ele><time>2026-09-01T04:47:02Z</time></trkpt><trkpt lat="59.5075924695" lon="31.2118208315"><ele>49.26</ele><time>2026-09-01T04:47:21Z</time></trkpt><trkpt lat="59.5076071378" lon="31.2119803391"><ele>49.64</ele><time>2026-09-01T04:47:33Z</time></trkpt><trkpt lat="59.5076421741" lon="31.2122091651"><ele>49.52</ele><time>2026-09-01T04:47:44Z</time></trkpt><trkpt lat="59.5077166893" lon="31.2124220654"><ele>49.87</ele><time>2026-09-01T04:47:57Z</time></trkpt><trkpt lat="59.5077079721" lon="31.2127569225"><ele>49.65</ele><time>2026-09-01T04:48:13Z</time></trkpt><trkpt lat="59.5076739416" lon="31.2131389696"><ele>49.71</ele><time>2026-09-01T04:48:26Z</time></trkpt><trkpt lat="59.5076331217" lon="31.2133388780"><ele>50.34</ele><time>2026-09-01T04:48:35Z</time></trkpt><trkpt lat="59.5075732749" lon="31.2136995513"><ele>51.24</ele><time>2026-09-01T04:48:50Z</time></trkpt><trkpt lat="59.5074837562" lon="31.2138330750"><ele>51.92</ele><time>2026-09-01T04:49:01Z</time></trkpt><trkpt lat="59.5073709358" lon="31.2139766570"><ele>52.04</ele><time>2026-09-01T04:49:13Z</time></trkpt><trkpt lat="59.5072391722" lon="31.2141334824"><ele>51.63</ele><time>2026-09-01T04:49:28Z</time></trkpt><trkpt lat="59.5071099233" lon="31.2144227419"><ele>52.75</ele><time>2026-09-01T04:49:43Z</time></trkpt><trkpt lat="59.5069595519" lon="31.2146643922"><ele>53.18</ele><time>2026-09-01T04:50:00Z</time></trkpt><trkpt lat="59.5068418700" lon="31.2148658931"><ele>52.70</ele><time>2026-09-01T04:50:13Z</time></trkpt><trkpt lat="59.5067476574" lon="31.2151032686"><ele>51.60</ele><time>2026-09-01T04:50:30Z</time></trkpt><trkpt lat="59.5066650957" lon="31.2151549850"><ele>52.26</ele><time>2026-09-01T04:50:44Z</time></trkpt><trkpt lat="59.5066037402" lon="31.2153372914"><ele>51.52</ele><time>2026-09-01T04:51:05Z</time></trkpt><trkpt lat="59.5065872278" lon="31.2154613435"><ele>51.47</ele><time>2026-09-01T04:51:14Z</time></trkpt><trkpt lat="59.5064727310" lon="31.2156043388"><ele>50.67</ele><time>2026-09-01T04:51:25Z</time></trkpt><trkpt lat="59.5064109564" lon="31.2156138942"><ele>50.47</ele><time>2026-09-01T04:51:38Z</time></trkpt><trkpt lat="59.5062435698" lon="31.2156468350"><ele>50.55</ele><time>2026-09-01T04:51:51Z</time></trkpt><trkpt lat="59.5061309170" lon="31.2158970349"><ele>49.12</ele><time>2026-09-01T04:52:06Z</time></trkpt><trkpt lat="59.5061454177" lon="31.2160813529"><ele>49.22</ele><time>2026-09-01T04:52:20Z</time></trkpt><trkpt lat="59.5061484352" lon="31.2161184847"><ele>49.35</ele><time>2026-09-01T04:52:21Z</time></trkpt><trkpt lat="59.5060760994" lon="31.2164440379"><ele>49.46</ele><time>2026-09-01T04:52:35Z</time></trkpt><trkpt lat="59.5060626883" lon="31.2166276854"><ele>50.90</ele><time>2026-09-01T04:52:51Z</time></trkpt><trkpt lat="59.5059528854" lon="31.2170069665"><ele>51.38</ele><time>2026-09-01T04:53:06Z</time></trkpt><trkpt lat="59.5058939606" lon="31.2171705812"><ele>51.62</ele><time>2026-09-01T04:53:19Z</time></trkpt><trkpt lat="59.5057825651" lon="31.2173221260"><ele>50.99</ele><time>2026-09-01T04:53:35Z</time></trkpt><trkpt lat="59.5056742709" lon="31.2175454199"><ele>51.64</ele><time>2026-09-01T04:53:51Z</time></trkpt><trkpt lat="59.5056006778" lon="31.2177096214"><ele>50.91</ele><time>2026-09-01T04:54:06Z</time></trkpt><trkpt lat="59.5055112429" lon="31.2178242858"><ele>51.61</ele><time>2026-09-01T04:54:26Z</time></trkpt><trkpt lat="59.5054512285" lon="31.2180657685"><ele>51.96</ele><time>2026-09-01T04:54:42Z</time></trkpt><trkpt lat="59.5054115821" lon="31.2182810996"><ele>52.06</ele><time>2026-09-01T04:54:54Z</time></trkpt><trkpt lat="59.5053648949" lon="31.2185112666"><ele>51.57</ele><time>2026-09-01T04:55:09Z</time></trkpt><trkpt lat="59.5052951574" lon="31.2187749613"><ele>51.55</ele><time>2026-09-01T04:55:25Z</time></trkpt><trkpt lat="59.5052475482" lon="31.2190362252"><ele>51.98</ele><time>2026-09-01T04:55:39Z</time></trkpt><trkpt lat="59.5051853545" lon="31.2192209624"><ele>52.03</ele><time>2026-09-01T04:55:51Z</time></trkpt><trkpt lat="59.5050308760" lon="31.2194843218"><ele>52.02</ele><time>2026-09-01T04:56:06Z</time></trkpt><trkpt lat="59.5049342327" lon="31.2196090445"><ele>51.15</ele><time>2026-09-01T04:56:18Z</time></trkpt><trkpt lat="59.5048545208" lon="31.2198163290"><ele>50.53</ele><time>2026-09-01T04:56:27Z</time></trkpt><trkpt lat="59.5047708694" lon="31.2199623417"><ele>50.31</ele><time>2026-09-01T04:56:33Z</time></trkpt><trkpt lat="59.5046891458" lon="31.2200539559"><ele>50.71</ele><time>2026-09-01T04:56:43Z</time></trkpt><trkpt lat="59.5045554545" lon="31.2203157227"><ele>50.84</ele><time>2026-09-01T04:57:00Z</time></trkpt><trkpt lat="59.5044520218" lon="31.2205509190"><ele>50.64</ele><time>2026-09-01T04:57:13Z</time></trkpt><trkpt lat="59.5043240301" lon="31.2207368296"><ele>50.21</ele><time>2026-09-01T04:57:29Z</time></trkpt><trkpt lat="59.5042042527" lon="31.2209413480"><ele>50.33</ele><time>2026-09-01T04:57:44Z</time></trkpt><trkpt lat="59.5041650254" lon="31.2210510671"><ele>50.40</ele><time>2026-09-01T04:57:50Z</time></trkpt><trkpt lat="59.5040626824" lon="31.2212096527"><ele>50.22</ele><time>2026-09-01T04:58:01Z</time></trkpt><trkpt lat="59.5039725769" lon="31.2213886902"><ele>50.13</ele><time>2026-09-01T04:58:16Z</time></trkpt><trkpt lat="59.5039118920" lon="31.2215229683"><ele>50.19</ele><time>2026-09-01T04:58:23Z</time></trkpt><trkpt lat="59.5038214512" lon="31.2216680590"><ele>50.85</ele><time>2026-09-01T04:58:37Z</time></trkpt><trkpt lat="59.5037262328" lon="31.2218715716"><ele>51.65</ele><time>2026-09-01T04:58:52Z</time></trkpt><trkpt lat="59.5036250632" lon="31.2218883354"><ele>51.73</ele><time>2026-09-01T04:59:03Z</time></trkpt><trkpt lat="59.5034933835" lon="31.2219866551"><ele>49.79</ele><time>2026-09-01T04:59:20Z</time></trkpt><trkpt lat="59.5033714268" lon="31.2221173290"><ele>49.89</ele><time>2026-09-01T04:59:33Z</time></trkpt><trkpt lat="59.5031999331" lon="31.2222021539"><ele>48.70</ele><time>2026-09-01T04:59:48Z</time></trkpt><trkpt lat="59.5030114241" lon="31.2222963665"><ele>48.03</ele><time>2026-09-01T05:00:04Z</time></trkpt><trkpt lat="59.5028229989" lon="31.2223890703"><ele>48.02</ele><time>2026-09-01T05:00:18Z</time></trkpt><trkpt lat="59.5027028862" lon="31.2224474922"><ele>47.53</ele><time>2026-09-01T05:00:30Z</time></trkpt><trkpt lat="59.5025472343" lon="31.2224876415"><ele>46.61</ele><time>2026-09-01T05:00:45Z</time></trkpt><trkpt lat="59.5024041552" lon="31.2225326523"><ele>46.50</ele><time>2026-09-01T05:00:58Z</time></trkpt><trkpt lat="59.5022619981" lon="31.2225753162"><ele>45.69</ele><time>2026-09-01T05:01:13Z</time></trkpt><trkpt lat="59.5021319948" lon="31.2226894777"><ele>46.86</ele><time>2026-09-01T05:01:25Z</time></trkpt><trkpt lat="59.5020593237" lon="31.2228707783"><ele>47.78</ele><time>2026-09-01T05:01:37Z</time></trkpt><trkpt lat="59.5019663684" lon="31.2230161205"><ele>48.05</ele><time>2026-09-01T05:01:49Z</time></trkpt><trkpt lat="59.5019124728" lon="31.2231350597"><ele>48.66</ele><time>2026-09-01T05:02:09Z</time></trkpt><trkpt lat="59.5017776918" lon="31.2234159373"><ele>47.42</ele><time>2026-09-01T05:02:26Z</time></trkpt><trkpt lat="59.5017746743" lon="31.2234373949"><ele>47.31</ele><time>2026-09-01T05:02:27Z</time></trkpt><trkpt lat="59.5016701519" lon="31.2237117346"><ele>48.98</ele><time>2026-09-01T05:02:40Z</time></trkpt><trkpt lat="59.5015816391" lon="31.2238856591"><ele>49.12</ele><time>2026-09-01T05:02:53Z</time></trkpt><trkpt lat="59.5015015919" lon="31.2241109647"><ele>48.58</ele><time>2026-09-01T05:03:08Z</time></trkpt><trkpt lat="59.5013979916" lon="31.2243484240"><ele>49.45</ele><time>2026-09-01T05:03:21Z</time></trkpt><trkpt lat="59.5012808964" lon="31.2245752383"><ele>48.92</ele><time>2026-09-01T05:03:34Z</time></trkpt><trkpt lat="59.5011884440" lon="31.2247214187"><ele>48.58</ele><time>2026-09-01T05:03:45Z</time></trkpt><trkpt lat="59.5010771323" lon="31.2248557806"><ele>48.81</ele><time>2026-09-01T05:04:04Z</time></trkpt><trkpt lat="59.5009624679" lon="31.2248504162"><ele>48.62</ele><time>2026-09-01T05:04:16Z</time></trkpt><trkpt lat="59.5008328836" lon="31.2249107659"><ele>48.66</ele><time>2026-09-01T05:04:29Z</time></trkpt><trkpt lat="59.5008152816" lon="31.2248877995"><ele>47.07</ele><time>2026-09-01T05:04:44Z</time></trkpt><trkpt lat="59.5006684307" lon="31.2247581314"><ele>45.70</ele><time>2026-09-01T05:05:06Z</time></trkpt><trkpt lat="59.5004610624" lon="31.2246090174"><ele>45.63</ele><time>2026-09-01T05:05:26Z</time></trkpt><trkpt lat="59.5003402792" lon="31.2244922575"><ele>45.56</ele><time>2026-09-01T05:05:43Z</time></trkpt><trkpt lat="59.5001628343" lon="31.2245108653"><ele>45.39</ele><time>2026-09-01T05:05:57Z</time></trkpt><trkpt lat="59.5001095254" lon="31.2245325744"><ele>45.60</ele><time>2026-09-01T05:06:06Z</time></trkpt><trkpt lat="59.4999500178" lon="31.2246272899"><ele>43.79</ele><time>2026-09-01T05:06:19Z</time></trkpt><trkpt lat="59.4998628460" lon="31.2246240210"><ele>42.68</ele><time>2026-09-01T05:06:37Z</time></trkpt><trkpt lat="59.4996937830" lon="31.2245921697"><ele>42.71</ele><time>2026-09-01T05:06:52Z</time></trkpt><trkpt lat="59.4995306712" lon="31.2246876396"><ele>42.89</ele><time>2026-09-01T05:07:08Z</time></trkpt><trkpt lat="59.4993972313" lon="31.2247508392"><ele>43.35</ele><time>2026-09-01T05:07:22Z</time></trkpt><trkpt lat="59.4992482848" lon="31.2248104345"><ele>44.29</ele><time>2026-09-01T05:07:34Z</time></trkpt><trkpt lat="59.4990875199" lon="31.2248604745"><ele>45.87</ele><time>2026-09-01T05:07:52Z</time></trkpt><trkpt lat="59.4989442732" lon="31.2249627337"><ele>45.77</ele><time>2026-09-01T05:08:04Z</time></trkpt><trkpt lat="59.4988213945" lon="31.2252361514"><ele>49.57</ele><time>2026-09-01T05:08:22Z</time></trkpt><trkpt lat="59.4987446163" lon="31.2254511472"><ele>50.13</ele><time>2026-09-01T05:08:37Z</time></trkpt><trkpt lat="59.4986635633" lon="31.2256828230"><ele>50.96</ele><time>2026-09-01T05:08:50Z</time></trkpt><trkpt lat="59.4985850248" lon="31.2259191927"><ele>50.75</ele><time>2026-09-01T05:09:03Z</time></trkpt><trkpt lat="59.4985074922" lon="31.2261177599"><ele>51.63</ele><time>2026-09-01T05:09:13Z</time></trkpt><trkpt lat="59.4984340668" lon="31.2263769284"><ele>52.01</ele><time>2026-09-01T05:09:28Z</time></trkpt><trkpt lat="59.4983270299" lon="31.2266471609"><ele>51.53</ele><time>2026-09-01T05:09:43Z</time></trkpt><trkpt lat="59.4982030615" lon="31.2267698720"><ele>51.64</ele><time>2026-09-01T05:09:57Z</time></trkpt><trkpt lat="59.4980503432" lon="31.2267082650"><ele>50.78</ele><time>2026-09-01T05:10:13Z</time></trkpt><trkpt lat="59.4979071803" lon="31.2265132181"><ele>47.32</ele><time>2026-09-01T05:10:31Z</time></trkpt><trkpt lat="59.4977446552" lon="31.2263875734"><ele>47.07</ele><time>2026-09-01T05:10:46Z</time></trkpt><trkpt lat="59.4977373630" lon="31.2263710611"><ele>46.36</ele><time>2026-09-01T05:10:49Z</time></trkpt><trkpt lat="59.4977518637" lon="31.2264192570"><ele>44.93</ele><time>2026-09-01T05:11:01Z</time></trkpt><trkpt lat="59.4978114590" lon="31.2265151460"><ele>45.12</ele><time>2026-09-01T05:11:08Z</time></trkpt><trkpt lat="59.4979368523" lon="31.2265857216"><ele>44.80</ele><time>2026-09-01T05:11:21Z</time></trkpt><trkpt lat="59.4980223477" lon="31.2266032398"><ele>44.14</ele><time>2026-09-01T05:11:38Z</time></trkpt><trkpt lat="59.4980340824" lon="31.2266041618"><ele>43.73</ele><time>2026-09-01T05:11:49Z</time></trkpt><trkpt lat="59.4980770815" lon="31.2267780863"><ele>43.80</ele><time>2026-09-01T05:11:59Z</time></trkpt><trkpt lat="59.4975902606" lon="31.2268364243"><ele>44.31</ele><time>2026-09-01T05:15:43Z</time></trkpt><trkpt lat="59.4975646958" lon="31.2267895695"><ele>45.14</ele><time>2026-09-01T05:15:46Z</time></trkpt><trkpt lat="59.4975400530" lon="31.2266908307"><ele>46.50</ele><time>2026-09-01T05:16:00Z</time></trkpt><trkpt lat="59.4975771848" lon="31.2264827918"><ele>42.64</ele><time>2026-09-01T05:16:14Z</time></trkpt><trkpt lat="59.4975789450" lon="31.2262204383"><ele>33.27</ele><time>2026-09-01T05:16:26Z</time></trkpt><trkpt lat="59.4975798670" lon="31.2262101285"><ele>32.88</ele><time>2026-09-01T05:16:27Z</time></trkpt><trkpt lat="59.4976705592" lon="31.2260721624"><ele>33.80</ele><time>2026-09-01T05:16:40Z</time></trkpt><trkpt lat="59.4976711459" lon="31.2260742579"><ele>35.29</ele><time>2026-09-01T05:16:43Z</time></trkpt><trkpt lat="59.4976616744" lon="31.2257190328"><ele>39.30</ele><time>2026-09-01T05:16:57Z</time></trkpt><trkpt lat="59.4975823816" lon="31.2255069707"><ele>34.60</ele><time>2026-09-01T05:17:11Z</time></trkpt><trkpt lat="59.4975204393" lon="31.2255111616"><ele>33.39</ele><time>2026-09-01T05:17:22Z</time></trkpt><trkpt lat="59.4974999875" lon="31.2255068868"><ele>33.04</ele><time>2026-09-01T05:17:24Z</time></trkpt><trkpt lat="59.4974128995" lon="31.2253411766"><ele>33.05</ele><time>2026-09-01T05:17:36Z</time></trkpt><trkpt lat="59.4973364566" lon="31.2252124306"><ele>34.62</ele><time>2026-09-01T05:17:49Z</time></trkpt><trkpt lat="59.4972724188" lon="31.2251148652"><ele>34.71</ele><time>2026-09-01T05:18:00Z</time></trkpt><trkpt lat="59.4972253963" lon="31.2250145338"><ele>33.25</ele><time>2026-09-01T05:18:14Z</time></trkpt><trkpt lat="59.4971887674" lon="31.2249673437"><ele>32.45</ele><time>2026-09-01T05:18:22Z</time></trkpt><trkpt lat="59.4970675651" lon="31.2248678505"><ele>31.20</ele><time>2026-09-01T05:18:35Z</time></trkpt><trkpt lat="59.4970370550" lon="31.2248707842"><ele>31.65</ele><time>2026-09-01T05:18:38Z</time></trkpt><trkpt lat="59.4969446864" lon="31.2248805910"><ele>33.16</ele><time>2026-09-01T05:18:49Z</time></trkpt><trkpt lat="59.4969374780" lon="31.2248917390"><ele>32.78</ele><time>2026-09-01T05:18:57Z</time></trkpt><trkpt lat="59.4969457760" lon="31.2248779926"><ele>32.68</ele><time>2026-09-01T05:19:11Z</time></trkpt><trkpt lat="59.4969312754" lon="31.2248907331"><ele>31.94</ele><time>2026-09-01T05:19:34Z</time></trkpt><trkpt lat="59.4969299342" lon="31.2248525955"><ele>33.39</ele><time>2026-09-01T05:19:52Z</time></trkpt><trkpt lat="59.4969183672" lon="31.2247908209"><ele>34.90</ele><time>2026-09-01T05:20:13Z</time></trkpt><trkpt lat="59.4968866836" lon="31.2247595564"><ele>34.85</ele><time>2026-09-01T05:20:48Z</time></trkpt><trkpt lat="59.4968455285" lon="31.2247589696"><ele>36.35</ele><time>2026-09-01T05:21:09Z</time></trkpt><trkpt lat="59.4968891982" lon="31.2248398550"><ele>35.66</ele><time>2026-09-01T05:21:24Z</time></trkpt><trkpt lat="59.4968844205" lon="31.2248950917"><ele>36.41</ele><time>2026-09-01T05:21:44Z</time></trkpt><trkpt lat="59.4968475401" lon="31.2248563673"><ele>36.63</ele><time>2026-09-01T05:22:04Z</time></trkpt><trkpt lat="59.4968031999" lon="31.2248704489"><ele>40.95</ele><time>2026-09-01T05:23:33Z</time></trkpt><trkpt lat="59.4968036190" lon="31.2248955946"><ele>40.29</ele><time>2026-09-01T05:24:54Z</time></trkpt><trkpt lat="59.4967439398" lon="31.2249754742"><ele>40.58</ele><time>2026-09-01T05:25:13Z</time></trkpt><trkpt lat="59.4966932293" lon="31.2250385899"><ele>40.44</ele><time>2026-09-01T05:25:20Z</time></trkpt><trkpt lat="59.4966662396" lon="31.2251350656"><ele>40.50</ele><time>2026-09-01T05:25:24Z</time></trkpt><trkpt lat="59.4966913853" lon="31.2253480498"><ele>40.59</ele><time>2026-09-01T05:25:34Z</time></trkpt><trkpt lat="59.4966941513" lon="31.2254331261"><ele>40.95</ele><time>2026-09-01T05:25:38Z</time></trkpt><trkpt lat="59.4965946581" lon="31.2256470323"><ele>40.94</ele><time>2026-09-01T05:25:51Z</time></trkpt><trkpt lat="59.4964883756" lon="31.2257276662"><ele>41.84</ele><time>2026-09-01T05:26:03Z</time></trkpt><trkpt lat="59.4964651577" lon="31.2257646304"><ele>42.66</ele><time>2026-09-01T05:26:08Z</time></trkpt><trkpt lat="59.4964553509" lon="31.2259791233"><ele>44.40</ele><time>2026-09-01T05:26:20Z</time></trkpt><trkpt lat="59.4964427780" lon="31.2259821407"><ele>44.33</ele><time>2026-09-01T05:26:50Z</time></trkpt><trkpt lat="59.4963856973" lon="31.2259499542"><ele>43.82</ele><time>2026-09-01T05:27:10Z</time></trkpt><trkpt lat="59.4964025449" lon="31.2259831466"><ele>44.44</ele><time>2026-09-01T05:27:36Z</time></trkpt><trkpt lat="59.4963994436" lon="31.2259734236"><ele>44.24</ele><time>2026-09-01T05:27:38Z</time></trkpt><trkpt lat="59.4963845238" lon="31.2258881796"><ele>44.08</ele><time>2026-09-01T05:27:42Z</time></trkpt><trkpt lat="59.4962858688" lon="31.2259866670"><ele>44.37</ele><time>2026-09-01T05:27:50Z</time></trkpt><trkpt lat="59.4962027203" lon="31.2266365997"><ele>45.07</ele><time>2026-09-01T05:28:03Z</time></trkpt><trkpt lat="59.4958087709" lon="31.2276320346"><ele>46.11</ele><time>2026-09-01T05:28:16Z</time></trkpt><trkpt lat="59.4957321603" lon="31.2278633751"><ele>46.97</ele><time>2026-09-01T05:28:19Z</time></trkpt><trkpt lat="59.4955173321" lon="31.2288040761"><ele>46.84</ele><time>2026-09-01T05:28:30Z</time></trkpt><trkpt lat="59.4951932877" lon="31.2299262453"><ele>46.48</ele><time>2026-09-01T05:28:43Z</time></trkpt><trkpt lat="59.4949277490" lon="31.2304858211"><ele>44.78</ele><time>2026-09-01T05:28:51Z</time></trkpt><trkpt lat="59.4947211351" lon="31.2308453210"><ele>46.49</ele><time>2026-09-01T05:28:56Z</time></trkpt><trkpt lat="59.4945464563" lon="31.2310812715"><ele>46.70</ele><time>2026-09-01T05:29:00Z</time></trkpt><trkpt lat="59.4942371640" lon="31.2313199881"><ele>47.38</ele><time>2026-09-01T05:29:06Z</time></trkpt><trkpt lat="59.4941408560" lon="31.2313374225"><ele>47.83</ele><time>2026-09-01T05:29:08Z</time></trkpt><trkpt lat="59.4940431230" lon="31.2313247658"><ele>47.49</ele><time>2026-09-01T05:29:10Z</time></trkpt><trkpt lat="59.4938830286" lon="31.2313987780"><ele>48.57</ele><time>2026-09-01T05:29:13Z</time></trkpt><trkpt lat="59.4935204275" lon="31.2313801702"><ele>47.19</ele><time>2026-09-01T05:29:20Z</time></trkpt><trkpt lat="59.4934173301" lon="31.2316115946"><ele>48.31</ele><time>2026-09-01T05:29:24Z</time></trkpt><trkpt lat="59.4934040867" lon="31.2318237405"><ele>47.72</ele><time>2026-09-01T05:29:26Z</time></trkpt><trkpt lat="59.4933151547" lon="31.2324681412"><ele>47.03</ele><time>2026-09-01T05:29:31Z</time></trkpt><trkpt lat="59.4930541422" lon="31.2334358320"><ele>45.59</ele><time>2026-09-01T05:29:38Z</time></trkpt><trkpt lat="59.4926068839" lon="31.2353900727"><ele>45.13</ele><time>2026-09-01T05:29:49Z</time></trkpt><trkpt lat="59.4917869661" lon="31.2386511359"><ele>45.90</ele><time>2026-09-01T05:30:02Z</time></trkpt><trkpt lat="59.4913047552" lon="31.2414628454"><ele>45.41</ele><time>2026-09-01T05:30:13Z</time></trkpt><trkpt lat="59.4906892721" lon="31.2456701417"><ele>45.40</ele><time>2026-09-01T05:30:29Z</time></trkpt><trkpt lat="59.4903784711" lon="31.2482234370"><ele>45.31</ele><time>2026-09-01T05:30:40Z</time></trkpt><trkpt lat="59.4901333842" lon="31.2498253863"><ele>46.70</ele><time>2026-09-01T05:30:47Z</time></trkpt><trkpt lat="59.4899702724" lon="31.2524043303"><ele>45.98</ele><time>2026-09-01T05:30:59Z</time></trkpt><trkpt lat="59.4899449591" lon="31.2541154958"><ele>48.94</ele><time>2026-09-01T05:31:07Z</time></trkpt><trkpt lat="59.4898327254" lon="31.2548490800"><ele>48.07</ele><time>2026-09-01T05:31:12Z</time></trkpt><trkpt lat="59.4899179693" lon="31.2552610505"><ele>43.81</ele><time>2026-09-01T05:31:19Z</time></trkpt><trkpt lat="59.4903029501" lon="31.2566865608"><ele>47.50</ele><time>2026-09-01T05:31:28Z</time></trkpt><trkpt lat="59.4905796368" lon="31.2591977790"><ele>48.69</ele><time>2026-09-01T05:31:39Z</time></trkpt><trkpt lat="59.4908078760" lon="31.2600819860"><ele>50.63</ele><time>2026-09-01T05:31:44Z</time></trkpt><trkpt lat="59.4909172598" lon="31.2609450705"><ele>50.58</ele><time>2026-09-01T05:31:49Z</time></trkpt><trkpt lat="59.4913590699" lon="31.2623785436"><ele>49.23</ele><time>2026-09-01T05:31:59Z</time></trkpt><trkpt lat="59.4919906463" lon="31.2642070558"><ele>49.98</ele><time>2026-09-01T05:32:11Z</time></trkpt><trkpt lat="59.4920946658" lon="31.2648500316"><ele>48.80</ele><time>2026-09-01T05:32:15Z</time></trkpt><trkpt lat="59.4926201273" lon="31.2673048396"><ele>50.80</ele><time>2026-09-01T05:32:28Z</time></trkpt><trkpt lat="59.4927047845" lon="31.2684514839"><ele>51.61</ele><time>2026-09-01T05:32:34Z</time></trkpt><trkpt lat="59.4929872546" lon="31.2706961576"><ele>49.49</ele><time>2026-09-01T05:32:47Z</time></trkpt><trkpt lat="59.4928895216" lon="31.2724389229"><ele>50.20</ele><time>2026-09-01T05:32:57Z</time></trkpt><trkpt lat="59.4930210337" lon="31.2729186192"><ele>51.63</ele><time>2026-09-01T05:33:06Z</time></trkpt><trkpt lat="59.4929805491" lon="31.2728779670"><ele>49.00</ele><time>2026-09-01T05:33:10Z</time></trkpt><trkpt lat="59.4924995955" lon="31.2723460514"><ele>46.67</ele><time>2026-09-01T05:33:17Z</time></trkpt><trkpt lat="59.4912386220" lon="31.2710353732"><ele>45.27</ele><time>2026-09-01T05:33:27Z</time></trkpt><trkpt lat="59.4896403607" lon="31.2691475172"><ele>44.91</ele><time>2026-09-01T05:33:38Z</time></trkpt><trkpt lat="59.4880881999" lon="31.2675021496"><ele>45.47</ele><time>2026-09-01T05:33:48Z</time></trkpt><trkpt lat="59.4865564909" lon="31.2662291899"><ele>47.30</ele><time>2026-09-01T05:33:59Z</time></trkpt><trkpt lat="59.4845313393" lon="31.2647093832"><ele>48.99</ele><time>2026-09-01T05:34:13Z</time></trkpt><trkpt lat="59.4827213511" lon="31.2633036543"><ele>49.16</ele><time>2026-09-01T05:34:25Z</time></trkpt><trkpt lat="59.4814022910" lon="31.2617501523"><ele>50.98</ele><time>2026-09-01T05:34:34Z</time></trkpt><trkpt lat="59.4794058893" lon="31.2592989486"><ele>51.59</ele><time>2026-09-01T05:34:47Z</time></trkpt><trkpt lat="59.4774801470" lon="31.2572979368"><ele>50.42</ele><time>2026-09-01T05:34:59Z</time></trkpt><trkpt lat="59.4754568394" lon="31.2561734207"><ele>53.17</ele><time>2026-09-01T05:35:10Z</time></trkpt><trkpt lat="59.4732301868" lon="31.2549052387"><ele>52.12</ele><time>2026-09-01T05:35:22Z</time></trkpt><trkpt lat="59.4708599523" lon="31.2535883579"><ele>50.58</ele><time>2026-09-01T05:35:35Z</time></trkpt><trkpt lat="59.4698599912" lon="31.2531066500"><ele>50.41</ele><time>2026-09-01T05:35:41Z</time></trkpt><trkpt lat="59.4681879692" lon="31.2537225522"><ele>50.89</ele><time>2026-09-01T05:35:51Z</time></trkpt><trkpt lat="59.4666976668" lon="31.2543715630"><ele>51.75</ele><time>2026-09-01T05:36:01Z</time></trkpt><trkpt lat="59.4655857235" lon="31.2539986521"><ele>50.14</ele><time>2026-09-01T05:36:09Z</time></trkpt><trkpt lat="59.4639455527" lon="31.2530136947"><ele>48.80</ele><time>2026-09-01T05:36:21Z</time></trkpt><trkpt lat="59.4621567708" lon="31.2520739995"><ele>50.29</ele><time>2026-09-01T05:36:34Z</time></trkpt><trkpt lat="59.4605059549" lon="31.2511963304"><ele>50.20</ele><time>2026-09-01T05:36:46Z</time></trkpt><trkpt lat="59.4590856414" lon="31.2507968489"><ele>49.16</ele><time>2026-09-01T05:36:56Z</time></trkpt><trkpt lat="59.4571313169" lon="31.2497787829"><ele>50.41</ele><time>2026-09-01T05:37:08Z</time></trkpt><trkpt lat="59.4552807603" lon="31.2485314719"><ele>50.16</ele><time>2026-09-01T05:37:19Z</time></trkpt><trkpt lat="59.4532432873" lon="31.2464101799"><ele>51.31</ele><time>2026-09-01T05:37:32Z</time></trkpt><trkpt lat="59.4514142722" lon="31.2445922289"><ele>51.79</ele><time>2026-09-01T05:37:44Z</time></trkpt><trkpt lat="59.4499207847" lon="31.2431719992"><ele>51.52</ele><time>2026-09-01T05:37:55Z</time></trkpt><trkpt lat="59.4482786860" lon="31.2418966927"><ele>53.54</ele><time>2026-09-01T05:38:07Z</time></trkpt><trkpt lat="59.4468723703" lon="31.2418036535"><ele>51.55</ele><time>2026-09-01T05:38:17Z</time></trkpt><trkpt lat="59.4455819763" lon="31.2423806638"><ele>51.30</ele><time>2026-09-01T05:38:26Z</time></trkpt><trkpt lat="59.4441026542" lon="31.2431131583"><ele>51.55</ele><time>2026-09-01T05:38:34Z</time></trkpt><trkpt lat="59.4417116325" lon="31.2444687635"><ele>53.91</ele><time>2026-09-01T05:38:46Z</time></trkpt><trkpt lat="59.4390940480" lon="31.2458961178"><ele>51.43</ele><time>2026-09-01T05:38:58Z</time></trkpt><trkpt lat="59.4358279556" lon="31.2477151584"><ele>51.93</ele><time>2026-09-01T05:39:12Z</time></trkpt><trkpt lat="59.4328762684" lon="31.2493664771"><ele>52.33</ele><time>2026-09-01T05:39:25Z</time></trkpt><trkpt lat="59.4314975291" lon="31.2501107901"><ele>52.46</ele><time>2026-09-01T05:39:31Z</time></trkpt><trkpt lat="59.4287726562" lon="31.2502937671"><ele>51.30</ele><time>2026-09-01T05:39:43Z</time></trkpt><trkpt lat="59.4264796190" lon="31.2504148856"><ele>51.75</ele><time>2026-09-01T05:39:53Z</time></trkpt><trkpt lat="59.4234957453" lon="31.2506486569"><ele>50.29</ele><time>2026-09-01T05:40:06Z</time></trkpt><trkpt lat="59.4228711259" lon="31.2506737188"><ele>49.97</ele><time>2026-09-01T05:40:09Z</time></trkpt><trkpt lat="59.4211823400" lon="31.2496819720"><ele>50.73</ele><time>2026-09-01T05:40:18Z</time></trkpt><trkpt lat="59.4190520793" lon="31.2483438849"><ele>49.53</ele><time>2026-09-01T05:40:28Z</time></trkpt><trkpt lat="59.4167703576" lon="31.2469786406"><ele>48.23</ele><time>2026-09-01T05:40:39Z</time></trkpt><trkpt lat="59.4151421729" lon="31.2457902543"><ele>48.52</ele><time>2026-09-01T05:40:48Z</time></trkpt><trkpt lat="59.4145868719" lon="31.2453037687"><ele>47.82</ele><time>2026-09-01T05:40:52Z</time></trkpt><trkpt lat="59.4140471611" lon="31.2451316882"><ele>46.60</ele><time>2026-09-01T05:40:56Z</time></trkpt><trkpt lat="59.4121381827" lon="31.2449917942"><ele>49.09</ele><time>2026-09-01T05:41:10Z</time></trkpt><trkpt lat="59.4105013646" lon="31.2446202245"><ele>49.17</ele><time>2026-09-01T05:41:21Z</time></trkpt><trkpt lat="59.4085937273" lon="31.2442175578"><ele>48.26</ele><time>2026-09-01T05:41:31Z</time></trkpt><trkpt lat="59.4064455293" lon="31.2439596467"><ele>49.80</ele><time>2026-09-01T05:41:42Z</time></trkpt><trkpt lat="59.4059285335" lon="31.2438247818"><ele>48.41</ele><time>2026-09-01T05:41:45Z</time></trkpt><trkpt lat="59.4044415839" lon="31.2423578650"><ele>47.57</ele><time>2026-09-01T05:41:54Z</time></trkpt><trkpt lat="59.4023111556" lon="31.2401371635"><ele>49.95</ele><time>2026-09-01T05:42:06Z</time></trkpt><trkpt lat="59.4002206251" lon="31.2377700303"><ele>48.03</ele><time>2026-09-01T05:42:18Z</time></trkpt><trkpt lat="59.3987214379" lon="31.2362303585"><ele>49.88</ele><time>2026-09-01T05:42:27Z</time></trkpt><trkpt lat="59.3982316833" lon="31.2357716169"><ele>49.76</ele><time>2026-09-01T05:42:30Z</time></trkpt><trkpt lat="59.3965558894" lon="31.2349297386"><ele>48.63</ele><time>2026-09-01T05:42:40Z</time></trkpt><trkpt lat="59.3951986916" lon="31.2339876965"><ele>50.60</ele><time>2026-09-01T05:42:48Z</time></trkpt><trkpt lat="59.3926092703" lon="31.2311751489"><ele>50.19</ele><time>2026-09-01T05:43:03Z</time></trkpt><trkpt lat="59.3901451584" lon="31.2285927683"><ele>51.77</ele><time>2026-09-01T05:43:17Z</time></trkpt><trkpt lat="59.3898007460" lon="31.2282552291"><ele>51.51</ele><time>2026-09-01T05:43:19Z</time></trkpt><trkpt lat="59.3891639728" lon="31.2280156743"><ele>54.07</ele><time>2026-09-01T05:43:23Z</time></trkpt><trkpt lat="59.3869082350" lon="31.2278912868"><ele>51.07</ele><time>2026-09-01T05:43:35Z</time></trkpt><trkpt lat="59.3845179677" lon="31.2276713457"><ele>51.59</ele><time>2026-09-01T05:43:47Z</time></trkpt><trkpt lat="59.3838692922" lon="31.2277867645"><ele>49.67</ele><time>2026-09-01T05:43:51Z</time></trkpt><trkpt lat="59.3831020966" lon="31.2289148849"><ele>51.71</ele><time>2026-09-01T05:43:57Z</time></trkpt><trkpt lat="59.3812446669" lon="31.2320191227"><ele>50.12</ele><time>2026-09-01T05:44:10Z</time></trkpt><trkpt lat="59.3811088800" lon="31.2322334480"><ele>50.00</ele><time>2026-09-01T05:44:11Z</time></trkpt><trkpt lat="59.3795696273" lon="31.2333532702"><ele>48.72</ele><time>2026-09-01T05:44:20Z</time></trkpt><trkpt lat="59.3787234742" lon="31.2339938991"><ele>47.91</ele><time>2026-09-01T05:44:25Z</time></trkpt><trkpt lat="59.3780497368" lon="31.2353392784"><ele>48.13</ele><time>2026-09-01T05:44:31Z</time></trkpt><trkpt lat="59.3772979639" lon="31.2387429178"><ele>44.68</ele><time>2026-09-01T05:44:42Z</time></trkpt><trkpt lat="59.3771796953" lon="31.2390086241"><ele>44.56</ele><time>2026-09-01T05:44:43Z</time></trkpt><trkpt lat="59.3766467739" lon="31.2399471458"><ele>45.94</ele><time>2026-09-01T05:44:47Z</time></trkpt><trkpt lat="59.3742823228" lon="31.2424833421"><ele>47.25</ele><time>2026-09-01T05:45:01Z</time></trkpt><trkpt lat="59.3721857574" lon="31.2435204349"><ele>45.62</ele><time>2026-09-01T05:45:12Z</time></trkpt><trkpt lat="59.3699312769" lon="31.2445422728"><ele>48.15</ele><time>2026-09-01T05:45:24Z</time></trkpt><trkpt lat="59.3674642313" lon="31.2457900867"><ele>48.10</ele><time>2026-09-01T05:45:37Z</time></trkpt><trkpt lat="59.3656097353" lon="31.2466574460"><ele>48.00</ele><time>2026-09-01T05:45:48Z</time></trkpt><trkpt lat="59.3643537909" lon="31.2465671729"><ele>47.55</ele><time>2026-09-01T05:45:56Z</time></trkpt><trkpt lat="59.3625863828" lon="31.2461215910"><ele>47.01</ele><time>2026-09-01T05:46:07Z</time></trkpt><trkpt lat="59.3611578550" lon="31.2457585707"><ele>46.69</ele><time>2026-09-01T05:46:17Z</time></trkpt><trkpt lat="59.3606129475" lon="31.2452727556"><ele>44.98</ele><time>2026-09-01T05:46:22Z</time></trkpt><trkpt lat="59.3593118247" lon="31.2431910262"><ele>46.88</ele><time>2026-09-01T05:46:33Z</time></trkpt><trkpt lat="59.3587476388" lon="31.2423106749"><ele>45.51</ele><time>2026-09-01T05:46:38Z</time></trkpt><trkpt lat="59.3583333213" lon="31.2413921859"><ele>45.78</ele><time>2026-09-01T05:46:42Z</time></trkpt><trkpt lat="59.3578532897" lon="31.2393242866"><ele>44.97</ele><time>2026-09-01T05:46:51Z</time></trkpt><trkpt lat="59.3577050976" lon="31.2388162594"><ele>44.00</ele><time>2026-09-01T05:46:57Z</time></trkpt><trkpt lat="59.3577357754" lon="31.2388885953"><ele>45.56</ele><time>2026-09-01T05:47:07Z</time></trkpt><trkpt lat="59.3577457499" lon="31.2388102245"><ele>43.50</ele><time>2026-09-01T05:47:33Z</time></trkpt><trkpt lat="59.3577462528" lon="31.2388139963"><ele>43.00</ele><time>2026-09-01T05:48:13Z</time></trkpt><trkpt lat="59.3577562273" lon="31.2388490327"><ele>45.12</ele><time>2026-09-01T05:49:09Z</time></trkpt><trkpt lat="59.3577457499" lon="31.2388269883"><ele>46.28</ele><time>2026-09-01T05:50:10Z</time></trkpt><trkpt lat="59.3577601667" lon="31.2388390582"><ele>46.85</ele><time>2026-09-01T05:51:16Z</time></trkpt><trkpt lat="59.3577625975" lon="31.2388551515"><ele>47.65</ele><time>2026-09-01T05:52:35Z</time></trkpt><trkpt lat="59.3577598315" lon="31.2388704903"><ele>47.09</ele><time>2026-09-01T05:53:37Z</time></trkpt><trkpt lat="59.3577502761" lon="31.2388732564"><ele>46.80</ele><time>2026-09-01T05:54:47Z</time></trkpt><trkpt lat="59.3577502761" lon="31.2388763577"><ele>46.53</ele><time>2026-09-01T05:55:17Z</time></trkpt><trkpt lat="59.3577662855" lon="31.2389200274"><ele>46.25</ele><time>2026-09-01T05:56:13Z</time></trkpt><trkpt lat="59.3577525392" lon="31.2388851587"><ele>46.47</ele><time>2026-09-01T05:56:48Z</time></trkpt><trkpt lat="59.3577203527" lon="31.2389293313"><ele>46.02</ele><time>2026-09-01T05:57:26Z</time></trkpt><trkpt lat="59.3577333447" lon="31.2388365436"><ele>45.04</ele><time>2026-09-01T05:58:08Z</time></trkpt><trkpt lat="59.3577391282" lon="31.2388555706"><ele>44.09</ele><time>2026-09-01T05:59:15Z</time></trkpt><trkpt lat="59.3577464204" lon="31.2389228772"><ele>45.08</ele><time>2026-09-01T06:00:29Z</time></trkpt><trkpt lat="59.3577167485" lon="31.2388842367"><ele>45.63</ele><time>2026-09-01T06:01:39Z</time></trkpt><trkpt lat="59.3577453308" lon="31.2388745975"><ele>45.54</ele><time>2026-09-01T06:02:26Z</time></trkpt><trkpt lat="59.3577061873" lon="31.2387802172"><ele>45.59</ele><time>2026-09-01T06:03:15Z</time></trkpt><trkpt lat="59.3572779559" lon="31.2379669212"><ele>45.86</ele><time>2026-09-01T06:03:27Z</time></trkpt><trkpt lat="59.3565007858" lon="31.2365623657"><ele>46.62</ele><time>2026-09-01T06:03:36Z</time></trkpt><trkpt lat="59.3554993998" lon="31.2347045168"><ele>44.86</ele><time>2026-09-01T06:03:45Z</time></trkpt><trkpt lat="59.3543516658" lon="31.2324394751"><ele>45.88</ele><time>2026-09-01T06:03:54Z</time></trkpt><trkpt lat="59.3535242882" lon="31.2300968170"><ele>45.03</ele><time>2026-09-01T06:04:03Z</time></trkpt><trkpt lat="59.3526891991" lon="31.2275050487"><ele>46.97</ele><time>2026-09-01T06:04:16Z</time></trkpt><trkpt lat="59.3525828328" lon="31.2272185553"><ele>44.93</ele><time>2026-09-01T06:04:19Z</time></trkpt><trkpt lat="59.3525520712" lon="31.2271447945"><ele>44.30</ele><time>2026-09-01T06:04:27Z</time></trkpt><trkpt lat="59.3525506463" lon="31.2271398492"><ele>44.60</ele><time>2026-09-01T06:04:29Z</time></trkpt><trkpt lat="59.3525787257" lon="31.2270021345"><ele>42.61</ele><time>2026-09-01T06:04:31Z</time></trkpt><trkpt lat="59.3530805502" lon="31.2260897644"><ele>40.41</ele><time>2026-09-01T06:04:39Z</time></trkpt><trkpt lat="59.3539276253" lon="31.2245126255"><ele>40.40</ele><time>2026-09-01T06:04:47Z</time></trkpt><trkpt lat="59.3553280737" lon="31.2218118925"><ele>42.49</ele><time>2026-09-01T06:04:57Z</time></trkpt><trkpt lat="59.3572141696" lon="31.2182550319"><ele>44.78</ele><time>2026-09-01T06:05:09Z</time></trkpt><trkpt lat="59.3590972479" lon="31.2148025259"><ele>46.29</ele><time>2026-09-01T06:05:22Z</time></trkpt><trkpt lat="59.3616567459" lon="31.2099002860"><ele>47.53</ele><time>2026-09-01T06:05:40Z</time></trkpt><trkpt lat="59.3644508533" lon="31.2045503687"><ele>46.83</ele><time>2026-09-01T06:06:00Z</time></trkpt><trkpt lat="59.3663653638" lon="31.2009240221"><ele>46.12</ele><time>2026-09-01T06:06:13Z</time></trkpt><trkpt lat="59.3684810400" lon="31.1970128585"><ele>44.60</ele><time>2026-09-01T06:06:25Z</time></trkpt><trkpt lat="59.3711911608" lon="31.1919483449"><ele>43.03</ele><time>2026-09-01T06:06:39Z</time></trkpt><trkpt lat="59.3734132871" lon="31.1877088621"><ele>42.92</ele><time>2026-09-01T06:06:51Z</time></trkpt><trkpt lat="59.3752459902" lon="31.1840681825"><ele>44.53</ele><time>2026-09-01T06:07:02Z</time></trkpt><trkpt lat="59.3769067805" lon="31.1810479313"><ele>44.35</ele><time>2026-09-01T06:07:13Z</time></trkpt><trkpt lat="59.3786434270" lon="31.1778478883"><ele>42.80</ele><time>2026-09-01T06:07:25Z</time></trkpt><trkpt lat="59.3804673292" lon="31.1743166763"><ele>43.01</ele><time>2026-09-01T06:07:36Z</time></trkpt><trkpt lat="59.3827418424" lon="31.1700242199"><ele>43.75</ele><time>2026-09-01T06:07:49Z</time></trkpt><trkpt lat="59.3844123557" lon="31.1668430362"><ele>43.34</ele><time>2026-09-01T06:07:59Z</time></trkpt><trkpt lat="59.3860201724" lon="31.1638061889"><ele>44.52</ele><time>2026-09-01T06:08:10Z</time></trkpt><trkpt lat="59.3879321683" lon="31.1601870507"><ele>45.07</ele><time>2026-09-01T06:08:21Z</time></trkpt><trkpt lat="59.3904487509" lon="31.1553882435"><ele>45.66</ele><time>2026-09-01T06:08:34Z</time></trkpt><trkpt lat="59.3926757388" lon="31.1511076894"><ele>45.00</ele><time>2026-09-01T06:08:46Z</time></trkpt><trkpt lat="59.3948210869" lon="31.1471173167"><ele>46.36</ele><time>2026-09-01T06:08:58Z</time></trkpt><trkpt lat="59.3966781814" lon="31.1436013598"><ele>46.88</ele><time>2026-09-01T06:09:10Z</time></trkpt><trkpt lat="59.3986410554" lon="31.1398935411"><ele>48.59</ele><time>2026-09-01T06:09:23Z</time></trkpt><trkpt lat="59.4006077852" lon="31.1362989619"><ele>49.33</ele><time>2026-09-01T06:09:36Z</time></trkpt><trkpt lat="59.4026595913" lon="31.1325625610"><ele>51.40</ele><time>2026-09-01T06:09:50Z</time></trkpt><trkpt lat="59.4044240657" lon="31.1292287428"><ele>51.13</ele><time>2026-09-01T06:10:01Z</time></trkpt><trkpt lat="59.4063685834" lon="31.1255818605"><ele>51.65</ele><time>2026-09-01T06:10:12Z</time></trkpt><trkpt lat="59.4084601197" lon="31.1214683577"><ele>51.06</ele><time>2026-09-01T06:10:25Z</time></trkpt><trkpt lat="59.4100451376" lon="31.1186318379"><ele>53.25</ele><time>2026-09-01T06:10:35Z</time></trkpt><trkpt lat="59.4118133839" lon="31.1153119337"><ele>54.45</ele><time>2026-09-01T06:10:48Z</time></trkpt><trkpt lat="59.4133639522" lon="31.1123808660"><ele>55.91</ele><time>2026-09-01T06:10:58Z</time></trkpt><trkpt lat="59.4155297522" lon="31.1084164772"><ele>56.94</ele><time>2026-09-01T06:11:10Z</time></trkpt><trkpt lat="59.4183475804" lon="31.1030279193"><ele>56.93</ele><time>2026-09-01T06:11:25Z</time></trkpt><trkpt lat="59.4210182223" lon="31.0981914774"><ele>56.56</ele><time>2026-09-01T06:11:38Z</time></trkpt><trkpt lat="59.4235460367" lon="31.0934992880"><ele>57.96</ele><time>2026-09-01T06:11:50Z</time></trkpt><trkpt lat="59.4257169496" lon="31.0893452168"><ele>58.61</ele><time>2026-09-01T06:12:01Z</time></trkpt><trkpt lat="59.4287870731" lon="31.0837219656"><ele>57.58</ele><time>2026-09-01T06:12:16Z</time></trkpt><trkpt lat="59.4313347526" lon="31.0789511539"><ele>59.95</ele><time>2026-09-01T06:12:28Z</time></trkpt><trkpt lat="59.4344780501" lon="31.0729908664"><ele>59.91</ele><time>2026-09-01T06:12:43Z</time></trkpt><trkpt lat="59.4362189714" lon="31.0697421245"><ele>59.91</ele><time>2026-09-01T06:12:52Z</time></trkpt><trkpt lat="59.4379003812" lon="31.0665973183"><ele>59.73</ele><time>2026-09-01T06:13:02Z</time></trkpt><trkpt lat="59.4394126441" lon="31.0638752952"><ele>60.43</ele><time>2026-09-01T06:13:12Z</time></trkpt><trkpt lat="59.4406660739" lon="31.0615168791"><ele>61.28</ele><time>2026-09-01T06:13:21Z</time></trkpt><trkpt lat="59.4423569553" lon="31.0582968872"><ele>60.41</ele><time>2026-09-01T06:13:33Z</time></trkpt><trkpt lat="59.4442392793" lon="31.0548678506"><ele>58.26</ele><time>2026-09-01T06:13:46Z</time></trkpt><trkpt lat="59.4463684503" lon="31.0508350655"><ele>57.34</ele><time>2026-09-01T06:13:59Z</time></trkpt><trkpt lat="59.4482410513" lon="31.0474154167"><ele>56.03</ele><time>2026-09-01T06:14:09Z</time></trkpt><trkpt lat="59.4506673608" lon="31.0429306794"><ele>57.48</ele><time>2026-09-01T06:14:21Z</time></trkpt><trkpt lat="59.4532599673" lon="31.0383476224"><ele>57.24</ele><time>2026-09-01T06:14:33Z</time></trkpt><trkpt lat="59.4546929374" lon="31.0357830953"><ele>58.60</ele><time>2026-09-01T06:14:41Z</time></trkpt><trkpt lat="59.4563021790" lon="31.0326235369"><ele>54.56</ele><time>2026-09-01T06:14:53Z</time></trkpt><trkpt lat="59.4577354845" lon="31.0298189521"><ele>55.63</ele><time>2026-09-01T06:15:02Z</time></trkpt><trkpt lat="59.4593825284" lon="31.0269514192"><ele>55.28</ele><time>2026-09-01T06:15:11Z</time></trkpt><trkpt lat="59.4610951189" lon="31.0237737559"><ele>54.26</ele><time>2026-09-01T06:15:20Z</time></trkpt><trkpt lat="59.4627203699" lon="31.0207603779"><ele>53.37</ele><time>2026-09-01T06:15:29Z</time></trkpt><trkpt lat="59.4645011891" lon="31.0174735822"><ele>52.35</ele><time>2026-09-01T06:15:40Z</time></trkpt><trkpt lat="59.4662959222" lon="31.0141628981"><ele>54.98</ele><time>2026-09-01T06:15:52Z</time></trkpt><trkpt lat="59.4670055341" lon="31.0128952190"><ele>61.74</ele><time>2026-09-01T06:15:59Z</time></trkpt><trkpt lat="59.4673640281" lon="31.0130789503"><ele>62.33</ele><time>2026-09-01T06:16:04Z</time></trkpt><trkpt lat="59.4674145710" lon="31.0133157391"><ele>56.53</ele><time>2026-09-01T06:16:06Z</time></trkpt><trkpt lat="59.4679484982" lon="31.0144615453"><ele>54.29</ele><time>2026-09-01T06:16:16Z</time></trkpt><trkpt lat="59.4682624843" lon="31.0146375652"><ele>53.17</ele><time>2026-09-01T06:16:21Z</time></trkpt><trkpt lat="59.4693002477" lon="31.0139512550"><ele>55.10</ele><time>2026-09-01T06:16:32Z</time></trkpt><trkpt lat="59.4707882870" lon="31.0130318440"><ele>54.16</ele><time>2026-09-01T06:16:43Z</time></trkpt><trkpt lat="59.4723471534" lon="31.0122193862"><ele>56.60</ele><time>2026-09-01T06:16:54Z</time></trkpt><trkpt lat="59.4732912909" lon="31.0127797164"><ele>54.42</ele><time>2026-09-01T06:17:01Z</time></trkpt><trkpt lat="59.4736069534" lon="31.0132754222"><ele>54.42</ele><time>2026-09-01T06:17:04Z</time></trkpt><trkpt lat="59.4751770515" lon="31.0163773969"><ele>53.60</ele><time>2026-09-01T06:17:19Z</time></trkpt><trkpt lat="59.4763681199" lon="31.0185376648"><ele>54.04</ele><time>2026-09-01T06:17:28Z</time></trkpt><trkpt lat="59.4773713499" lon="31.0207755491"><ele>53.84</ele><time>2026-09-01T06:17:37Z</time></trkpt><trkpt lat="59.4782861508" lon="31.0226701945"><ele>52.96</ele><time>2026-09-01T06:17:46Z</time></trkpt><trkpt lat="59.4792016223" lon="31.0243975371"><ele>54.63</ele><time>2026-09-01T06:17:57Z</time></trkpt><trkpt lat="59.4792437833" lon="31.0245161410"><ele>54.81</ele><time>2026-09-01T06:17:59Z</time></trkpt><trkpt lat="59.4794907980" lon="31.0242759995"><ele>48.93</ele><time>2026-09-01T06:18:05Z</time></trkpt><trkpt lat="59.4802367873" lon="31.0227814224"><ele>54.17</ele><time>2026-09-01T06:18:14Z</time></trkpt><trkpt lat="59.4806705508" lon="31.0217991471"><ele>55.03</ele><time>2026-09-01T06:18:20Z</time></trkpt><trkpt lat="59.4807474967" lon="31.0216118954"><ele>55.70</ele><time>2026-09-01T06:18:22Z</time></trkpt><trkpt lat="59.4808738958" lon="31.0214229673"><ele>53.26</ele><time>2026-09-01T06:18:26Z</time></trkpt><trkpt lat="59.4811056554" lon="31.0209667403"><ele>59.09</ele><time>2026-09-01T06:18:37Z</time></trkpt><trkpt lat="59.4811073318" lon="31.0210023634"><ele>55.36</ele><time>2026-09-01T06:18:56Z</time></trkpt><trkpt lat="59.4810720440" lon="31.0210258327"><ele>53.93</ele><time>2026-09-01T06:19:13Z</time></trkpt><trkpt lat="59.4810818508" lon="31.0210264195"><ele>53.24</ele><time>2026-09-01T06:19:30Z</time></trkpt></trkseg></trk></gpx>